[[{"header":{"parameterUnit":"m.s-1","parameterCategory":1,"la1":31.0,"la2":29.5877,"lo1":-88.7671,"lo2":-86.6584,"dx":0.0162,"dy":0.0185,"nx":115,"ny":88,"refTime":"2022-11-20T18:00:00:Z","depth":0,"parameterNumber":2,"parameterNumberName":"U-component_of_WINDS"},"data":[0.0,0.0,0.0,0.0,0.0,0.0,0.0,0.0,0.0,0.0,0.0,0.0,0.0,0.0,0.0,0.0,0.0,0.0,0.0,0.0,0.0,0.0,0.0,0.0,0.0,0.0,0.0,0.0,0.0,0.0,0.0,0.0,0.0,0.0,0.0,0.0,0.0,0.0,0.0,0.0,0.0,0.0,0.0,0.0,0.0,0.0,0.0,0.0,0.0,0.0,0.0,0.0,0.0,0.0,0.0,0.0,0.0,0.0,0.0,0.0,0.0,0.0,0.0,0.0,0.0,0.0,0.0,0.0,0.0,0.0,0.0,0.0,0.0,0.0,0.0,0.0,0.0,0.0,0.0,0.0,0.0,0.0,0.0,0.0,0.0,0.0,0.0,0.0,0.0,0.0,0.0,0.0,0.0,0.0,0.0,0.0,0.0,0.0,0.0,0.0,0.0,0.0,0.0,0.0,0.0,0.0,0.0,0.0,0.0,0.0,0.0,0.0,0.0,0.0,0.0,0.0,0.0,0.0,0.0,0.0,0.0,0.0,0.0,0.0,0.0,0.0,0.0,0.0,0.0,0.0,0.0,0.0,0.0,0.0,0.0,0.0,0.0,0.0,0.0,0.0,0.0,0.0,0.0,0.0,0.0,0.0,0.0,0.0,0.0,0.0,0.0,0.0,0.0,0.0,0.0,0.0,0.0,0.0,0.0,0.0,0.0,0.0,0.0,0.0,0.0,0.0,0.0,0.0,0.0,0.0,0.0,0.0,0.0,0.0,0.0,0.0,0.0,0.0,0.0,0.0,0.0,0.0,0.0,0.0,0.0,0.0,0.0,0.0,0.0,0.0,0.0,0.0,0.0,0.0,0.0,0.0,0.0,0.0,0.0,0.0,0.0,0.0,0.0,0.0,0.0,0.0,0.0,0.0,0.0,0.0,0.0,0.0,0.0,0.0,0.0,0.0,0.0,0.0,0.0,0.0,0.0,0.0,0.0,0.0,0.0,0.0,0.0,0.0,0.0,0.0,0.0,0.0,0.0,0.0,0.0,0.0,0.0,0.0,0.0,0.0,0.0,0.0,0.0,0.0,0.0,0.0,0.0,0.0,0.0,0.0,0.0,0.0,0.0,0.0,0.0,0.0,0.0,0.0,0.0,0.0,0.0,0.0,0.0,0.0,0.0,0.0,0.0,0.0,0.0,0.0,0.0,0.0,0.0,0.0,0.0,0.0,0.0,0.0,0.0,0.0,0.0,0.0,0.0,0.0,0.0,0.0,0.0,0.0,0.0,0.0,0.0,0.0,0.0,0.0,0.0,0.0,0.0,0.0,0.0,0.0,0.0,0.0,0.0,0.0,0.0,0.0,0.0,0.0,0.0,0.0,0.0,0.0,0.0,0.0,0.0,0.0,0.0,0.0,0.0,0.0,0.0,0.0,0.0,0.0,0.0,0.0,0.0,0.0,0.0,0.0,0.0,0.0,0.0,0.0,0.0,0.0,0.0,0.0,0.0,0.0,0.0,0.0,0.0,0.0,0.0,0.0,0.0,0.0,0.0,0.0,0.0,0.0,0.0,0.0,0.0,0.0,0.0,0.0,0.0,0.0,0.0,0.0,0.0,0.0,0.0,0.0,0.0,0.0,0.0,0.0,0.0,0.0,0.0,0.0,0.0,0.0,0.0,0.0,0.0,0.0,0.0,0.0,0.0,0.0,0.0,0.0,0.0,0.0,0.0,0.0,0.0,0.0,0.0,0.0,0.0,0.0,0.0,0.0,0.0,0.0,0.0,0.0,0.0,0.0,0.0,0.0,0.0,0.0,0.0,0.0,0.0,0.0,0.0,0.0,0.0,0.0,0.0,0.0,0.0,0.0,0.0,0.0,0.0,0.0,0.0,0.0,0.0,0.0,0.0,0.0,0.0,0.0,0.0,0.0,0.0,0.0,0.0,0.0,0.0,0.0,0.0,0.0,0.0,0.0,0.0,0.0,0.0,0.0,0.0,0.0,0.0,0.0,0.0,0.0,0.0,0.0,0.0,0.0,0.0,0.0,0.0,0.0,0.0,0.0,0.0,0.0,0.0,0.0,0.0,0.0,0.0,0.0,0.0,0.0,0.0,0.0,0.0,0.0,0.0,0.0,0.0,0.0,0.0,0.0,0.0,0.0,0.0,0.0,0.0,0.0,0.0,0.0,0.0,0.0,0.0,0.0,0.0,0.0,0.0,0.0,0.0,0.0,0.0,0.0,0.0,0.0,0.0,0.0,0.0,0.0,0.0,0.0,0.0,0.0,0.0,0.0,0.0,0.0,0.0,0.0,0.0,0.0,0.0,0.0,0.0,0.0,0.0,0.0,0.0,0.0,0.0,0.0,0.0,0.0,0.0,0.0,0.0,0.0,0.0,0.0,0.0,0.0,0.0,0.0,0.0,0.0,0.0,0.0,0.0,0.0,0.0,0.0,0.0,0.0,0.0,0.0,0.0,0.0,0.0,0.0,0.0,0.0,0.0,0.0,0.0,0.0,0.0,0.0,0.0,0.0,0.0,0.0,0.0,0.0,0.0,0.0,0.0,0.0,0.0,0.0,0.0,0.0,0.0,0.0,0.0,0.0,0.0,0.0,0.0,0.0,0.0,0.0,0.0,0.0,0.0,0.0,0.0,0.0,0.0,0.0,0.0,0.0,0.0,0.0,0.0,0.0,0.0,0.0,0.0,0.0,0.0,0.0,0.0,0.0,0.0,0.0,0.0,0.0,0.0,0.0,0.0,0.0,0.0,0.0,0.0,0.0,0.0,0.0,0.0,0.0,0.0,0.0,0.0,0.0,0.0,0.0,0.0,0.0,0.0,0.0,0.0,0.0,0.0,0.0,0.0,0.0,0.0,0.0,0.0,0.0,0.0,0.0,0.0,0.0,0.0,0.0,0.0,0.0,0.0,0.0,0.0,0.0,0.0,0.0,0.0,0.0,0.0,0.0,0.0,0.0,0.0,0.0,0.0,0.0,0.0,0.0,0.0,0.0,0.0,0.0,0.0,0.0,0.0,0.0,0.0,0.0,0.0,0.0,0.0,0.0,0.0,0.0,0.0,0.0,0.0,0.0,0.0,0.0,0.0,0.0,0.0,0.0,0.0,0.0,0.0,0.0,0.0,0.0,0.0,0.0,0.0,0.0,0.0,0.0,0.0,0.0,0.0,0.0,0.0,0.0,0.0,0.0,0.0,0.0,0.0,0.0,0.0,0.0,0.0,0.0,0.0,0.0,0.0,0.0,0.0,0.0,0.0,0.0,0.0,0.0,0.0,0.0,0.0,0.0,0.0,0.0,0.0,0.0,0.0,0.0,0.0,0.0,0.0,0.0,0.0,0.0,0.0,0.0,0.0,0.0,0.0,0.0,0.0,0.0,0.0,0.0,0.0,0.0,0.0,0.0,0.0,0.0,0.0,0.0,0.0,0.0,0.0,0.0,0.0,0.0,0.0,0.0,0.0,0.0,0.0,0.0,0.0,0.0,0.0,0.0,0.0,0.0,0.0,0.0,0.0,0.0,0.0,0.0,0.0,0.0,0.0,0.0,0.0,0.0,0.0,0.0,0.0,0.0,0.0,0.0,0.0,0.0,0.0,0.0,0.0,0.0,0.0,0.0,0.0,0.0,0.0,0.0,0.0,0.0,0.0,0.0,0.0,0.0,0.0,0.0,0.0,0.0,0.0,0.0,0.0,0.0,0.0,0.0,0.0,0.0,0.0,0.0,0.0,0.0,0.0,0.0,0.0,0.0,0.0,0.0,0.0,0.0,0.0,0.0,0.0,0.0,0.0,0.0,0.0,0.0,0.0,0.0,0.0,0.0,0.0,0.0,0.0,0.0,0.0,0.0,0.0,0.0,0.0,0.0,0.0,0.0,0.0,0.0,0.0,0.0,0.0,0.0,0.0,0.0,0.0,0.0,0.0,0.0,0.0,0.0,0.0,0.0,0.0,0.0,0.0,0.0,0.0,0.0,0.0,0.0,0.0,0.0,0.0,0.0,0.0,0.0,0.0,0.0,0.0,0.0,0.0,0.0,0.0,0.0,0.0,0.0,0.0,0.0,0.0,0.0,0.0,0.0,0.0,0.0,0.0,0.0,0.0,0.0,0.0,0.0,0.0,0.0,0.0,0.0,0.0,0.0,0.0,0.0,0.0,0.0,0.0,0.0,0.0,0.0,0.0,0.0,0.0,0.0,0.0,0.0,0.0,0.0,0.0,0.0,0.0,0.0,0.0,0.0,0.0,0.0,0.0,0.0,2.4997,0.0,0.0,0.0,2.1346,0.0,0.0,0.0,0.0,0.0,0.0,0.0,0.0,0.0,0.0,0.0,0.0,0.0,0.0,0.0,0.0,0.0,0.0,0.0,0.0,0.0,0.0,0.0,0.0,0.0,0.0,0.0,0.0,0.0,0.0,0.0,0.0,0.0,0.0,0.0,0.0,0.0,0.0,0.0,0.0,0.0,0.0,0.0,0.0,0.0,0.0,0.0,0.0,0.0,0.0,0.0,0.0,0.0,0.0,0.0,0.0,0.0,0.0,0.0,0.0,0.0,0.0,0.0,0.0,0.0,0.0,0.0,0.0,0.0,0.0,0.0,0.0,0.0,0.0,0.0,0.0,0.0,0.0,0.0,0.0,0.0,0.0,0.0,0.0,0.0,0.0,0.0,0.0,0.0,0.0,0.0,0.0,0.0,0.0,0.0,0.0,0.0,0.0,0.0,0.0,0.0,0.0,0.0,0.0,0.0,0.0,0.0,0.0,0.0,0.0,2.4974,2.453,2.3626,2.2625,2.1523,0.0,0.0,0.0,0.0,0.0,0.0,0.0,0.0,0.0,0.0,0.0,0.0,0.0,0.0,0.0,0.0,0.0,0.0,0.0,0.0,0.0,0.0,0.0,0.0,0.0,0.0,0.0,0.0,0.0,0.0,0.0,0.0,0.0,0.0,0.0,0.0,0.0,0.0,0.0,0.0,0.0,0.0,0.0,0.0,0.0,0.0,0.0,0.0,0.0,0.0,0.0,0.0,0.0,0.0,0.0,0.0,0.0,0.0,0.0,0.0,0.0,0.0,0.0,0.0,0.0,0.0,0.0,0.0,0.0,0.0,0.0,0.0,0.0,0.0,0.0,0.0,0.0,0.0,0.0,0.0,0.0,0.0,0.0,0.0,0.0,0.0,0.0,0.0,0.0,0.0,0.0,0.0,0.0,0.0,0.0,0.0,0.0,0.0,0.0,0.0,0.0,0.0,0.0,0.0,0.0,0.0,0.0,0.0,0.0,0.0,0.0,0.0,2.388,2.2704,2.1248,0.0,0.0,0.0,0.0,0.0,0.0,0.0,0.0,0.0,0.0,0.0,0.0,0.0,0.0,0.0,0.0,0.0,0.0,0.0,0.0,0.0,0.0,0.0,0.0,0.0,0.0,0.0,0.0,0.0,0.0,0.0,0.0,0.0,0.0,0.0,0.0,0.0,0.0,0.0,0.0,0.0,0.0,0.0,0.0,0.0,0.0,0.0,0.0,0.0,0.0,0.0,0.0,0.0,0.0,0.0,0.0,0.0,0.0,0.0,0.0,0.0,0.0,0.0,0.0,0.0,0.0,0.0,0.0,0.0,0.0,0.0,0.0,0.0,0.0,0.0,0.0,0.0,0.0,0.0,0.0,0.0,0.0,0.0,0.0,0.0,0.0,0.0,0.0,0.0,0.0,0.0,0.0,0.0,0.0,0.0,0.0,0.0,0.0,0.0,0.0,0.0,0.0,0.0,0.0,0.0,0.0,0.0,0.0,0.0,0.0,2.5015,2.4786,2.384,0.0,1.9936,0.0,0.0,0.0,0.0,0.0,0.0,0.0,0.0,0.0,0.0,0.0,0.0,0.0,0.0,0.0,0.0,0.0,0.0,0.0,0.0,0.0,0.0,0.0,0.0,0.0,0.0,0.0,0.0,0.0,0.0,0.0,0.0,0.0,0.0,0.0,0.0,0.0,0.0,0.0,0.0,0.0,0.0,0.0,0.0,0.0,0.0,0.0,0.0,0.0,0.0,0.0,0.0,0.0,0.0,0.0,0.0,0.0,0.0,0.0,0.0,0.0,0.0,0.0,0.0,0.0,0.0,0.0,0.0,0.0,0.0,0.0,0.0,0.0,0.0,0.0,0.0,0.0,0.0,0.0,0.0,0.0,0.0,0.0,0.0,0.0,0.0,0.0,0.0,0.0,0.0,0.0,0.0,0.0,0.0,0.0,0.0,0.0,0.0,0.0,0.0,0.0,0.0,0.0,0.0,0.0,0.0,0.0,0.0,0.0,0.0,2.4926,2.4686,2.3397,2.1857,0.0,0.0,0.0,0.0,0.0,0.0,0.0,0.0,0.0,0.0,0.0,0.0,0.0,0.0,0.0,0.0,0.0,0.0,0.0,0.0,0.0,0.0,0.0,0.0,0.0,0.0,0.0,0.0,0.0,0.0,0.0,0.0,0.0,0.0,0.0,0.0,0.0,0.0,0.0,0.0,0.0,0.0,0.0,0.0,0.0,0.0,0.0,0.0,0.0,0.0,0.0,0.0,0.0,0.0,0.0,0.0,0.0,0.0,0.0,0.0,0.0,0.0,0.0,0.0,0.0,0.0,0.0,0.0,0.0,0.0,0.0,0.0,0.0,0.0,0.0,0.0,0.0,0.0,0.0,0.0,0.0,0.0,0.0,0.0,0.0,0.0,0.0,0.0,0.0,0.0,0.0,0.0,0.0,0.0,0.0,0.0,0.0,0.0,0.0,0.0,0.0,0.0,0.0,0.0,0.0,0.0,0.0,0.0,0.0,0.0,2.4557,2.4786,2.4379,2.2886,2.1557,2.0472,0.0,0.0,0.0,0.0,0.0,0.0,0.0,0.0,0.0,0.0,0.0,0.0,0.0,0.0,0.0,0.0,0.0,0.0,0.0,0.0,0.0,0.0,0.0,0.0,0.0,0.0,0.0,0.0,0.0,0.0,0.0,0.0,0.0,0.0,0.0,0.0,0.0,0.0,0.0,0.0,0.0,0.0,0.0,0.0,0.0,0.0,0.0,0.0,0.0,0.0,0.0,0.0,0.0,0.0,0.0,0.0,0.0,0.0,0.0,0.0,0.0,0.0,0.0,0.0,0.0,0.0,0.0,0.0,0.0,0.0,0.0,0.0,0.0,0.0,0.0,0.0,0.0,0.0,0.0,0.0,0.0,0.0,0.0,0.0,0.0,0.0,0.0,0.0,0.0,0.0,0.0,0.0,0.0,0.0,0.0,0.0,0.0,0.0,0.0,0.0,0.0,0.0,0.0,0.0,0.0,0.0,0.0,0.0,2.3926,2.4532,2.4585,2.4087,2.2332,2.1171,0.0,0.0,0.0,0.0,0.0,0.0,0.0,0.0,0.0,0.0,0.0,0.0,0.0,0.0,0.0,0.0,0.0,0.0,0.0,0.0,0.0,0.0,0.0,0.0,0.0,0.0,0.0,0.0,0.0,0.0,0.0,0.0,0.0,0.0,0.0,0.0,0.0,0.0,0.0,0.0,0.0,0.0,0.0,0.0,0.0,0.0,0.0,0.0,0.0,0.0,0.0,0.0,0.0,0.0,0.0,0.0,0.0,0.0,0.0,0.0,0.0,0.0,0.0,0.0,0.0,0.0,0.0,0.0,0.0,0.0,0.0,0.0,0.0,0.0,0.0,0.0,0.0,0.0,0.0,0.0,0.0,0.0,0.0,0.0,0.0,0.0,0.0,0.0,0.0,0.0,0.0,0.0,0.0,0.0,0.0,0.0,0.0,0.0,0.0,0.0,0.0,0.0,0.0,0.0,0.0,0.0,0.0,0.0,0.0,2.4491,2.5884,2.6424,2.591,2.4238,2.2658,0.0,0.0,0.0,0.0,0.0,0.0,0.0,0.0,0.0,0.0,0.0,0.0,0.0,0.0,0.0,0.0,0.0,0.0,0.0,0.0,0.0,0.0,0.0,0.0,0.0,0.0,0.0,0.0,0.0,0.0,0.0,0.0,0.0,0.0,0.0,0.0,0.0,0.0,0.0,0.0,0.0,0.0,0.0,0.0,0.0,0.0,0.0,0.0,0.0,0.0,0.0,0.0,0.0,0.0,0.0,0.0,0.0,0.0,0.0,0.0,0.0,0.0,0.0,0.0,0.0,0.0,0.0,0.0,0.0,0.0,0.0,0.0,0.0,0.0,0.0,0.0,0.0,0.0,0.0,0.0,0.0,0.0,0.0,0.0,0.0,0.0,0.0,0.0,0.0,0.0,0.0,0.0,0.0,0.0,0.0,0.0,0.0,0.0,0.0,0.0,0.0,0.0,0.0,0.0,0.0,0.0,0.0,0.0,0.0,2.603,2.8006,2.8791,2.8282,2.6417,2.4388,0.0,0.0,0.0,0.0,0.0,0.0,0.0,0.0,0.0,0.0,0.0,0.0,0.0,0.0,0.0,0.0,0.0,0.0,0.0,0.0,0.0,0.0,0.0,0.0,0.0,0.0,0.0,0.0,0.0,0.0,0.0,0.0,0.0,0.0,0.0,0.0,0.0,0.0,0.0,0.0,0.0,0.0,0.0,0.0,0.0,0.0,0.0,0.0,0.0,0.0,0.0,0.0,0.0,0.0,0.0,0.0,0.0,0.0,0.0,0.0,0.0,0.0,0.0,0.0,0.0,0.0,0.0,0.0,0.0,0.0,0.0,0.0,0.0,0.0,0.0,0.0,0.0,0.0,0.0,0.0,0.0,0.0,0.0,0.0,0.0,0.0,0.0,0.0,0.0,0.0,0.0,0.0,0.0,0.0,0.0,0.0,0.0,0.0,0.0,0.0,0.0,0.0,0.0,0.0,0.0,0.0,0.0,0.0,2.5404,2.8665,3.0815,3.1703,3.1039,2.8796,2.6314,0.0,0.0,0.0,0.0,0.0,0.0,0.0,0.0,0.0,0.0,0.0,0.0,0.0,0.0,0.0,0.0,0.0,0.0,0.0,0.0,0.0,0.0,0.0,0.0,0.0,0.0,0.0,0.0,0.0,0.0,0.0,0.0,0.0,0.0,0.0,0.0,0.0,0.0,0.0,0.0,0.0,0.0,0.0,0.0,0.0,0.0,0.0,0.0,0.0,0.0,0.0,0.0,0.0,0.0,0.0,0.0,0.0,0.0,0.0,0.0,0.0,0.0,0.0,0.0,0.0,0.0,0.0,0.0,0.0,0.0,0.0,0.0,0.0,0.0,0.0,0.0,0.0,0.0,0.0,0.0,0.0,0.0,0.0,0.0,0.0,0.0,0.0,0.0,0.0,0.0,0.0,0.0,0.0,0.0,0.0,0.0,0.0,0.0,0.0,0.0,0.0,0.0,0.0,0.0,0.0,0.0,0.0,0.0,0.0,3.2757,3.5073,3.6288,3.6221,3.2896,2.9435,0.0,0.0,0.0,0.0,0.0,0.0,0.0,0.0,0.0,0.0,0.0,0.0,0.0,0.0,0.0,0.0,0.0,0.0,0.0,0.0,0.0,0.0,0.0,0.0,0.0,0.0,0.0,0.0,0.0,0.0,0.0,0.0,0.0,0.0,0.0,0.0,0.0,0.0,0.0,0.0,0.0,0.0,0.0,0.0,0.0,0.0,0.0,0.0,0.0,0.0,0.0,0.0,0.0,0.0,0.0,0.0,0.0,0.0,0.0,0.0,0.0,0.0,0.0,0.0,0.0,0.0,0.0,0.0,0.0,0.0,0.0,0.0,0.0,0.0,0.0,0.0,0.0,0.0,0.0,0.0,0.0,0.0,0.0,0.0,0.0,0.0,0.0,0.0,0.0,0.0,0.0,0.0,0.0,0.0,0.0,0.0,0.0,0.0,0.0,0.0,0.0,0.0,0.0,0.0,0.0,0.0,0.0,0.0,0.0,3.809,3.964,4.0532,4.0791,3.6851,3.26,2.8121,0.0,0.0,0.0,0.0,0.0,0.0,0.0,0.0,0.0,0.0,0.0,0.0,0.0,0.0,0.0,0.0,0.0,0.0,0.0,0.0,0.0,0.0,0.0,0.0,0.0,0.0,0.0,0.0,0.0,0.0,0.0,0.0,0.0,0.0,0.0,0.0,0.0,0.0,0.0,0.0,0.0,0.0,0.0,0.0,0.0,0.0,0.0,0.0,0.0,0.0,0.0,0.0,0.0,0.0,0.0,0.0,0.0,0.0,0.0,0.0,0.0,0.0,0.0,0.0,0.0,0.0,0.0,0.0,0.0,0.0,0.0,0.0,0.0,0.0,0.0,0.0,0.0,0.0,0.0,0.0,0.0,0.0,0.0,0.0,0.0,0.0,0.0,0.0,0.0,0.0,0.0,0.0,0.0,0.0,0.0,0.0,0.0,0.0,0.0,0.0,0.0,0.0,0.0,0.0,0.0,0.0,0.0,0.0,4.4342,4.4411,4.4428,4.4435,4.0442,3.5605,0.0,0.0,0.0,0.0,0.0,0.0,0.0,0.0,0.0,0.0,0.0,0.0,0.0,0.0,0.0,0.0,0.0,0.0,0.0,0.0,0.0,0.0,0.0,0.0,0.0,0.0,0.0,0.0,0.0,0.0,0.0,0.0,0.0,0.0,0.0,0.0,0.0,0.0,0.0,0.0,0.0,0.0,0.0,0.0,0.0,0.0,0.0,0.0,0.0,0.0,0.0,0.0,0.0,0.0,0.0,0.0,0.0,0.0,0.0,0.0,0.0,0.0,0.0,0.0,0.0,0.0,0.0,0.0,0.0,0.0,0.0,0.0,0.0,0.0,0.0,0.0,0.0,0.0,0.0,0.0,0.0,0.0,0.0,0.0,0.0,0.0,0.0,0.0,0.0,0.0,0.0,0.0,0.0,0.0,0.0,0.0,0.0,0.0,0.0,0.0,0.0,0.0,0.0,0.0,0.0,0.0,0.0,0.0,0.0,4.7027,4.864,4.8679,4.7154,4.2891,3.7773,0.0,0.0,0.0,0.0,0.0,0.0,0.0,0.0,0.0,0.0,0.0,0.0,0.0,0.0,0.0,0.0,0.0,0.0,0.0,0.0,0.0,0.0,0.0,0.0,0.0,0.0,0.0,0.0,0.0,0.0,0.0,0.0,0.0,0.0,0.0,0.0,0.0,0.0,0.0,0.0,0.0,0.0,0.0,0.0,0.0,0.0,0.0,0.0,0.0,0.0,0.0,0.0,0.0,0.0,0.0,0.0,0.0,0.0,0.0,0.0,0.0,0.0,0.0,0.0,0.0,0.0,0.0,0.0,0.0,0.0,0.0,0.0,0.0,0.0,0.0,0.0,0.0,0.0,0.0,0.0,0.0,0.0,0.0,0.0,0.0,0.0,0.0,0.0,0.0,0.0,0.0,0.0,0.0,0.0,0.0,0.0,0.0,0.0,0.0,0.0,0.0,0.0,0.0,0.0,0.0,0.0,0.0,0.0,4.4824,4.8732,5.0894,5.0778,4.8278,4.4247,3.9137,0.0,0.0,0.0,0.0,0.0,0.0,0.0,0.0,0.0,0.0,0.0,0.0,0.0,0.0,0.0,0.0,0.0,0.0,0.0,0.0,0.0,0.0,0.0,0.0,0.0,0.0,0.0,0.0,0.0,0.0,0.0,0.0,0.0,0.0,0.0,0.0,0.0,0.0,0.0,0.0,0.0,0.0,0.0,0.0,0.0,0.0,0.0,0.0,0.0,0.0,0.0,0.0,0.0,0.0,0.0,0.0,0.0,0.0,0.0,0.0,0.0,0.0,0.0,0.0,0.0,0.0,0.0,0.0,0.0,0.0,0.0,0.0,0.0,0.0,0.0,0.0,0.0,0.0,0.0,0.0,0.0,0.0,0.0,0.0,0.0,0.0,0.0,0.0,0.0,0.0,0.0,0.0,0.0,0.0,0.0,0.0,0.0,0.0,0.0,0.0,0.0,0.0,0.0,0.0,0.0,0.0,0.0,0.0,4.6709,4.9464,5.1744,5.142,4.826,4.4793,3.9881,0.0,0.0,0.0,0.0,0.0,0.0,0.0,0.0,0.0,0.0,0.0,0.0,0.0,0.0,0.0,0.0,0.0,0.0,0.0,0.0,0.0,0.0,0.0,0.0,0.0,0.0,0.0,0.0,0.0,0.0,0.0,0.0,0.0,0.0,0.0,0.0,0.0,0.0,0.0,0.0,0.0,0.0,0.0,0.0,0.0,0.0,0.0,0.0,0.0,0.0,0.0,0.0,0.0,0.0,0.0,0.0,0.0,0.0,0.0,0.0,0.0,0.0,0.0,0.0,0.0,0.0,0.0,0.0,0.0,0.0,0.0,0.0,0.0,0.0,0.0,0.0,0.0,0.0,0.0,0.0,0.0,0.0,0.0,0.0,0.0,0.0,0.0,0.0,0.0,0.0,0.0,0.0,0.0,0.0,0.0,0.0,0.0,0.0,0.0,0.0,0.0,0.0,0.0,0.0,0.0,0.0,0.0,0.0,4.749,4.9621,5.1812,5.1454,4.8289,4.4724,3.9988,0.0,0.0,0.0,0.0,0.0,0.0,0.0,0.0,0.0,0.0,0.0,0.0,0.0,0.0,0.0,0.0,0.0,0.0,0.0,0.0,0.0,0.0,0.0,0.0,0.0,0.0,0.0,0.0,0.0,0.0,0.0,0.0,0.0,0.0,0.0,0.0,0.0,0.0,0.0,0.0,0.0,0.0,0.0,0.0,0.0,0.0,0.0,0.0,2.3797,0.0,0.0,0.0,0.0,0.0,0.0,0.0,0.0,0.0,0.0,0.0,0.0,0.0,0.0,0.0,0.0,0.0,0.0,0.0,0.0,0.0,0.0,0.0,0.0,0.0,0.0,0.0,0.0,0.0,0.0,0.0,0.0,0.0,0.0,0.0,0.0,0.0,0.0,0.0,0.0,0.0,0.0,0.0,0.0,0.0,0.0,0.0,0.0,0.0,0.0,0.0,0.0,0.0,0.0,0.0,0.0,0.0,0.0,0.0,4.841,5.0395,5.1876,5.1098,4.788,4.4283,3.9776,0.0,0.0,0.0,0.0,0.0,0.0,0.0,0.0,0.0,0.0,0.0,0.0,0.0,0.0,0.0,0.0,0.0,0.0,0.0,0.0,0.0,0.0,0.0,0.0,0.0,0.0,0.0,0.0,0.0,0.0,0.0,0.0,0.0,0.0,0.0,0.0,0.0,0.0,0.0,0.0,0.0,0.0,0.0,0.0,0.0,0.0,0.0,0.0,0.0,0.0,0.0,0.0,0.0,0.0,0.0,0.0,0.0,0.0,0.0,0.0,0.0,0.0,0.0,0.0,0.0,0.0,0.0,0.0,0.0,0.0,0.0,0.0,0.0,0.0,0.0,0.0,0.0,0.0,0.0,0.0,0.0,0.0,0.0,0.0,0.0,0.0,0.0,0.0,0.0,0.0,0.0,0.0,0.0,0.0,0.0,0.0,0.0,0.0,0.0,0.0,0.0,0.0,0.0,0.0,0.0,0.0,0.0,4.5528,4.9163,5.113,5.1759,5.0565,4.7405,4.3913,3.9545,3.4358,0.0,0.0,0.0,0.0,0.0,0.0,0.0,0.0,0.0,0.0,0.0,0.0,0.0,0.0,0.0,0.0,0.0,0.0,0.0,0.0,0.0,0.0,0.0,0.0,0.0,0.0,0.0,0.0,0.0,0.0,0.0,0.0,0.0,0.0,0.0,0.0,0.0,0.0,2.1557,2.3242,0.0,0.0,0.0,0.0,0.0,0.0,0.0,0.0,2.5137,0.0,0.0,0.0,0.0,0.0,0.0,0.0,0.0,0.0,0.0,0.0,0.0,0.0,0.0,0.0,0.0,0.0,0.0,0.0,0.0,0.0,0.0,0.0,0.0,0.0,0.0,0.0,0.0,0.0,0.0,0.0,0.0,0.0,0.0,0.0,0.0,0.0,0.0,0.0,0.0,0.0,0.0,0.0,0.0,0.0,0.0,0.0,0.0,0.0,0.0,0.0,0.0,0.0,0.0,0.0,0.0,4.1017,4.6002,4.9327,5.0743,5.1217,5.0051,4.7125,4.3988,3.9825,3.4577,0.0,0.0,0.0,0.0,0.0,0.0,0.0,0.0,0.0,0.0,0.0,0.0,0.0,0.0,0.0,0.0,0.0,0.0,0.0,0.0,0.0,0.0,0.0,0.0,0.0,0.0,0.0,0.0,0.0,0.0,0.0,0.0,0.0,0.0,0.0,0.0,0.0,0.0,0.0,2.5252,2.6107,0.0,0.0,0.0,0.0,0.0,0.0,0.0,0.0,2.6142,0.0,0.0,0.0,0.0,0.0,0.0,0.0,0.0,0.0,0.0,0.0,0.0,0.0,0.0,0.0,0.0,0.0,0.0,0.0,0.0,0.0,0.0,0.0,0.0,0.0,0.0,0.0,0.0,0.0,0.0,0.0,0.0,0.0,0.0,0.0,0.0,0.0,0.0,0.0,0.0,0.0,0.0,0.0,0.0,0.0,0.0,0.0,0.0,0.0,0.0,0.0,0.0,0.0,0.0,0.0,4.2436,4.6409,4.9197,5.0667,5.0491,4.919,4.6784,4.3444,3.9373,0.0,0.0,0.0,0.0,0.0,0.0,0.0,0.0,0.0,0.0,0.0,0.0,0.0,0.0,0.0,0.0,0.0,0.0,0.0,0.0,0.0,0.0,0.0,0.0,0.0,0.0,0.0,0.0,0.0,0.0,0.0,0.0,0.0,0.0,0.0,0.0,0.0,0.0,0.0,0.0,2.6324,2.7041,2.7661,0.0,0.0,0.0,0.0,0.0,0.0,2.7196,2.6675,0.0,0.0,0.0,0.0,0.0,0.0,0.0,0.0,0.0,0.0,0.0,0.0,0.0,0.0,0.0,0.0,0.0,0.0,0.0,0.0,0.0,0.0,0.0,0.0,0.0,0.0,0.0,0.0,0.0,0.0,0.0,0.0,0.0,0.0,0.0,0.0,0.0,0.0,0.0,0.0,0.0,0.0,0.0,0.0,0.0,0.0,0.0,0.0,0.0,0.0,0.0,0.0,0.0,0.0,0.0,4.3579,4.6672,4.8997,5.0403,4.9655,4.8313,4.6334,4.2844,3.8861,0.0,0.0,0.0,0.0,0.0,0.0,0.0,0.0,0.0,0.0,0.0,0.0,0.0,0.0,0.0,0.0,0.0,0.0,0.0,0.0,0.0,0.0,0.0,0.0,0.0,0.0,0.0,0.0,0.0,0.0,0.0,0.0,0.0,0.0,0.0,0.0,0.0,0.0,0.0,0.0,0.0,2.8049,2.9052,2.8934,0.0,0.0,0.0,0.0,2.8826,2.8159,0.0,0.0,0.0,0.0,0.0,0.0,0.0,0.0,0.0,0.0,0.0,0.0,0.0,0.0,0.0,0.0,0.0,0.0,0.0,0.0,0.0,0.0,0.0,0.0,0.0,0.0,0.0,0.0,0.0,0.0,0.0,0.0,0.0,0.0,0.0,0.0,0.0,0.0,0.0,0.0,0.0,0.0,0.0,0.0,0.0,0.0,0.0,0.0,0.0,0.0,0.0,0.0,0.0,0.0,0.0,0.0,4.3494,4.6742,4.878,4.9569,4.8731,4.7424,4.5708,4.265,3.8861,0.0,0.0,0.0,0.0,0.0,0.0,0.0,0.0,0.0,0.0,0.0,0.0,0.0,0.0,0.0,0.0,0.0,0.0,0.0,0.0,0.0,0.0,0.0,0.0,0.0,0.0,0.0,0.0,0.0,0.0,0.0,0.0,0.0,0.0,0.0,0.0,0.0,0.0,0.0,0.0,0.0,2.9372,2.9815,3.0452,3.0746,0.0,0.0,3.1329,3.1119,3.0501,0.0,0.0,0.0,0.0,0.0,0.0,0.0,0.0,0.0,0.0,0.0,0.0,0.0,0.0,0.0,0.0,0.0,0.0,0.0,0.0,0.0,0.0,0.0,0.0,0.0,0.0,0.0,0.0,0.0,0.0,0.0,0.0,0.0,0.0,0.0,0.0,0.0,0.0,0.0,0.0,0.0,0.0,0.0,0.0,0.0,0.0,0.0,0.0,0.0,0.0,0.0,0.0,0.0,0.0,0.0,3.9645,4.3324,4.6406,4.8188,4.8673,4.8313,4.7232,4.5333,4.2537,3.9061,0.0,0.0,0.0,0.0,0.0,0.0,0.0,0.0,0.0,0.0,0.0,0.0,0.0,0.0,0.0,0.0,0.0,0.0,0.0,0.0,0.0,0.0,0.0,0.0,0.0,0.0,0.0,0.0,0.0,0.0,0.0,0.0,0.0,0.0,0.0,0.0,0.0,0.0,0.0,0.0,0.0,0.0,3.151,3.2108,0.0,0.0,0.0,3.2757,3.2407,0.0,0.0,0.0,0.0,0.0,0.0,0.0,0.0,0.0,0.0,0.0,0.0,0.0,0.0,0.0,0.0,0.0,0.0,0.0,0.0,0.0,0.0,0.0,0.0,0.0,0.0,0.0,0.0,0.0,0.0,0.0,0.0,0.0,0.0,0.0,0.0,0.0,0.0,0.0,0.0,0.0,0.0,0.0,0.0,0.0,0.0,0.0,0.0,0.0,0.0,0.0,0.0,0.0,0.0,0.0,0.0,0.0,4.2813,4.5848,4.7575,4.7947,4.7876,4.7052,4.5421,4.2674,0.0,0.0,0.0,0.0,0.0,0.0,0.0,0.0,0.0,0.0,0.0,0.0,0.0,0.0,0.0,0.0,0.0,0.0,0.0,0.0,0.0,0.0,0.0,0.0,0.0,0.0,0.0,0.0,0.0,0.0,0.0,0.0,0.0,0.0,0.0,0.0,0.0,0.0,0.0,0.0,0.0,0.0,3.1371,3.3101,3.3733,3.4139,0.0,0.0,3.4354,3.3721,3.2786,3.1588,0.0,0.0,0.0,0.0,0.0,0.0,0.0,0.0,0.0,0.0,0.0,0.0,0.0,0.0,0.0,0.0,0.0,0.0,0.0,0.0,0.0,0.0,0.0,0.0,0.0,0.0,0.0,0.0,0.0,0.0,0.0,0.0,0.0,0.0,0.0,0.0,0.0,0.0,0.0,0.0,0.0,0.0,0.0,0.0,0.0,0.0,0.0,0.0,0.0,0.0,0.0,0.0,0.0,0.0,0.0,4.162,4.5,4.7052,4.7587,4.7349,4.6858,4.6205,4.3337,4.0207,0.0,0.0,0.0,0.0,0.0,0.0,0.0,0.0,0.0,0.0,0.0,0.0,0.0,0.0,0.0,0.0,0.0,0.0,0.0,0.0,0.0,0.0,0.0,0.0,0.0,0.0,0.0,0.0,0.0,0.0,0.0,0.0,0.0,0.0,0.0,0.0,0.0,0.0,0.0,0.0,0.0,3.2546,3.4315,3.5231,3.5925,0.0,0.0,3.6518,3.5477,3.4626,3.3281,3.0826,0.0,0.0,0.0,0.0,0.0,0.0,0.0,0.0,0.0,0.0,0.0,0.0,0.0,0.0,0.0,0.0,0.0,0.0,0.0,0.0,0.0,0.0,0.0,0.0,0.0,0.0,0.0,0.0,0.0,0.0,0.0,0.0,0.0,0.0,0.0,0.0,0.0,0.0,0.0,0.0,0.0,0.0,0.0,0.0,0.0,0.0,0.0,0.0,0.0,0.0,0.0,0.0,0.0,3.8188,4.1286,4.4871,4.6895,4.7262,4.7461,4.7174,4.6326,4.388,4.1145,0.0,0.0,0.0,0.0,0.0,0.0,0.0,0.0,0.0,0.0,0.0,0.0,0.0,0.0,0.0,0.0,0.0,0.0,0.0,0.0,0.0,0.0,0.0,0.0,0.0,0.0,0.0,0.0,2.3434,2.4271,2.494,0.0,0.0,0.0,0.0,0.0,0.0,0.0,0.0,0.0,0.0,3.4096,3.6141,3.6852,0.0,0.0,3.7581,3.7284,3.6228,3.5373,3.3973,3.1474,2.9949,0.0,0.0,0.0,0.0,0.0,0.0,0.0,0.0,0.0,0.0,0.0,0.0,0.0,0.0,0.0,0.0,0.0,0.0,0.0,0.0,0.0,0.0,0.0,0.0,0.0,0.0,0.0,0.0,0.0,0.0,0.0,0.0,0.0,0.0,0.0,0.0,0.0,0.0,0.0,0.0,0.0,0.0,0.0,0.0,0.0,0.0,0.0,0.0,0.0,0.0,0.0,0.0,3.7802,4.1051,4.4719,4.6864,4.7324,4.7676,4.7531,4.6778,4.4618,4.2361,0.0,0.0,0.0,0.0,0.0,0.0,0.0,0.0,0.0,0.0,0.0,0.0,0.0,0.0,0.0,0.0,0.0,0.0,0.0,0.0,0.0,0.0,0.0,0.0,0.0,0.0,0.0,0.0,2.4883,2.5437,2.5264,0.0,0.0,0.0,0.0,0.0,0.0,0.0,0.0,0.0,0.0,3.5907,3.7857,3.8365,3.8542,3.8592,3.8492,3.7942,3.6627,3.5817,3.4484,3.2018,0.0,0.0,0.0,0.0,0.0,0.0,0.0,0.0,0.0,0.0,0.0,0.0,0.0,0.0,0.0,0.0,0.0,0.0,0.0,0.0,0.0,0.0,0.0,0.0,0.0,0.0,0.0,0.0,0.0,0.0,2.4725,0.0,0.0,0.0,0.0,0.0,0.0,0.0,0.0,0.0,0.0,0.0,0.0,0.0,0.0,0.0,0.0,0.0,0.0,0.0,0.0,0.0,0.0,3.7691,4.0816,4.4483,4.6828,4.7857,4.7908,4.7908,4.7807,4.5719,4.379,4.2087,0.0,0.0,0.0,0.0,0.0,0.0,0.0,0.0,0.0,0.0,0.0,0.0,0.0,0.0,0.0,0.0,0.0,0.0,0.0,0.0,0.0,0.0,0.0,0.0,0.0,0.0,2.5756,2.6295,2.6415,0.0,0.0,0.0,0.0,0.0,0.0,0.0,0.0,0.0,0.0,3.6385,3.7959,3.9421,3.9647,3.9718,3.9957,3.9582,3.8578,3.6706,3.5929,3.4799,0.0,0.0,0.0,0.0,0.0,0.0,0.0,0.0,0.0,0.0,0.0,0.0,0.0,0.0,0.0,0.0,0.0,0.0,0.0,0.0,0.0,0.0,0.0,0.0,0.0,0.0,0.0,3.0749,2.9856,0.0,0.0,0.0,0.0,0.0,0.0,0.0,0.0,0.0,0.0,0.0,3.6741,3.6885,0.0,0.0,0.0,0.0,0.0,0.0,0.0,0.0,0.0,0.0,0.0,0.0,3.8741,4.2219,4.5276,4.7405,4.8435,4.8485,4.8284,4.7908,4.6502,4.4267,4.1153,0.0,0.0,0.0,0.0,0.0,0.0,0.0,0.0,0.0,0.0,0.0,0.0,0.0,0.0,0.0,0.0,0.0,0.0,0.0,0.0,0.0,0.0,0.0,0.0,0.0,2.7523,0.0,0.0,0.0,0.0,0.0,0.0,0.0,0.0,0.0,0.0,0.0,3.4085,3.6581,3.7615,3.8614,3.9968,4.003,3.9918,0.0,0.0,0.0,0.0,0.0,0.0,0.0,0.0,0.0,0.0,0.0,0.0,0.0,0.0,3.2831,3.0558,3.025,3.0271,3.0017,0.0,0.0,0.0,0.0,0.0,0.0,0.0,0.0,0.0,0.0,0.0,0.0,0.0,0.0,0.0,0.0,3.2832,0.0,0.0,0.0,0.0,0.0,0.0,0.0,0.0,3.8387,3.9409,4.0024,4.0158,3.9823,0.0,3.8672,3.6974,0.0,0.0,0.0,0.0,0.0,0.0,0.0,0.0,3.9824,4.3072,4.5525,4.7284,4.8362,4.8412,4.8237,4.7807,4.6734,4.4669,4.1566,3.947,3.696,0.0,0.0,0.0,0.0,0.0,0.0,0.0,0.0,0.0,0.0,0.0,0.0,0.0,0.0,0.0,0.0,0.0,0.0,0.0,0.0,0.0,0.0,0.0,2.9012,0.0,0.0,0.0,0.0,0.0,0.0,0.0,0.0,0.0,3.2708,3.436,3.6303,3.8391,3.9161,3.9793,4.0449,0.0,0.0,0.0,0.0,0.0,0.0,0.0,3.4946,3.3961,3.3532,3.3495,3.3916,3.4987,3.5799,3.584,0.0,0.0,3.3322,3.2885,3.2861,3.2429,3.3049,3.3744,3.3903,3.4664,3.5511,0.0,0.0,0.0,0.0,0.0,0.0,0.0,0.0,3.9247,3.8839,0.0,3.7168,0.0,0.0,0.0,0.0,0.0,3.6523,0.0,0.0,4.1626,4.2641,4.3873,4.3465,4.2997,4.2523,4.247,4.2056,4.1027,3.6871,0.0,0.0,0.0,0.0,0.0,0.0,4.0833,4.335,4.5255,4.6676,4.7708,4.7757,4.7732,4.7683,4.647,4.5042,4.3403,4.1591,3.9596,3.7387,3.4223,0.0,0.0,0.0,0.0,0.0,0.0,0.0,0.0,0.0,0.0,0.0,0.0,0.0,0.0,0.0,0.0,0.0,0.0,0.0,0.0,2.9548,0.0,0.0,0.0,0.0,0.0,0.0,0.0,0.0,0.0,0.0,3.5949,3.7185,3.8567,3.9978,0.0,0.0,0.0,0.0,3.9969,3.9053,3.8189,3.7161,3.5824,3.5736,3.5526,3.4797,0.0,0.0,3.5353,3.6258,3.7043,3.7258,3.7876,3.7854,3.623,3.5806,3.5583,3.5058,3.5294,3.5881,3.6309,3.6531,3.7008,4.2031,0.0,0.0,0.0,0.0,4.044,4.1271,4.186,4.2272,4.2041,4.1358,4.0859,0.0,0.0,0.0,0.0,0.0,0.0,4.0694,4.2496,4.3326,4.4097,4.4797,4.5021,4.5039,4.4922,4.5099,4.4713,4.3819,4.2513,4.0226,3.7073,0.0,0.0,0.0,0.0,4.2791,4.4683,4.6388,4.7585,4.833,4.8354,4.8125,4.7708,4.6622,4.5717,4.5117,4.3842,4.2413,4.0828,3.8366,0.0,0.0,0.0,0.0,0.0,0.0,0.0,0.0,0.0,0.0,0.0,0.0,0.0,0.0,0.0,0.0,0.0,0.0,0.0,3.2131,3.2105,3.2043,0.0,0.0,0.0,0.0,0.0,0.0,0.0,0.0,0.0,3.9448,3.9464,3.9848,0.0,0.0,4.1022,4.0778,4.0524,4.0081,3.9286,0.0,0.0,0.0,3.6478,3.6059,3.614,3.6744,3.7217,3.7313,3.7943,3.8605,3.9054,3.9308,3.9317,3.8975,3.7891,3.7007,3.6605,3.6665,3.7002,3.7401,3.8061,3.8741,4.4867,4.3175,4.1972,4.1725,4.2259,4.3378,4.4301,4.5017,4.5493,4.5316,4.4674,4.447,4.3385,4.1642,4.1128,0.0,0.0,0.0,4.3012,4.4493,4.5121,4.5759,4.6385,4.6603,4.6697,4.6692,4.6717,4.6442,4.5906,4.5759,4.4322,4.1704,0.0,0.0,4.1161,4.2765,4.4304,4.5697,4.6743,4.7556,4.8158,4.8149,4.7881,4.7313,4.6783,4.6287,4.5736,4.5025,4.4148,4.3019,4.1093,3.8992,0.0,0.0,0.0,0.0,0.0,0.0,0.0,0.0,0.0,0.0,0.0,2.5615,0.0,0.0,0.0,0.0,3.1401,3.2819,3.4423,3.4026,0.0,0.0,0.0,0.0,0.0,0.0,0.0,3.6209,3.7777,3.9412,4.1138,4.0868,4.0914,4.1996,4.1733,4.1245,4.0916,0.0,4.0083,3.9367,3.8847,3.8374,3.7986,3.7556,3.7388,3.7867,3.8377,3.8732,3.8732,3.9089,3.9495,3.9906,4.0041,4.0223,4.0724,3.9789,3.8794,3.824,3.8207,3.8364,3.8757,3.9373,3.9932,4.6455,4.6326,4.5302,4.478,4.4771,4.6159,4.71,4.7723,4.8311,4.8183,4.7475,4.7621,4.6775,4.5098,4.4256,0.0,4.4066,4.4462,4.5376,4.6772,4.6777,4.7349,4.8342,4.8026,4.7977,4.7996,4.7669,4.7561,4.7548,4.7262,4.6858,4.6318,4.4786,4.3953,4.3801,4.4561,4.5459,4.643,4.6641,4.7016,4.7497,4.7497,4.7257,4.68,4.7021,4.6697,4.5782,4.5484,4.5028,4.4372,4.2836,4.1382,4.0049,0.0,0.0,0.0,0.0,0.0,0.0,0.0,0.0,0.0,0.0,0.0,0.0,0.0,0.0,0.0,3.3647,0.0,3.601,3.5568,0.0,0.0,0.0,3.4842,3.5587,3.621,3.686,3.7606,0.0,0.0,4.1562,4.159,4.1769,4.2499,4.2303,4.1795,4.1161,4.0614,4.0002,3.9375,3.9075,3.8838,3.8583,3.8737,3.9077,3.9494,3.971,3.9742,3.9803,3.9895,4.004,4.0449,4.0472,4.0733,4.1594,4.1387,4.0938,4.0075,3.9851,3.9894,4.0315,4.0455,4.0682,4.7701,4.7265,4.721,4.6676,4.5924,4.6272,4.6891,4.7621,4.7838,4.7918,4.7942,4.7755,4.6947,4.5662,4.4811,4.4805,4.5439,4.552,4.6225,4.7358,4.7556,4.7749,4.8026,4.8164,4.8398,4.8732,4.8829,4.8927,4.9087,4.8987,4.8771,4.8391,4.7995,4.6884,4.5212,4.5876,4.6368,4.6609,4.7073,4.7377,4.7497,4.7497,4.7449,4.7305,4.6986,4.6835,4.6802,4.5966,4.5699,4.598,4.4873,4.38,4.2833,4.0199,0.0,0.0,0.0,0.0,0.0,0.0,0.0,0.0,0.0,2.9844,3.1902,0.0,3.3166,0.0,3.5819,3.6701,3.7498,3.7234,0.0,0.0,3.7187,3.7042,3.7821,3.7951,3.8397,3.944,4.0265,4.1011,4.1763,4.2137,4.2403,4.2704,4.1989,4.126,4.085,4.077,4.0474,3.9867,3.9881,3.9904,3.9611,3.9615,3.9771,3.9832,4.0055,4.034,4.0716,4.1038,4.1374,4.1807,4.189,4.1991,4.2171,4.2131,4.2033,4.1778,4.1286,4.0952,4.1365,4.1445,4.1602,4.8044,4.7763,4.7888,4.7589,4.7037,4.7322,4.79,4.8572,4.8627,4.8713,4.8828,4.8685,4.8184,4.7435,4.6806,4.6695,4.6993,4.6852,4.7273,4.8131,4.8315,4.8532,4.8807,4.9,4.9224,4.9463,4.945,4.963,4.9913,4.98,4.9628,4.9456,4.9456,4.8681,4.723,4.7463,4.7536,4.7294,4.7419,4.7497,4.7497,4.7497,4.7497,4.7497,4.734,4.7173,4.6988,4.6325,4.6106,4.6334,4.5422,4.4734,4.4307,4.1941,3.9527,0.0,0.0,0.0,0.0,0.0,0.0,0.0,0.0,0.0,0.0,0.0,3.5313,0.0,3.7465,3.8027,3.8567,3.8676,3.8805,3.9059,3.8781,3.877,3.9188,3.9395,3.9779,4.0486,4.1168,4.1812,4.2327,4.2447,4.2622,4.2916,4.2231,4.1736,4.169,4.162,4.1396,4.1056,4.1145,4.1228,4.1016,4.1016,4.1016,4.1035,4.117,4.1404,4.162,4.1874,4.213,4.2309,4.2388,4.2466,4.2657,4.2715,4.2754,4.2891,4.2637,4.2285,4.2109,4.2226,4.2461,4.8335,4.8335,4.8335,4.8335,4.8378,4.8901,4.9278,4.9564,4.9625,4.9625,4.9625,4.9625,4.9473,4.9193,4.8969,4.8798,4.8539,4.8334,4.8504,4.9049,4.917,4.9446,4.9909,5.006,5.0161,5.0234,4.9967,5.0146,5.0621,5.0272,5.0132,5.0097,4.999,4.9702,4.9242,4.8986,4.8597,4.8048,4.7783,4.7569,4.7497,4.7497,4.7497,4.7497,4.7729,4.7544,4.6824,4.6521,4.6307,4.6109,4.5291,4.4878,4.4918,4.2885,4.0929,0.0,3.6868,0.0,0.0,0.0,0.0,0.0,0.0,0.0,0.0,3.6601,3.7326,3.8246,3.8772,3.919,3.9506,3.9901,4.0115,4.0034,4.0061,4.0116,4.0217,4.0659,4.0996,4.1176,4.1859,4.2479,4.2799,4.2645,4.2685,4.3002,4.2821,4.2665,4.2854,4.2601,4.2289,4.2368,4.2367,4.2207,4.2226,4.2284,4.2324,4.2323,4.2285,4.24,4.2418,4.2438,4.2516,4.2552,4.2608,4.2746,4.3098,4.3236,4.3394,4.3684,4.3745,4.3555,4.2871,4.2969,4.3223,5.0677,5.0677,5.0645,5.0645,5.0627,5.0276,4.9413,4.828,4.8528,4.8651,4.8651,4.8676,4.8466,4.8238,4.863,4.902,4.941,4.9773,5.0079,5.034,5.0373,5.0263,5.0084,5.026,5.0575,5.0955,5.1099,5.1428,5.1935,5.1488,5.127,5.1247,5.0577,5.0103,4.9806,0.0,0.0,0.0,4.8156,4.793,4.7521,4.7497,4.7497,4.7497,4.7298,0.0,4.732,4.6651,4.6254,4.6299,4.5513,0.0,0.0,0.0,0.0,0.0,0.0,0.0,0.0,0.0,0.0,0.0,3.7816,3.7933,3.7929,3.8777,3.9553,3.9953,4.0015,4.0234,4.0706,4.0588,4.0682,4.1095,4.0906,4.105,4.1784,4.1755,4.1739,4.2092,4.2288,4.2406,4.2564,4.2758,4.2992,4.3151,4.3283,4.3461,4.3549,4.2937,4.2404,4.2384,4.248,4.2421,4.2382,4.246,4.2498,4.2382,4.2382,4.2513,4.2787,4.284,4.3004,4.3208,4.3352,4.3333,4.3471,4.3825,4.3933,4.4153,4.4469,4.4512,4.3672,4.3828,4.4141,5.1306,0.0,5.1306,5.1306,0.0,5.0971,5.0368,4.954,4.9146,4.9109,4.9386,4.9721,4.9751,4.959,4.9924,5.02,5.0444,5.0522,5.0506,5.0434,5.0578,5.0444,5.0063,5.0471,5.0831,5.1117,5.144,5.1811,5.2312,5.2128,5.1882,5.1673,5.0844,5.0169,4.9559,4.926,4.8943,4.8642,4.8676,4.8411,4.7906,4.7715,4.7428,4.6965,0.0,0.0,0.0,0.0,0.0,0.0,0.0,0.0,0.0,0.0,0.0,4.0396,3.9167,3.8212,3.7735,3.8115,3.8633,3.9252,4.012,4.0297,3.9512,4.0306,4.1001,4.1388,4.1279,4.1403,4.1859,4.1828,4.1827,4.1929,4.196,4.2108,4.2329,4.2424,4.2519,4.2715,4.293,4.3047,4.3066,4.3437,4.3711,4.375,4.4082,4.4336,4.4277,4.3613,4.3125,4.334,4.3398,4.3353,4.3341,4.3339,4.3195,4.3029,4.2822,4.2743,4.2913,4.2546,4.227,4.2445,4.2346,4.2234,4.2475,4.271,4.3012,4.3461,4.3804,4.3947,4.3699,4.4194,4.4707,5.1574,5.1574,5.1574,5.1574,5.1574,5.1473,5.1373,5.1255,0.0,0.0,0.0,5.1071,5.1306,5.1306,5.1306,5.1406,5.1439,5.111,5.0743,5.0352,5.0492,5.027,4.9863,5.051,5.083,5.0806,5.1383,5.1889,5.2315,5.224,5.2015,5.1539,5.0612,4.9655,4.8731,4.8552,4.8572,4.8695,4.8921,4.8759,4.8232,4.7892,4.7339,4.6485,4.6349,4.5975,4.5371,4.5152,4.5022,4.4815,4.3735,4.3144,4.3221,4.1936,4.108,4.0925,4.0272,3.9851,3.9714,4.0278,4.0705,4.0879,4.1976,4.2129,4.0986,4.1585,4.2202,4.2607,4.246,4.2488,4.2809,4.3025,4.302,4.2665,4.3041,4.3196,4.2931,4.3183,4.3457,4.3498,4.375,4.3945,4.3945,4.4258,4.4512,4.4531,4.4746,4.5039,4.4941,4.4375,4.4062,4.4355,4.4291,4.4275,4.416,4.3857,4.3762,4.3077,4.2703,4.2531,4.2369,4.176,4.121,4.116,4.0729,4.0702,4.1036,4.1248,4.1545,4.2454,4.2715,4.2845,4.326,4.3927,4.4444,5.2644,5.2669,5.2669,5.2644,5.2653,5.2201,5.1724,5.1272,5.1122,5.113,5.1172,5.128,5.1306,5.1297,5.1412,5.1725,5.2128,5.1937,5.1667,0.0,5.0658,4.9929,4.9267,4.9799,5.0049,5.0171,5.1308,5.199,5.1999,5.1693,5.1309,5.0716,4.9235,4.7975,4.7105,4.6962,4.7105,4.7552,4.8349,4.852,4.799,4.762,4.7214,4.6737,4.606,4.5695,4.5531,4.5181,4.4757,4.4241,4.3776,4.316,4.2338,4.1558,4.1123,4.1058,4.0654,4.0545,4.0921,4.1036,4.1515,4.2424,4.3069,4.3163,4.2547,4.2962,4.3285,4.343,4.3387,4.3283,4.312,4.34,4.3594,4.3562,4.3911,4.43,4.447,4.4587,4.4668,4.4648,4.4805,4.4805,4.4766,4.4883,4.4899,4.4899,4.4993,4.5035,4.4993,4.4879,4.4821,4.4837,4.4559,4.4175,4.3647,4.2944,4.2351,4.1782,4.1314,4.0975,4.0948,4.0389,4.0001,3.9994,3.9525,3.9496,3.9875,4.0378,4.0715,4.1298,4.1683,4.1969,4.2085,4.2326,4.283,5.3181,5.2895,5.2895,5.2895,5.287,5.2448,5.227,5.226,5.2088,5.1902,5.1766,5.1908,5.2088,5.231,5.2451,5.2541,5.255,5.2042,5.1242,5.0234,4.9685,4.8848,4.797,4.8391,4.8767,4.9045,4.983,5.0394,5.0588,5.0432,5.002,4.9271,4.7576,4.6429,4.5825,4.5948,4.6117,4.6347,4.7541,4.7806,4.711,4.6945,4.644,4.5564,4.497,4.4597,4.4416,4.4236,4.4005,4.3749,4.3325,4.2894,4.2448,4.1938,4.1657,4.1657,4.1537,4.1659,4.2084,4.2345,4.2836,4.3567,4.4072,4.4358,4.4328,4.406,4.4026,4.4339,4.4382,4.442,4.449,4.4439,4.4386,4.4394,4.4567,4.4805,4.498,4.5039,4.5039,4.5039,4.5039,4.5039,4.5039,4.5234,4.5371,4.5391,4.5331,4.5227,4.4967,4.4687,4.4567,4.453,4.3974,4.3329,4.2777,4.1887,4.1133,4.0599,3.9946,3.952,3.9327,3.8844,3.8318,3.8189,3.7853,3.7761,3.8129,3.8405,3.8863,3.9549,3.9868,4.0095,4.0351,4.0623,4.1429,5.3658,5.3306,5.3281,5.3237,5.3133,5.2864,5.2868,5.3003,5.2637,5.2312,5.2045,5.2435,5.2779,5.3017,5.3006,5.2817,5.2476,5.1668,5.0466,4.9108,4.8548,4.7669,4.6664,4.7002,4.7331,4.7672,4.8129,4.8565,4.8903,4.8943,4.8407,4.7448,4.6034,4.5167,4.4886,4.4997,4.5165,4.5299,4.6382,4.6714,4.6322,4.6138,4.553,4.4619,4.4196,4.3793,4.3484,4.3447,4.3405,4.3278,4.294,4.2707,4.2602,4.2417,4.2319,4.2408,4.253,4.2724,4.3084,4.3577,4.4076,4.4422,4.4862,4.5282,4.5542,4.4998,4.4779,4.51,4.5173,4.526,4.5368,4.5291,4.5176,4.5133,4.5273,4.5332,4.5332,4.527,4.5312,4.527,4.5312,4.5332,4.5371,4.5605,4.5714,4.5512,4.5395,4.5084,4.4485,4.3997,4.3678,4.3192,4.2835,4.2307,4.1626,4.0651,3.9817,3.9275,3.848,3.7989,3.7745,3.7131,3.6622,3.6576,3.622,3.6173,3.6452,3.6637,3.6992,3.7777,3.8007,3.807,3.8489,3.8981,3.9906,5.4471,5.4446,5.4396,5.4234,5.3889,5.3818,5.3414,5.2816,5.2417,5.1969,5.1643,5.2441,5.2743,5.2707,5.2052,5.1811,5.1742,5.0687,4.9631,4.8702,4.7645,4.6647,4.5819,4.584,4.5901,4.6022,4.6709,4.709,4.717,4.713,4.6527,4.5373,4.4761,4.4495,4.4415,4.4097,4.41,4.4502,4.4592,4.5075,4.5928,4.5331,4.4907,4.4752,4.4377,4.3983,4.3642,4.3566,4.3397,4.2965,4.2961,4.2733,4.2458,4.2654,4.3031,4.3408,4.3459,4.3542,4.3655,4.4422,4.4844,4.4944,4.5374,4.5621,4.5721,4.5638,4.5553,4.5614,4.5639,4.5486,4.5144,4.5433,4.5605,4.5644,4.5898,4.6191,4.6133,4.6191,4.6172,4.6191,4.6074,4.6172,4.6094,4.6109,4.5817,4.4989,4.4498,4.3845,4.2953,4.2416,4.1616,4.0888,4.1113,4.1249,4.0232,3.9184,3.8267,3.7408,3.6761,3.6483,3.6359,3.6018,3.5553,3.5661,3.5303,3.521,3.5428,3.5553,3.5786,3.6328,3.6529,3.6559,3.6899,3.7367,3.8485,5.4898,5.4597,5.4597,5.4348,5.3956,5.3274,5.2793,5.2521,5.1879,5.1409,5.1038,5.091,5.1088,5.1432,5.1149,5.0857,5.0387,4.9396,4.833,4.7291,4.6245,4.5373,4.4555,4.4514,4.4637,4.4944,4.5291,4.5535,4.5718,4.5535,4.5128,4.4657,4.4205,4.4,4.3939,4.3782,4.3785,4.397,4.3716,4.4079,4.4906,4.4961,4.4865,4.4925,4.477,4.4616,4.4461,4.4443,4.4339,4.4153,4.4153,4.407,4.3922,4.378,4.379,4.3995,4.4071,4.408,4.4078,4.4635,4.5129,4.5393,4.5579,4.5765,4.6021,4.6044,4.6044,4.6036,4.604,4.5954,4.5781,4.5937,4.6055,4.6074,4.6211,4.6308,4.6308,4.6308,4.6308,4.6308,4.6308,4.6308,4.6221,4.5826,4.5103,4.4174,4.34,4.2398,4.1228,4.0595,3.9702,3.8543,3.8634,3.8726,3.8145,3.7254,3.6576,3.6065,3.5615,3.5303,3.5303,3.521,3.4961,3.5023,3.4835,3.4742,3.4976,3.4976,3.5069,3.5379,3.5558,3.5722,3.605,3.6491,3.7254,5.539,5.5039,5.4942,5.4511,5.3861,5.2888,5.2268,5.1826,5.1078,5.0403,4.9802,4.9079,4.8942,4.9202,4.9646,4.9472,4.8723,4.8009,4.705,4.5941,4.5169,4.4432,4.3733,4.3691,4.3876,4.4164,4.4247,4.437,4.4575,4.437,4.4205,4.4164,4.3876,4.3691,4.3691,4.3691,4.3691,4.3672,4.3521,4.3833,4.4523,4.4922,4.5092,4.5022,4.5041,4.5041,4.5041,4.5041,4.5041,4.4981,4.4884,4.4784,4.4805,4.4513,4.4318,4.432,4.4382,4.4398,4.4342,4.4734,4.5221,4.5672,4.5762,4.5976,4.623,4.6308,4.6308,4.6269,4.6308,4.6269,4.6308,4.6308,4.6308,4.6308,4.6308,4.6308,4.6308,4.6308,4.6308,4.6308,4.6308,4.6177,4.5851,4.5059,4.4023,4.2756,4.1769,4.0685,3.9366,3.8696,3.8007,3.6761,3.6545,3.6529,3.6436,3.6065,3.5413,3.5148,3.4929,3.4803,3.471,3.471,3.4695,3.4835,3.4756,3.471,3.4789,3.4756,3.4815,3.4871,3.5108,3.5449,3.5849,3.6134,3.6353,5.6168,5.6045,5.5679,5.4721,5.3726,5.3189,5.2166,5.0669,4.9875,4.8881,4.7832,4.7272,4.6648,4.6122,4.7229,4.7491,4.701,4.6588,4.5941,4.5087,4.4637,4.4164,4.3733,4.3691,4.3733,4.3793,4.3835,4.3793,4.3835,4.3793,4.3711,4.3733,4.3711,4.3691,4.3691,4.3691,4.3691,4.3733,4.4064,4.4535,4.4944,4.5393,4.5429,4.5107,4.5022,4.5064,4.5043,4.5022,4.5022,4.5022,4.461,4.4352,4.4373,4.438,4.4381,4.4375,4.4392,4.4405,4.4461,4.4769,4.5238,4.5644,4.6035,4.6269,4.6289,4.6308,4.6308,4.6308,4.6308,4.6308,4.6308,4.6308,4.6308,4.6308,4.6308,4.6308,4.6308,4.6308,4.6308,4.6308,4.6265,4.5826,4.5059,4.4067,4.2667,4.112,3.9868,3.8788,3.7547,3.71,3.6529,3.5832,3.546,3.546,3.546,3.5273,3.5054,3.4821,3.4601,3.4569,3.4663,3.471,3.4663,3.4663,3.4601,3.4601,3.4663,3.4768,3.4856,3.5064,3.5313,3.5621,3.5792,3.5997,3.6187,5.5497,5.4979,5.4061,5.3271,5.255,5.1339,5.0176,4.9057,4.8208,4.7312,4.6427,4.5901,4.5373,4.4903,4.5046,4.5332,4.5637,4.527,4.4883,4.4555,4.4164,4.3876,4.3733,4.3691,4.3691,4.3691,4.3691,4.3691,4.3691,4.3691,4.3691,4.3691,4.3691,4.3691,4.3691,4.3691,4.3691,4.3733,4.4164,4.4575,4.5005,4.5454,4.5737,4.5852,4.5831,4.5831,4.581,4.559,4.547,4.547,4.5007,4.4724,4.4745,4.4501,4.4252,4.4021,4.3958,4.419,4.4687,4.4899,4.5332,4.5996,4.6211,4.6308,4.6308,4.6308,4.6308,4.6308,4.6308,4.6308,4.6308,4.6308,4.6308,4.6308,4.6308,4.6308,4.6308,4.6308,4.6308,4.6265,4.6046,4.5368,4.4111,4.3069,4.1634,3.9594,3.8605,3.7547,3.6344,3.5693,3.5273,3.4619,3.4197,3.401,3.401,3.4291,3.4338,3.415,3.3977,3.3789,3.3789,3.3836,3.3836,3.4212,3.4259,3.4461,3.4508,3.4768,3.4885,3.5123,3.5401,3.5621,3.5749,3.5914,3.5958,5.436,5.3535,5.2565,5.1685,5.0837,4.9629,4.8525,4.7509,4.6648,4.5901,4.525,4.4801,4.4432,4.4164,4.3835,4.4,4.4534,4.4288,4.4205,4.4164,4.3876,4.3691,4.3691,4.3691,4.3691,4.3691,4.3691,4.3691,4.3691,4.3691,4.3691,4.3691,4.3691,4.3691,4.3691,4.3691,4.3733,4.3958,4.437,4.4821,4.5209,4.5535,4.582,4.6023,4.5942,4.5942,4.6064,4.5698,4.5454,4.5433,4.5046,4.4759,4.4575,4.4329,4.4041,4.3733,4.3691,4.4082,4.4863,4.5039,4.5391,4.6211,4.6308,4.6308,4.6308,4.6308,4.6308,4.6308,4.6308,4.6308,4.6308,4.6308,4.6308,4.6308,4.6308,4.6201,4.607,4.607,4.5895,4.5544,4.5103,4.4244,4.2953,4.1751,4.0169,3.8145,3.7285,3.6204,3.518,3.4525,3.4103,3.3728,3.3493,3.3351,3.3304,3.3493,3.3681,3.354,3.3493,3.3224,3.3069,3.3116,3.3304,3.3728,3.401,3.4212,3.449,3.4736,3.4976,3.5152,3.5386,3.5621,3.5694,3.5709,3.5738,5.2702,5.1916,5.147,5.0209,4.886,4.8226,4.7411,4.6245,4.5413,4.4842,4.4452,4.3958,4.3815,4.3733,4.3711,4.3752,4.3793,4.3793,4.3774,4.3733,4.3691,4.3691,4.3691,4.3691,4.3691,4.3691,4.3691,4.3691,4.3691,4.3691,4.3691,4.3691,4.3691,4.3691,4.3691,4.3691,4.3917,4.4329,4.4739,4.5168,4.5637,4.5678,4.5678,4.5678,4.5291,4.525,4.5637,4.525,4.5005,4.4964,4.4616,4.4205,4.3876,4.3793,4.3733,4.3711,4.3691,4.4141,4.4883,4.5039,4.5348,4.6133,4.6308,4.6308,4.6308,4.6308,4.6308,4.6308,4.6308,4.6308,4.6308,4.6308,4.6308,4.6308,4.6265,4.6046,4.5739,4.5563,4.5191,4.4333,4.3712,4.2819,4.1454,4.0232,3.8726,3.7131,3.5832,3.4853,3.415,3.3634,3.3271,3.3163,3.3022,3.2847,3.2786,3.2786,3.2927,3.2974,3.2988,3.2894,3.28,3.2786,3.3069,3.3445,3.4071,3.432,3.4522,3.4783,3.49,3.5137,3.5386,3.5474,3.543,3.5416,3.5504,5.0737,5.0137,4.882,4.7829,4.701,4.6325,4.5556,4.4965,4.435,4.4041,4.3917,4.3752,4.3691,4.3691,4.3691,4.3691,4.3691,4.3691,4.3691,4.3691,4.3691,4.3691,4.3691,4.3691,4.3691,4.3691,4.3691,4.3691,4.3691,4.3691,4.3691,4.3691,4.3691,4.3691,4.3691,4.3691,4.3958,4.4411,4.48,4.5086,4.525,4.5535,4.5535,4.5209,4.4841,4.4657,4.478,4.4657,4.4575,4.4575,4.4164,4.3835,4.3733,4.3691,4.3691,4.3691,4.3691,4.4082,4.4863,4.5058,4.5391,4.6094,4.6308,4.6308,4.6308,4.6308,4.6308,4.6308,4.6308,4.6308,4.6308,4.6308,4.6265,4.6308,4.6002,4.5607,4.4927,4.4156,4.34,4.2801,4.2264,4.1318,4.0095,3.8909,3.7669,3.5879,3.4946,3.4338,3.3587,3.2974,3.2658,3.2644,3.2469,3.2327,3.228,3.228,3.2327,3.2421,3.2421,3.2516,3.2421,3.2421,3.2738,3.3351,3.393,3.4367,3.463,3.4768,3.4871,3.4885,3.4973,3.5002,3.5002,3.5061,3.5149,4.9079,4.8428,4.705,4.6144,4.5576,4.4965,4.4514,4.4123,4.3835,4.3691,4.3691,4.3691,4.3691,4.3691,4.3691,4.3691,4.3691,4.3691,4.3691,4.3691,4.3691,4.3691,4.3691,4.3691,4.3691,4.3691,4.3691,4.3691,4.3691,4.3691,4.3691,4.3691,4.3691,4.3691,4.3691,4.3691,4.3917,4.437,4.4616,4.4841,4.5005,4.5127,4.5086,4.4759,4.437,4.4164,4.4164,4.4123,4.4164,4.4123,4.3815,4.3691,4.3691,4.3691,4.3691,4.3691,4.375,4.4082,4.484,4.5039,4.5391,4.6094,4.6308,4.6308,4.6308,4.6308,4.6308,4.6308,4.6308,4.6221,4.609,4.6046,4.5895,4.5544,4.5412,4.4794,4.3774,4.2416,4.1363,4.0731,4.0186,3.9321,3.8313,3.7346,3.6436,3.4759,3.4056,3.3728,3.2974,3.2469,3.228,3.2138,3.1995,3.1853,3.1772,3.1772,3.1772,3.1819,3.1867,3.1962,3.1948,3.1948,3.2185,3.3177,3.393,3.4414,3.4724,3.471,3.4768,3.471,3.471,3.4768,3.4841,3.4812,3.4871,4.7632,4.679,4.5941,4.5148,4.4493,4.437,4.4103,4.3774,4.3691,4.3691,4.3691,4.3691,4.3691,4.3691,4.3691,4.3691,4.3691,4.3691,4.3691,4.3691,4.3691,4.3691,4.3691,4.3691,4.3691,4.3691,4.3691,4.3691,4.3691,4.3691,4.3691,4.3691,4.3691,4.3691,4.3691,4.3691,4.3958,4.4329,4.4411,4.4636,4.4882,4.4657,4.4411,4.437,4.4,4.3733,4.3774,4.3793,4.3752,4.3711,4.3711,4.3691,4.3691,4.3691,4.3691,4.3691,4.3691,4.4141,4.4723,4.4957,4.5371,4.6074,4.6269,4.6308,4.6308,4.6308,4.6245,4.6177,4.6133,4.5958,4.5607,4.528,4.4883,4.42,4.413,4.34,4.1454,4.0277,3.9458,3.8543,3.7807,3.7162,3.6344,3.546,3.4666,3.3869,3.3116,3.2691,3.2374,3.209,3.1819,3.1724,3.1711,3.1711,3.1724,3.1724,3.1724,3.1724,3.1724,3.1724,3.1772,3.1806,3.2043,3.3035,3.3789,3.432,3.471,3.471,3.471,3.471,3.471,3.471,3.471,3.471,3.471,4.6306,4.5454,4.4596,4.4082,4.3876,4.3876,4.3835,4.3691,4.3691,4.3691,4.3691,4.3691,4.3691,4.3691,4.3691,4.3691,4.3691,4.3691,4.3691,4.3691,4.3691,4.3691,4.3691,4.3691,4.3691,4.3691,4.3691,4.3691,4.3691,4.3691,4.3691,4.3691,4.3691,4.3691,4.3691,4.3691,4.3939,4.4329,4.4411,4.4411,4.4493,4.4452,4.4205,4.3917,4.3774,4.3691,4.3691,4.3691,4.3691,4.3691,4.3691,4.3691,4.3691,4.3691,4.3691,4.3691,4.373,4.3945,4.4473,4.4863,4.5293,4.5781,4.6152,4.6308,4.6308,4.6308,4.6114,4.587,4.5519,4.5078,4.4573,4.3845,4.2909,4.1877,4.1922,4.1409,3.9686,3.8605,3.7885,3.6946,3.6297,3.5693,3.5086,3.4478,3.3775,3.3022,3.2563,3.228,3.2043,3.1901,3.1724,3.1724,3.1724,3.1724,3.1724,3.1724,3.1724,3.1724,3.1724,3.1724,3.1853,3.1995,3.2421,3.3163,3.3554,3.4071,3.4461,3.4663,3.471,3.4475,3.4601,3.4554,3.4663,3.4663,3.471,4.5373,4.4678,4.398,4.3691,4.3691,4.3691,4.3691,4.3691,4.3691,4.3691,4.3691,4.3691,4.3691,4.3691,4.3691,4.3691,4.3691,4.3691,4.3691,4.3691,4.3691,4.3691,4.3691,4.3691,4.3691,4.3691,4.3691,4.3691,4.3691,4.3691,4.3691,4.3691,4.3691,4.3691,4.3691,4.3691,4.3815,4.4082,4.4123,4.4123,4.4123,4.4123,4.4,4.3733,4.3691,4.3691,4.3691,4.3691,4.3691,4.3691,4.3691,4.3691,4.3691,4.3691,4.3691,4.3691,4.3691,4.3906,4.4355,4.4785,4.5215,4.5688,4.6055,4.6182,4.6002,4.587,4.55,4.5059,4.4396,4.38,4.3177,4.2057,4.0685,3.9594,3.9246,3.8772,3.7777,3.6946,3.6158,3.5366,3.4806,3.4291,3.3822,3.3493,3.2927,3.2374,3.2138,3.1948,3.1806,3.1724,3.1724,3.1724,3.1724,3.1724,3.1724,3.1724,3.1724,3.1724,3.1724,3.1724,3.1806,3.2043,3.2421,3.288,3.3304,3.3681,3.4024,3.4179,3.3991,3.393,3.4165,3.4367,3.4414,3.4554,3.4616,4.4678,4.4268,4.3876,4.3691,4.3691,4.3691,4.3691,4.3691,4.3691,4.3691,4.3691,4.3691,4.3691,4.3691,4.3691,4.3691,4.3691,4.3691,4.3691,4.3691,4.3691,4.3691,4.3691,4.3691,4.3691,4.3691,4.3691,4.3691,4.3691,4.3691,4.3691,4.3691,4.3691,4.3691,4.3691,4.3691,4.3691,4.3733,4.3774,4.3774,4.3793,4.3793,4.3733,4.3733,4.3691,4.3691,4.3691,4.3691,4.3691,4.3691,4.3691,4.3691,4.3691,4.3691,4.3691,4.3691,4.3711,4.3887,4.4213,4.4538,4.4985,4.5331,4.5691,4.5895,4.5412,4.4927,4.4396,4.3934,4.2998,4.2039,4.1138,3.9777,3.8634,3.7623,3.6715,3.6359,3.6266,3.5413,3.4432,3.3869,3.3445,3.2927,3.2597,3.2313,3.2185,3.2043,3.1853,3.1806,3.1724,3.1724,3.1724,3.1724,3.1724,3.1724,3.1724,3.1724,3.1724,3.1724,3.1724,3.1724,3.1772,3.1948,3.2232,3.2563,3.2927,3.3163,3.3413,3.3413,3.3318,3.3413,3.3742,3.3836,3.3963,3.4259,3.4414,4.4288,4.3835,4.3752,4.3691,4.3691,4.3691,4.3691,4.3691,4.3691,4.3691,4.3691,4.3691,4.3691,4.3691,4.3691,4.3691,4.3691,4.3691,4.3691,4.3691,4.3691,4.3691,4.3691,4.3691,4.3691,4.3691,4.3691,4.3691,4.3691,4.3691,4.3691,4.3691,4.3691,4.3691,4.3691,4.3691,4.3691,4.3691,4.3691,4.3691,4.3691,4.3691,4.3691,4.3691,4.3691,4.3691,4.3691,4.3691,4.3691,4.3691,4.3691,4.3691,4.3691,4.3691,4.3691,4.3691,4.367,4.3604,4.3568,4.396,4.4271,4.4081,4.4366,4.4599,4.4466,4.3623,4.2998,4.2353,4.1228,3.9822,3.8451,3.7731,3.6946,3.6065,3.5366,3.4853,3.4572,3.4276,3.3822,3.3398,3.2894,3.2516,3.2374,3.2043,3.1853,3.1724,3.1724,3.1724,3.1724,3.1724,3.1724,3.1724,3.1724,3.1724,3.1724,3.1724,3.1724,3.1724,3.1724,3.1724,3.1772,3.1819,3.2043,3.2232,3.2469,3.2705,3.2847,3.3035,3.2988,3.313,3.3224,3.3398,3.3587,3.393,3.4118,4.3898,4.3691,4.3691,4.3691,4.3691,4.3691,4.3691,4.3691,4.3691,4.3691,4.3691,4.3691,4.3691,4.3691,4.3691,4.3691,4.3691,4.3691,4.3691,4.3691,4.3691,4.3691,4.3691,4.3691,4.3691,4.3691,4.3691,4.3691,4.3691,4.3691,4.3691,4.3691,4.3691,4.3691,4.3691,4.3691,4.3691,4.3691,4.3691,4.3691,4.3691,4.3691,4.3691,4.3691,4.3691,4.3691,4.3691,4.3691,4.3691,4.3691,4.3691,4.3691,4.3711,4.3691,4.3711,4.3711,4.3504,4.3214,4.3032,4.2928,4.2911,4.2605,4.2821,4.2859,4.2658,4.1904,4.1183,4.0459,3.9321,3.7823,3.639,3.5925,3.546,3.4806,3.4056,3.354,3.3304,3.321,3.3116,3.28,3.2374,3.2138,3.1948,3.1806,3.1758,3.1724,3.1724,3.1724,3.1724,3.1724,3.1724,3.1724,3.1724,3.1724,3.1724,3.1724,3.1724,3.1724,3.1724,3.1724,3.1724,3.1772,3.1806,3.1995,3.2185,3.2138,3.228,3.2469,3.2611,3.2469,3.2563,3.288,3.3163,3.3365,3.3554,4.3691,4.3691,4.3691,4.3691,4.3691,4.3691,4.3691,4.3691,4.3691,4.3691,4.3691,4.3691,4.3691,4.3691,4.3691,4.3691,4.3691,4.3691,4.3691,4.3691,4.3691,4.3691,4.3691,4.3691,4.3691,4.3691,4.3691,4.3691,4.3691,4.3691,4.3691,4.3691,4.3691,4.3691,4.3691,4.3691,4.3691,4.3691,4.3691,4.3691,4.3691,4.3691,4.3691,4.3691,4.3691,4.3691,4.3691,4.3691,4.367,4.3628,4.3628,4.3587,4.3546,4.367,4.3628,4.3587,4.3131,4.2508,4.1956,4.1555,4.1167,4.1014,4.0914,4.0909,4.0586,3.9954,3.9275,3.8513,3.7501,3.6251,3.5273,3.4806,3.4291,3.3681,3.288,3.2455,3.2266,3.2266,3.2327,3.228,3.2043,3.1901,3.1819,3.1724,3.1724,3.1724,3.1724,3.1724,3.1724,3.1724,3.1724,3.1724,3.1724,3.1724,3.1724,3.1724,3.1724,3.1724,3.1724,3.1724,3.1724,3.1724,3.1724,3.1724,3.1819,3.1806,3.1806,3.1995,3.1995,3.1806,3.1995,3.2374,3.2658,3.2786,3.3022,4.3691,4.3691,4.3691,4.3691,4.3691,4.3691,4.3691,4.3691,4.3691,4.3691,4.3691,4.3691,4.3691,4.3691,4.3691,4.3691,4.3691,4.3691,4.3691,4.3691,4.3691,4.3691,4.3691,4.3691,4.3691,4.3691,4.3691,4.3691,4.3691,4.3691,4.3691,4.3691,4.3691,4.3691,4.3691,4.3691,4.3691,4.3691,4.3711,4.3711,4.3769,4.3828,4.3828,4.3848,4.3867,4.3767,4.3709,4.367,4.3546,4.3234,4.3234,4.2943,4.2758,4.3173,4.3297,4.2965,4.2299,4.1528,4.0699,3.9819,3.9227,3.8831,3.8636,3.8526,3.8317,3.7906,3.7437,3.6946,3.6018,3.4853,3.4197,3.3775,3.3257,3.2786,3.2516,3.2232,3.1948,3.1853,3.1901,3.1901,3.1758,3.1724,3.1724,3.1724,3.1724,3.1724,3.1724,3.1724,3.1724,3.1724,3.1724,3.1724,3.1724,3.1724,3.1724,3.1724,3.1724,3.1724,3.1724,3.1724,3.1724,3.1724,3.1724,3.1724,3.1724,3.1724,3.1724,3.1724,3.1724,3.1758,3.1853,3.1948,3.2185,3.2469,3.2644,4.3691,4.3691,4.3691,4.3691,4.3691,4.3691,4.3691,4.3691,4.3691,4.3691,4.3691,4.3691,4.3691,4.3691,4.3691,4.3691,4.3691,4.3691,4.3691,4.3691,4.3691,4.3691,4.3711,4.3711,4.3691,4.3691,4.3691,4.373,4.3691,4.3691,4.3691,4.3691,4.3691,4.3691,4.3691,4.3691,4.3711,4.3711,4.373,4.3848,4.4062,4.4219,4.4375,4.4375,4.4294,4.4152,4.3687,4.3417,4.301,4.2481,4.2132,4.1756,4.157,4.1612,4.1928,4.1779,4.1108,4.0119,3.9058,3.8046,3.733,3.6816,3.6476,3.6384,3.6379,3.6188,3.5774,3.5275,3.4993,3.4103,3.3587,3.3069,3.2691,3.2408,3.2185,3.1948,3.1758,3.1724,3.1724,3.1724,3.1724,3.1724,3.1724,3.1724,3.1724,3.1724,3.1724,3.1724,3.1724,3.1724,3.1724,3.1724,3.1724,3.1724,3.1724,3.1724,3.1724,3.1724,3.1724,3.1724,3.1724,3.1724,3.1724,3.1724,3.1724,3.1724,3.1724,3.1724,3.1724,3.1724,3.1772,3.1853,3.1948,3.209,3.2327,4.3691,4.3691,4.3691,4.3691,4.3691,4.3691,4.3691,4.3691,4.3691,4.3691,4.3691,4.3691,4.3691,4.3691,4.3691,4.3691,4.3691,4.3691,4.3691,4.373,4.3848,4.3867,4.3867,4.3945,4.4043,4.4141,4.4082,4.3867,4.3711,4.3691,4.3691,4.3691,4.3691,4.3789,4.3848,4.3926,4.3867,4.3965,4.3965,4.418,4.4512,4.4824,4.5039,4.4977,4.4892,4.4381,4.3541,4.3037,4.2217,4.1426,4.0874,4.0439,3.9883,3.9653,3.9696,3.9763,3.9373,3.8503,3.7473,3.6194,3.5466,3.5142,3.4661,3.4651,3.4683,3.4681,3.4351,3.3791,3.3487,3.3389,3.3008,3.2563,3.2327,3.2185,3.1948,3.1724,3.1724,3.1724,3.1724,3.1724,3.1724,3.1711,3.1698,3.1724,3.1724,3.1724,3.1724,3.1724,3.1724,3.1724,3.1724,3.1724,3.1724,3.1724,3.1724,3.1724,3.1724,3.1724,3.1724,3.1724,3.1724,3.1724,3.1724,3.1724,3.1724,3.1724,3.1724,3.1724,3.1724,3.1724,3.1724,3.1772,3.1806,3.1853,3.1948,4.3691,4.3691,4.3691,4.3691,4.3691,4.3691,4.3691,4.3691,4.3691,4.3691,4.3769,4.373,4.375,4.3789,4.3789,4.375,4.375,4.3828,4.3867,4.3926,4.416,4.4316,4.4375,4.4726,4.4687,4.4687,4.4746,4.4352,4.4023,4.3848,4.3769,4.3808,4.3887,4.3906,4.4277,4.4297,4.447,4.4785,4.4782,4.484,4.4918,4.4996,4.5074,4.4927,4.4585,4.399,4.3061,4.2315,4.1355,3.9997,3.9711,3.9063,3.8134,3.749,3.6827,3.6654,3.6654,3.6973,3.6134,3.4975,3.4086,3.3885,3.3546,3.3441,3.3452,3.346,3.326,3.2901,3.2566,3.2424,3.2461,3.209,3.1853,3.1806,3.1819,3.1724,3.1711,3.1543,3.1557,3.1577,3.1537,3.1617,3.1657,3.1698,3.1724,3.1724,3.1724,3.1724,3.1724,3.1724,3.1724,3.1724,3.1724,3.1724,3.1724,3.1724,3.1724,3.1724,3.1724,3.1724,3.1724,3.1724,3.1724,3.1724,3.1724,3.1724,3.1724,3.1724,3.1724,3.1724,3.1724,3.1724,3.1724,3.1724,3.1724,4.3691,4.3691,4.3691,4.3691,4.3691,4.3691,4.3691,4.3691,4.3711,4.3848,4.4062,4.4101,4.4219,4.4375,4.4453,4.4473,4.4453,4.4414,4.4453,4.4414,4.4629,4.4746,4.4785,4.4922,4.5019,4.5098,4.5019,4.4863,4.4492,4.4453,4.4411,4.4414,4.4433,4.4509,4.4746,4.4746,4.4801,4.4996,4.5234,4.5371,4.5449,4.5562,4.5569,4.529,4.4532,4.3553,4.2426,4.1055,3.9936,3.8659,3.8062,3.7146,3.6441,3.5947,3.547,3.4947,3.4844,3.4844,3.4553,3.3866,3.3426,3.3043,3.2776,3.2505,3.2468,3.2526,3.2517,3.2315,3.2275,3.219,3.205,3.1806,3.1772,3.1724,3.1724,3.1724,3.1671,3.145,3.137,3.1343,3.1316,3.1383,3.1476,3.157,3.1671,3.1724,3.1724,3.1724,3.1724,3.1724,3.1724,3.1724,3.1724,3.1724,3.1724,3.1724,3.1724,3.1724,3.1724,3.1724,3.1724,3.1724,3.1724,3.1724,3.1724,3.1724,3.1724,3.1724,3.1724,3.1724,3.1724,3.1724,3.1724,3.1724,3.1724,4.3867,4.3867,4.375,4.3769,4.3867,4.3867,4.3965,4.4043,4.4062,4.4238,4.4473,4.457,4.4746,4.4961,4.4961,4.4922,4.5,4.5039,4.5039,4.5039,4.5137,4.5195,4.5254,4.5273,4.541,4.5289,4.5469,4.5391,4.5328,4.527,4.5234,4.5058,4.4902,4.5058,4.5156,4.5195,4.5273,4.5469,4.5703,4.5777,4.5705,4.5745,4.5467,4.4889,4.4011,4.2879,4.1363,4.0014,3.8678,3.7334,3.6505,3.5765,3.5105,3.4782,3.4441,3.4031,3.3856,3.3709,3.3546,3.3206,3.2984,3.2615,3.2244,3.1937,3.1732,3.1889,3.2011,3.1803,3.1873,3.186,3.1792,3.1724,3.1724,3.1724,3.1724,3.1724,3.1671,3.1436,3.1289,3.1249,3.1196,3.1116,3.1236,3.1423,3.1543,3.1698,3.1724,3.1724,3.1724,3.1724,3.1724,3.1724,3.1724,3.1724,3.1724,3.1724,3.1724,3.1724,3.1724,3.1724,3.1724,3.1724,3.1724,3.1724,3.1724,3.1724,3.1724,3.1724,3.1724,3.1724,3.1724,3.1724,3.1724,3.1724,3.1724,4.4355,4.4316,4.3906,4.3984,4.4355,4.4355,4.457,4.4805,4.4821,4.4902,4.498,4.5,4.5078,4.5055,4.5176,4.5156,4.5078,4.5039,4.5137,4.5273,4.541,4.5605,4.5703,4.5898,4.6113,4.6113,4.6016,4.6055,4.6152,4.5976,4.5644,4.5156,4.5254,4.5371,4.5465,4.5539,4.5608,4.574,4.5871,4.5735,4.5404,4.5084,4.4466,4.356,4.2559,4.1283,3.9453,3.8644,3.7646,3.6142,3.5545,3.4999,3.4397,3.4036,3.3709,3.3442,3.3307,3.3184,3.2972,3.2696,3.2229,3.2021,3.185,3.1596,3.1286,3.1428,3.1424,3.1383,3.1544,3.1605,3.1644,3.1724,3.1724,3.1724,3.1724,3.1724,3.1631,3.1383,3.1249,3.1169,3.1102,3.1022,3.1102,3.1316,3.1517,3.1671,3.1724,3.1724,3.1724,3.1724,3.1724,3.1724,3.1724,3.1724,3.1724,3.1724,3.1724,3.1724,3.1724,3.1724,3.1724,3.1724,3.1724,3.1724,3.1724,3.1724,3.1724,3.1724,3.1724,3.1724,3.1724,3.1724,3.1724,3.1724,3.1724,4.4743,4.4723,4.459,4.4629,4.4785,4.4785,4.4883,4.5019,4.5039,4.5195,4.5449,4.5683,4.5801,4.5801,4.582,4.5801,4.582,4.5801,4.5781,4.584,4.5996,4.6055,4.6152,4.6172,4.6289,4.6308,4.6308,4.6308,4.6269,4.6308,4.6191,4.5879,4.5636,4.5879,4.5992,4.5624,4.5497,4.5291,4.5147,4.4883,4.4662,4.3934,4.3221,4.2533,4.0894,3.9868,3.8634,3.7254,3.6313,3.5559,3.492,3.4452,3.4077,3.3751,3.3407,3.3117,3.3086,3.2913,3.2711,3.2467,3.2384,3.1722,3.1605,3.1432,3.1048,3.1166,3.1235,3.1283,3.1396,3.1543,3.1671,3.1724,3.1724,3.1724,3.1724,3.1724,3.157,3.137,3.1249,3.1183,3.1062,3.0942,3.1076,3.1176,3.1436,3.161,3.1698,3.1724,3.1724,3.1724,3.1724,3.1724,3.1724,3.1724,3.1724,3.1724,3.1724,3.1724,3.1724,3.1724,3.1724,3.1724,3.1724,3.1724,3.1724,3.1724,3.1724,3.1724,3.1724,3.1724,3.1724,3.1724,3.1724,3.1724,3.1724,4.5215,4.5234,4.5309,4.5332,4.5234,4.5215,4.5293,4.5348,4.543,4.5547,4.5879,4.6172,4.6308,4.6308,4.6289,4.6269,4.623,4.623,4.6269,4.6269,4.625,4.6308,4.6308,4.6308,4.6308,4.6308,4.6308,4.6308,4.6308,4.6308,4.6119,4.5968,4.5939,4.5788,4.5612,4.5103,4.4573,4.4219,4.38,4.3444,4.3221,4.2353,4.1454,4.0776,3.9275,3.8175,3.73,3.6251,3.56,3.5122,3.4634,3.4195,3.3911,3.3688,3.3314,3.3054,3.2867,3.2711,3.2491,3.2291,3.2189,3.1404,3.1416,3.1226,3.1075,3.1183,3.137,3.1383,3.1557,3.1724,3.1724,3.1724,3.1724,3.1724,3.1724,3.1711,3.157,3.1423,3.1303,3.1162,3.1049,3.0915,3.1156,3.1316,3.1476,3.1637,3.1698,3.1724,3.1724,3.1724,3.1724,3.1724,3.1724,3.1724,3.1724,3.1724,3.1724,3.1724,3.1724,3.1724,3.1724,3.1724,3.1724,3.1724,3.1724,3.1724,3.1724,3.1724,3.1724,3.1724,3.1724,3.1724,3.1724,3.1724,3.1724,4.5707,4.5766,4.6074,4.6016,4.5683,4.5664,4.5903,4.6113,4.6152,4.6191,4.6211,4.6308,4.6308,4.6308,4.6308,4.6308,4.6308,4.6308,4.6308,4.6308,4.6308,4.6308,4.6308,4.6308,4.6308,4.6308,4.6308,4.6308,4.6308,4.6177,4.6002,4.528,4.475,4.4529,4.4706,4.3444,4.2774,4.264,4.2219,4.1724,4.1228,4.0368,3.9503,3.8742,3.7731,3.6715,3.6065,3.5646,3.5101,3.4823,3.44,3.4036,3.37,3.3332,3.3012,3.2766,3.2701,3.2594,3.2393,3.1866,3.1484,3.1174,3.1316,3.1303,3.1276,3.145,3.1597,3.1557,3.1698,3.1724,3.1724,3.1724,3.1724,3.1724,3.1724,3.1698,3.1617,3.1517,3.141,3.1356,3.1102,3.0929,3.1209,3.1436,3.157,3.1711,3.1724,3.1724,3.1724,3.1724,3.1724,3.1724,3.1724,3.1724,3.1724,3.1724,3.1724,3.1724,3.1724,3.1724,3.1724,3.1724,3.1724,3.1724,3.1724,3.1724,3.1724,3.1724,3.1724,3.1724,3.1724,3.1724,3.1724,3.1724,3.1724,4.6094,4.6113,4.625,4.6211,4.6094,4.6094,4.6191,4.6289,4.6308,4.6308,4.6308,4.6308,4.6308,4.6308,4.6308,4.6308,4.6308,4.6308,4.6308,4.6308,4.6308,4.6308,4.6308,4.6308,4.6308,4.6308,4.6308,4.6308,4.6308,4.5958,4.5324,4.4554,4.2801,4.2174,4.2398,4.1859,4.1138,4.0685,4.005,3.9503,3.9291,3.8467,3.7731,3.7378,3.6436,3.5739,3.532,3.5054,3.4789,3.4554,3.4178,3.3837,3.3604,3.3279,3.2883,3.262,3.2492,3.2298,3.2063,3.1719,3.1618,3.1443,3.141,3.149,3.1543,3.1597,3.1711,3.1724,3.1724,3.1724,3.1724,3.1724,3.1724,3.1724,3.1724,3.1724,3.1671,3.1657,3.1557,3.1557,3.141,3.139,3.149,3.153,3.1671,3.1724,3.1724,3.1724,3.1724,3.1724,3.1724,3.1724,3.1724,3.1724,3.1724,3.1724,3.1724,3.1724,3.1724,3.1724,3.1724,3.1724,3.1724,3.1724,3.1724,3.1724,3.1724,3.1724,3.1724,3.1724,3.1724,3.1724,3.1724,3.1724,3.1724,4.6308,4.6308,4.6308,4.6308,4.6308,4.6308,4.6308,4.6308,4.6308,4.6308,4.6308,4.6308,4.6308,4.6308,4.6308,4.6308,4.6308,4.6308,4.6308,4.6308,4.6308,4.6308,4.6308,4.6308,4.6308,4.6308,4.6265,4.6265,4.5958,4.5368,4.4093,4.2291,4.0487,3.9959,3.9913,3.9395,3.9092,3.8634,3.8129,3.7731,3.7454,3.6946,3.6436,3.6173,3.5661,3.5054,3.4867,3.4633,3.4367,3.4179,3.3883,3.354,3.3351,3.3069,3.2644,3.2327,3.2138,3.1995,3.1792,3.1698,3.1691,3.1671,3.1724,3.1724,3.1724,3.1711,3.1711,3.1724,3.1724,3.1724,3.1724,3.1724,3.1724,3.1724,3.1724,3.1724,3.1711,3.1684,3.1684,3.1711,3.1711,3.1711,3.1724,3.1711,3.1711,3.1724,3.1724,3.1724,3.1724,3.1724,3.1724,3.1724,3.1724,3.1724,3.1724,3.1724,3.1724,3.1724,3.1724,3.1724,3.1724,3.1724,3.1724,3.1724,3.1724,3.1724,3.1724,3.1724,3.1724,3.1724,3.1724,3.1724,3.1724,3.1724,3.1724,4.6308,4.6308,4.6308,4.6308,4.6308,4.6308,4.6308,4.6308,4.6308,4.6308,4.6308,4.6308,4.6308,4.6308,4.6308,4.6308,4.6308,4.6308,4.6308,4.6308,4.6308,4.6308,4.6308,4.6308,4.6308,4.6289,4.6158,4.5851,4.5456,4.3826,4.2021,4.0305,3.8772,3.8053,3.7501,3.7224,3.7085,3.6946,3.6622,3.6359,3.6127,3.5786,3.546,3.5226,3.4867,3.4446,3.4165,3.3916,3.3695,3.346,3.3224,3.2894,3.2611,3.2408,3.209,3.1853,3.1772,3.1758,3.1711,3.1724,3.1724,3.1724,3.1724,3.1724,3.1724,3.1724,3.1724,3.1724,3.1724,3.1724,3.1724,3.1724,3.1724,3.1724,3.1724,3.1724,3.1724,3.1711,3.1711,3.1724,3.1724,3.1724,3.1724,3.1724,3.1724,3.1724,3.1724,3.1724,3.1724,3.1724,3.1724,3.1724,3.1724,3.1724,3.1724,3.1724,3.1724,3.1724,3.1724,3.1724,3.1724,3.1724,3.1724,3.1724,3.1724,3.1724,3.1724,3.1724,3.1724,3.1724,3.1724,3.1724,3.1724,3.1724,3.1724,4.6308,4.6308,4.6308,4.6308,4.6308,4.6308,4.6308,4.6308,4.6308,4.6308,4.6308,4.6308,4.6308,4.6308,4.6308,4.6308,4.6308,4.6308,4.6308,4.6308,4.6308,4.6308,4.6308,4.6265,4.6308,4.6133,4.5851,4.5216,4.4004,4.2246,4.0396,3.8818,3.727,3.6344,3.5941,3.5521,3.5708,3.5708,3.5475,3.535,3.521,3.5008,3.4727,3.4432,3.4305,3.3883,3.3507,3.3413,3.3224,3.3177,3.28,3.2516,3.2469,3.209,3.1758,3.1772,3.1724,3.1724,3.1724,3.1724,3.1724,3.1724,3.1724,3.1724,3.1724,3.1724,3.1724,3.1724,3.1724,3.1724,3.1724,3.1724,3.1724,3.1724,3.1724,3.1724,3.1724,3.1724,3.1724,3.1724,3.1724,3.1724,3.1724,3.1724,3.1724,3.1724,3.1724,3.1724,3.1724,3.1724,3.1724,3.1724,3.1724,3.1724,3.1724,3.1724,3.1724,3.1724,3.1724,3.1724,3.1724,3.1724,3.1724,3.1724,3.1724,3.1724,3.1724,3.1724,3.1724,3.1724,3.1724,3.1724,3.1724,3.1724,3.1724,4.6308,4.6308,4.6308,4.6308,4.6308,4.6308,4.6308,4.6308,4.6308,4.6308,4.6308,4.6308,4.6308,4.6308,4.6308,4.6308,4.6308,4.6308,4.6308,4.6308,4.6308,4.6308,4.6308,4.609,4.587,4.5631,4.5015,4.4093,4.2649,4.0487,3.8497,3.7115,3.5739,3.5428,3.5148,3.4976,3.4976,3.5023,3.4929,3.4756,3.4648,3.4508,3.4165,3.3916,3.3775,3.3351,3.2988,3.2894,3.28,3.2658,3.2185,3.2138,3.209,3.1853,3.1711,3.1724,3.1724,3.1724,3.1724,3.1724,3.1724,3.1724,3.1724,3.1724,3.1724,3.1724,3.1724,3.1724,3.1724,3.1724,3.1724,3.1724,3.1724,3.1724,3.1724,3.1724,3.1724,3.1724,3.1724,3.1724,3.1724,3.1724,3.1724,3.1724,3.1724,3.1724,3.1724,3.1724,3.1724,3.1724,3.1724,3.1724,3.1724,3.1724,3.1724,3.1724,3.1724,3.1724,3.1724,3.1724,3.1724,3.1724,3.1724,3.1724,3.1724,3.1724,3.1724,3.1724,3.1724,3.1724,3.1724,3.1724,3.1724,3.1724,3.1724,4.6308,4.6308,4.6308,4.6308,4.6308,4.6308,4.6308,4.6308,4.6308,4.6308,4.6308,4.6308,4.6308,4.6308,4.6308,4.6308,4.6308,4.6308,4.6308,4.6308,4.6308,4.6265,4.6046,4.5783,4.528,4.4617,4.3667,4.2577,4.1165,3.9092,3.693,3.5413,3.5226,3.4961,3.4648,3.4554,3.4601,3.4756,3.4742,3.4648,3.4461,3.4212,3.3869,3.3634,3.3304,3.2894,3.2516,3.228,3.2185,3.1853,3.1711,3.1772,3.1758,3.1711,3.1724,3.1724,3.1724,3.1724,3.1724,3.1724,3.1724,3.1724,3.1724,3.1724,3.1724,3.1724,3.1724,3.1724,3.1724,3.1724,3.1724,3.1724,3.1724,3.1724,3.1724,3.1724,3.1724,3.1724,3.1724,3.1724,3.1724,3.1724,3.1724,3.1724,3.1724,3.1724,3.1724,3.1724,3.1724,3.1724,3.1724,3.1724,3.1724,3.1724,3.1724,3.1724,3.1724,3.1724,3.1724,3.1724,3.1724,3.1724,3.1724,3.1724,3.1724,3.1724,3.1724,3.1724,3.1724,3.1724,3.1724,3.1738,3.1751,3.1791,3.1831,4.6308,4.6308,4.6308,4.6308,4.6308,4.6308,4.6308,4.6308,4.6308,4.6308,4.6308,4.6308,4.6308,4.6308,4.6308,4.6308,4.6308,4.6308,4.6308,4.6308,4.6308,4.6046,4.5739,4.5191,4.4529,4.3578,4.2353,4.0577,3.8755,3.7023,3.5832,3.49,3.4572,3.4197,3.4118,3.4118,3.432,3.4554,3.4601,3.4414,3.4071,3.3916,3.3634,3.3069,3.2563,3.2374,3.2043,3.1901,3.1806,3.1724,3.1724,3.1724,3.1724,3.1724,3.1724,3.1724,3.1724,3.1724,3.1724,3.1724,3.1724,3.1724,3.1724,3.1724,3.1724,3.1724,3.1724,3.1724,3.1724,3.1724,3.1724,3.1724,3.1724,3.1724,3.1724,3.1724,3.1724,3.1724,3.1724,3.1724,3.1724,3.1724,3.1724,3.1724,3.1724,3.1724,3.1724,3.1724,3.1724,3.1724,3.1724,3.1724,3.1724,3.1724,3.1724,3.1724,3.1724,3.1724,3.1724,3.1724,3.1724,3.1724,3.1724,3.1724,3.1724,3.1724,3.1724,3.1724,3.1724,3.1724,3.1738,3.1764,3.1952,3.1984,3.1998,4.6308,4.6308,4.6308,4.6308,4.6308,4.6308,4.6308,4.6308,4.6308,4.6308,4.6308,4.6308,4.6308,4.6308,4.6308,4.6308,4.6308,4.6308,4.6308,4.6308,4.6177,4.5826,4.5343,4.4529,4.3203,4.2066,3.9896,3.7899,3.6235,3.5352,3.4525,3.4103,3.3728,3.3587,3.3634,3.3775,3.401,3.4305,3.4367,3.4071,3.3634,3.3493,3.321,3.2597,3.2185,3.1948,3.1853,3.1724,3.1724,3.1724,3.1724,3.1724,3.1724,3.1724,3.1724,3.1724,3.1724,3.1724,3.1724,3.1724,3.1724,3.1724,3.1724,3.1724,3.1724,3.1724,3.1724,3.1724,3.1724,3.1724,3.1724,3.1724,3.1724,3.1724,3.1724,3.1724,3.1724,3.1724,3.1724,3.1724,3.1724,3.1724,3.1724,3.1724,3.1724,3.1724,3.1724,3.1724,3.1724,3.1724,3.1724,3.1724,3.1724,3.1724,3.1724,3.1724,3.1724,3.1724,3.1724,3.1724,3.1724,3.1724,3.1724,3.1724,3.1724,3.1724,3.1724,3.1724,3.1724,3.1724,3.1751,3.1744,3.1971,3.2238,3.2345,4.6308,4.6308,4.6308,4.6308,4.6308,4.6308,4.6308,4.6308,4.6308,4.6308,4.6308,4.6308,4.6308,4.6308,4.6308,4.6308,4.6308,4.6308,4.6308,4.6265,4.6177,4.5456,4.4529,4.3533,4.1706,3.9561,3.73,3.5724,3.4244,3.3869,3.3681,3.3224,3.3116,3.3116,3.321,3.3445,3.3681,3.3775,3.3789,3.354,3.3304,3.3083,3.2752,3.2327,3.1948,3.1724,3.1724,3.1724,3.1724,3.1724,3.1724,3.1724,3.1724,3.1724,3.1724,3.1724,3.1724,3.1724,3.1724,3.1724,3.1724,3.1724,3.1724,3.1724,3.1724,3.1724,3.1724,3.1724,3.1724,3.1724,3.1724,3.1724,3.1724,3.1724,3.1724,3.1724,3.1724,3.1724,3.1724,3.1724,3.1724,3.1724,3.1724,3.1724,3.1724,3.1724,3.1724,3.1724,3.1724,3.1724,3.1724,3.1724,3.1724,3.1724,3.1724,3.1738,3.1751,3.1724,3.1724,3.1724,3.1724,3.1724,3.1724,3.1724,3.1724,3.1738,3.1724,3.1724,3.1724,3.1738,3.181,3.1917,3.2185,3.2452,3.2719,4.6308,4.6308,4.6308,4.6308,4.6308,4.6308,4.6308,4.6308,4.6308,4.6308,4.6308,4.6308,4.6308,4.6308,4.6308,4.6308,4.6308,4.6308,4.6308,4.6265,4.5807,4.482,4.3426,4.1661,3.9441,3.7192,3.5212,3.415,3.3257,3.321,3.3069,3.2611,3.2563,3.255,3.2597,3.2786,3.2974,3.3163,3.3257,3.3116,3.2738,3.2516,3.228,3.1995,3.1772,3.1724,3.1724,3.1724,3.1724,3.1724,3.1724,3.1724,3.1724,3.1724,3.1724,3.1724,3.1724,3.1724,3.1724,3.1724,3.1724,3.1724,3.1724,3.1724,3.1724,3.1724,3.1724,3.1724,3.1724,3.1724,3.1724,3.1724,3.1724,3.1724,3.1724,3.1724,3.1724,3.1724,3.1724,3.1724,3.1724,3.1724,3.1724,3.1724,3.1724,3.1724,3.1724,3.1724,3.1724,3.1724,3.1724,3.1724,3.1724,3.1724,3.1724,3.1778,3.1791,3.1751,3.1778,3.1885,3.1885,3.1738,3.1738,3.1898,3.1818,3.1764,3.1751,3.1778,3.1764,3.1805,3.1944,3.2131,3.2398,3.2688,3.2929]},{"header":{"parameterUnit":"m.s-1","parameterCategory":1,"la1":31.0,"la2":29.5877,"lo1":-88.7671,"lo2":-86.6584,"dx":0.0162,"dy":0.0185,"nx":115,"ny":88,"refTime":"2022-11-20T18:00:00:Z","depth":0,"parameterNumber":3,"parameterNumberName":"V-component_of_WINDS"},"data":[0.0,0.0,0.0,0.0,0.0,0.0,0.0,0.0,0.0,0.0,0.0,0.0,0.0,0.0,0.0,0.0,0.0,0.0,0.0,0.0,0.0,0.0,0.0,0.0,0.0,0.0,0.0,0.0,0.0,0.0,0.0,0.0,0.0,0.0,0.0,0.0,0.0,0.0,0.0,0.0,0.0,0.0,0.0,0.0,0.0,0.0,0.0,0.0,0.0,0.0,0.0,0.0,0.0,0.0,0.0,0.0,0.0,0.0,0.0,0.0,0.0,0.0,0.0,0.0,0.0,0.0,0.0,0.0,0.0,0.0,0.0,0.0,0.0,0.0,0.0,0.0,0.0,0.0,0.0,0.0,0.0,0.0,0.0,0.0,0.0,0.0,0.0,0.0,0.0,0.0,0.0,0.0,0.0,0.0,0.0,0.0,0.0,0.0,0.0,0.0,0.0,0.0,0.0,0.0,0.0,0.0,0.0,0.0,0.0,0.0,0.0,0.0,0.0,0.0,0.0,0.0,0.0,0.0,0.0,0.0,0.0,0.0,0.0,0.0,0.0,0.0,0.0,0.0,0.0,0.0,0.0,0.0,0.0,0.0,0.0,0.0,0.0,0.0,0.0,0.0,0.0,0.0,0.0,0.0,0.0,0.0,0.0,0.0,0.0,0.0,0.0,0.0,0.0,0.0,0.0,0.0,0.0,0.0,0.0,0.0,0.0,0.0,0.0,0.0,0.0,0.0,0.0,0.0,0.0,0.0,0.0,0.0,0.0,0.0,0.0,0.0,0.0,0.0,0.0,0.0,0.0,0.0,0.0,0.0,0.0,0.0,0.0,0.0,0.0,0.0,0.0,0.0,0.0,0.0,0.0,0.0,0.0,0.0,0.0,0.0,0.0,0.0,0.0,0.0,0.0,0.0,0.0,0.0,0.0,0.0,0.0,0.0,0.0,0.0,0.0,0.0,0.0,0.0,0.0,0.0,0.0,0.0,0.0,0.0,0.0,0.0,0.0,0.0,0.0,0.0,0.0,0.0,0.0,0.0,0.0,0.0,0.0,0.0,0.0,0.0,0.0,0.0,0.0,0.0,0.0,0.0,0.0,0.0,0.0,0.0,0.0,0.0,0.0,0.0,0.0,0.0,0.0,0.0,0.0,0.0,0.0,0.0,0.0,0.0,0.0,0.0,0.0,0.0,0.0,0.0,0.0,0.0,0.0,0.0,0.0,0.0,0.0,0.0,0.0,0.0,0.0,0.0,0.0,0.0,0.0,0.0,0.0,0.0,0.0,0.0,0.0,0.0,0.0,0.0,0.0,0.0,0.0,0.0,0.0,0.0,0.0,0.0,0.0,0.0,0.0,0.0,0.0,0.0,0.0,0.0,0.0,0.0,0.0,0.0,0.0,0.0,0.0,0.0,0.0,0.0,0.0,0.0,0.0,0.0,0.0,0.0,0.0,0.0,0.0,0.0,0.0,0.0,0.0,0.0,0.0,0.0,0.0,0.0,0.0,0.0,0.0,0.0,0.0,0.0,0.0,0.0,0.0,0.0,0.0,0.0,0.0,0.0,0.0,0.0,0.0,0.0,0.0,0.0,0.0,0.0,0.0,0.0,0.0,0.0,0.0,0.0,0.0,0.0,0.0,0.0,0.0,0.0,0.0,0.0,0.0,0.0,0.0,0.0,0.0,0.0,0.0,0.0,0.0,0.0,0.0,0.0,0.0,0.0,0.0,0.0,0.0,0.0,0.0,0.0,0.0,0.0,0.0,0.0,0.0,0.0,0.0,0.0,0.0,0.0,0.0,0.0,0.0,0.0,0.0,0.0,0.0,0.0,0.0,0.0,0.0,0.0,0.0,0.0,0.0,0.0,0.0,0.0,0.0,0.0,0.0,0.0,0.0,0.0,0.0,0.0,0.0,0.0,0.0,0.0,0.0,0.0,0.0,0.0,0.0,0.0,0.0,0.0,0.0,0.0,0.0,0.0,0.0,0.0,0.0,0.0,0.0,0.0,0.0,0.0,0.0,0.0,0.0,0.0,0.0,0.0,0.0,0.0,0.0,0.0,0.0,0.0,0.0,0.0,0.0,0.0,0.0,0.0,0.0,0.0,0.0,0.0,0.0,0.0,0.0,0.0,0.0,0.0,0.0,0.0,0.0,0.0,0.0,0.0,0.0,0.0,0.0,0.0,0.0,0.0,0.0,0.0,0.0,0.0,0.0,0.0,0.0,0.0,0.0,0.0,0.0,0.0,0.0,0.0,0.0,0.0,0.0,0.0,0.0,0.0,0.0,0.0,0.0,0.0,0.0,0.0,0.0,0.0,0.0,0.0,0.0,0.0,0.0,0.0,0.0,0.0,0.0,0.0,0.0,0.0,0.0,0.0,0.0,0.0,0.0,0.0,0.0,0.0,0.0,0.0,0.0,0.0,0.0,0.0,0.0,0.0,0.0,0.0,0.0,0.0,0.0,0.0,0.0,0.0,0.0,0.0,0.0,0.0,0.0,0.0,0.0,0.0,0.0,0.0,0.0,0.0,0.0,0.0,0.0,0.0,0.0,0.0,0.0,0.0,0.0,0.0,0.0,0.0,0.0,0.0,0.0,0.0,0.0,0.0,0.0,0.0,0.0,0.0,0.0,0.0,0.0,0.0,0.0,0.0,0.0,0.0,0.0,0.0,0.0,0.0,0.0,0.0,0.0,0.0,0.0,0.0,0.0,0.0,0.0,0.0,0.0,0.0,0.0,0.0,0.0,0.0,0.0,0.0,0.0,0.0,0.0,0.0,0.0,0.0,0.0,0.0,0.0,0.0,0.0,0.0,0.0,0.0,0.0,0.0,0.0,0.0,0.0,0.0,0.0,0.0,0.0,0.0,0.0,0.0,0.0,0.0,0.0,0.0,0.0,0.0,0.0,0.0,0.0,0.0,0.0,0.0,0.0,0.0,0.0,0.0,0.0,0.0,0.0,0.0,0.0,0.0,0.0,0.0,0.0,0.0,0.0,0.0,0.0,0.0,0.0,0.0,0.0,0.0,0.0,0.0,0.0,0.0,0.0,0.0,0.0,0.0,0.0,0.0,0.0,0.0,0.0,0.0,0.0,0.0,0.0,0.0,0.0,0.0,0.0,0.0,0.0,0.0,0.0,0.0,0.0,0.0,0.0,0.0,0.0,0.0,0.0,0.0,0.0,0.0,0.0,0.0,0.0,0.0,0.0,0.0,0.0,0.0,0.0,0.0,0.0,0.0,0.0,0.0,0.0,0.0,0.0,0.0,0.0,0.0,0.0,0.0,0.0,0.0,0.0,0.0,0.0,0.0,0.0,0.0,0.0,0.0,0.0,0.0,0.0,0.0,0.0,0.0,0.0,0.0,0.0,0.0,0.0,0.0,0.0,0.0,0.0,0.0,0.0,0.0,0.0,0.0,0.0,0.0,0.0,0.0,0.0,0.0,0.0,0.0,0.0,0.0,0.0,0.0,0.0,0.0,0.0,0.0,0.0,0.0,0.0,0.0,0.0,0.0,0.0,0.0,0.0,0.0,0.0,0.0,0.0,0.0,0.0,0.0,0.0,0.0,0.0,0.0,0.0,0.0,0.0,0.0,0.0,0.0,0.0,0.0,0.0,0.0,0.0,0.0,0.0,0.0,0.0,0.0,0.0,0.0,0.0,0.0,0.0,0.0,0.0,0.0,0.0,0.0,0.0,0.0,0.0,0.0,0.0,0.0,0.0,0.0,0.0,0.0,0.0,0.0,0.0,0.0,0.0,0.0,0.0,0.0,0.0,0.0,0.0,0.0,0.0,0.0,0.0,0.0,0.0,0.0,0.0,0.0,0.0,0.0,0.0,0.0,0.0,0.0,0.0,0.0,0.0,0.0,0.0,0.0,0.0,0.0,0.0,0.0,0.0,0.0,0.0,0.0,0.0,0.0,0.0,0.0,0.0,0.0,0.0,0.0,0.0,0.0,0.0,0.0,0.0,0.0,0.0,0.0,0.0,0.0,0.0,0.0,0.0,0.0,0.0,0.0,0.0,0.0,0.0,0.0,0.0,0.0,0.0,0.0,0.0,0.0,0.0,0.0,0.0,0.0,0.0,0.0,0.0,0.0,0.0,0.0,0.0,0.0,0.0,0.0,0.0,0.0,0.0,0.0,0.0,0.0,0.0,0.0,0.0,0.0,0.0,0.0,0.0,0.0,0.0,0.0,0.0,0.0,0.0,0.0,0.0,0.0,0.0,0.0,0.0,0.0,0.0,0.0,0.0,0.0,0.0,0.0,1.7422,0.0,0.0,0.0,1.6584,0.0,0.0,0.0,0.0,0.0,0.0,0.0,0.0,0.0,0.0,0.0,0.0,0.0,0.0,0.0,0.0,0.0,0.0,0.0,0.0,0.0,0.0,0.0,0.0,0.0,0.0,0.0,0.0,0.0,0.0,0.0,0.0,0.0,0.0,0.0,0.0,0.0,0.0,0.0,0.0,0.0,0.0,0.0,0.0,0.0,0.0,0.0,0.0,0.0,0.0,0.0,0.0,0.0,0.0,0.0,0.0,0.0,0.0,0.0,0.0,0.0,0.0,0.0,0.0,0.0,0.0,0.0,0.0,0.0,0.0,0.0,0.0,0.0,0.0,0.0,0.0,0.0,0.0,0.0,0.0,0.0,0.0,0.0,0.0,0.0,0.0,0.0,0.0,0.0,0.0,0.0,0.0,0.0,0.0,0.0,0.0,0.0,0.0,0.0,0.0,0.0,0.0,0.0,0.0,0.0,0.0,0.0,0.0,0.0,0.0,1.7793,1.7741,1.7522,1.742,1.7429,0.0,0.0,0.0,0.0,0.0,0.0,0.0,0.0,0.0,0.0,0.0,0.0,0.0,0.0,0.0,0.0,0.0,0.0,0.0,0.0,0.0,0.0,0.0,0.0,0.0,0.0,0.0,0.0,0.0,0.0,0.0,0.0,0.0,0.0,0.0,0.0,0.0,0.0,0.0,0.0,0.0,0.0,0.0,0.0,0.0,0.0,0.0,0.0,0.0,0.0,0.0,0.0,0.0,0.0,0.0,0.0,0.0,0.0,0.0,0.0,0.0,0.0,0.0,0.0,0.0,0.0,0.0,0.0,0.0,0.0,0.0,0.0,0.0,0.0,0.0,0.0,0.0,0.0,0.0,0.0,0.0,0.0,0.0,0.0,0.0,0.0,0.0,0.0,0.0,0.0,0.0,0.0,0.0,0.0,0.0,0.0,0.0,0.0,0.0,0.0,0.0,0.0,0.0,0.0,0.0,0.0,0.0,0.0,0.0,0.0,0.0,0.0,1.8159,1.808,1.8187,0.0,0.0,0.0,0.0,0.0,0.0,0.0,0.0,0.0,0.0,0.0,0.0,0.0,0.0,0.0,0.0,0.0,0.0,0.0,0.0,0.0,0.0,0.0,0.0,0.0,0.0,0.0,0.0,0.0,0.0,0.0,0.0,0.0,0.0,0.0,0.0,0.0,0.0,0.0,0.0,0.0,0.0,0.0,0.0,0.0,0.0,0.0,0.0,0.0,0.0,0.0,0.0,0.0,0.0,0.0,0.0,0.0,0.0,0.0,0.0,0.0,0.0,0.0,0.0,0.0,0.0,0.0,0.0,0.0,0.0,0.0,0.0,0.0,0.0,0.0,0.0,0.0,0.0,0.0,0.0,0.0,0.0,0.0,0.0,0.0,0.0,0.0,0.0,0.0,0.0,0.0,0.0,0.0,0.0,0.0,0.0,0.0,0.0,0.0,0.0,0.0,0.0,0.0,0.0,0.0,0.0,0.0,0.0,0.0,0.0,1.807,1.8383,1.8211,0.0,1.8428,0.0,0.0,0.0,0.0,0.0,0.0,0.0,0.0,0.0,0.0,0.0,0.0,0.0,0.0,0.0,0.0,0.0,0.0,0.0,0.0,0.0,0.0,0.0,0.0,0.0,0.0,0.0,0.0,0.0,0.0,0.0,0.0,0.0,0.0,0.0,0.0,0.0,0.0,0.0,0.0,0.0,0.0,0.0,0.0,0.0,0.0,0.0,0.0,0.0,0.0,0.0,0.0,0.0,0.0,0.0,0.0,0.0,0.0,0.0,0.0,0.0,0.0,0.0,0.0,0.0,0.0,0.0,0.0,0.0,0.0,0.0,0.0,0.0,0.0,0.0,0.0,0.0,0.0,0.0,0.0,0.0,0.0,0.0,0.0,0.0,0.0,0.0,0.0,0.0,0.0,0.0,0.0,0.0,0.0,0.0,0.0,0.0,0.0,0.0,0.0,0.0,0.0,0.0,0.0,0.0,0.0,0.0,0.0,0.0,0.0,1.8193,1.8518,1.8715,1.8917,0.0,0.0,0.0,0.0,0.0,0.0,0.0,0.0,0.0,0.0,0.0,0.0,0.0,0.0,0.0,0.0,0.0,0.0,0.0,0.0,0.0,0.0,0.0,0.0,0.0,0.0,0.0,0.0,0.0,0.0,0.0,0.0,0.0,0.0,0.0,0.0,0.0,0.0,0.0,0.0,0.0,0.0,0.0,0.0,0.0,0.0,0.0,0.0,0.0,0.0,0.0,0.0,0.0,0.0,0.0,0.0,0.0,0.0,0.0,0.0,0.0,0.0,0.0,0.0,0.0,0.0,0.0,0.0,0.0,0.0,0.0,0.0,0.0,0.0,0.0,0.0,0.0,0.0,0.0,0.0,0.0,0.0,0.0,0.0,0.0,0.0,0.0,0.0,0.0,0.0,0.0,0.0,0.0,0.0,0.0,0.0,0.0,0.0,0.0,0.0,0.0,0.0,0.0,0.0,0.0,0.0,0.0,0.0,0.0,0.0,1.7903,1.8383,1.8792,1.8971,1.9199,1.9512,0.0,0.0,0.0,0.0,0.0,0.0,0.0,0.0,0.0,0.0,0.0,0.0,0.0,0.0,0.0,0.0,0.0,0.0,0.0,0.0,0.0,0.0,0.0,0.0,0.0,0.0,0.0,0.0,0.0,0.0,0.0,0.0,0.0,0.0,0.0,0.0,0.0,0.0,0.0,0.0,0.0,0.0,0.0,0.0,0.0,0.0,0.0,0.0,0.0,0.0,0.0,0.0,0.0,0.0,0.0,0.0,0.0,0.0,0.0,0.0,0.0,0.0,0.0,0.0,0.0,0.0,0.0,0.0,0.0,0.0,0.0,0.0,0.0,0.0,0.0,0.0,0.0,0.0,0.0,0.0,0.0,0.0,0.0,0.0,0.0,0.0,0.0,0.0,0.0,0.0,0.0,0.0,0.0,0.0,0.0,0.0,0.0,0.0,0.0,0.0,0.0,0.0,0.0,0.0,0.0,0.0,0.0,0.0,1.7443,1.807,1.8716,1.9353,1.8781,1.8751,0.0,0.0,0.0,0.0,0.0,0.0,0.0,0.0,0.0,0.0,0.0,0.0,0.0,0.0,0.0,0.0,0.0,0.0,0.0,0.0,0.0,0.0,0.0,0.0,0.0,0.0,0.0,0.0,0.0,0.0,0.0,0.0,0.0,0.0,0.0,0.0,0.0,0.0,0.0,0.0,0.0,0.0,0.0,0.0,0.0,0.0,0.0,0.0,0.0,0.0,0.0,0.0,0.0,0.0,0.0,0.0,0.0,0.0,0.0,0.0,0.0,0.0,0.0,0.0,0.0,0.0,0.0,0.0,0.0,0.0,0.0,0.0,0.0,0.0,0.0,0.0,0.0,0.0,0.0,0.0,0.0,0.0,0.0,0.0,0.0,0.0,0.0,0.0,0.0,0.0,0.0,0.0,0.0,0.0,0.0,0.0,0.0,0.0,0.0,0.0,0.0,0.0,0.0,0.0,0.0,0.0,0.0,0.0,0.0,1.806,1.9329,2.0298,2.0888,2.0338,1.9959,0.0,0.0,0.0,0.0,0.0,0.0,0.0,0.0,0.0,0.0,0.0,0.0,0.0,0.0,0.0,0.0,0.0,0.0,0.0,0.0,0.0,0.0,0.0,0.0,0.0,0.0,0.0,0.0,0.0,0.0,0.0,0.0,0.0,0.0,0.0,0.0,0.0,0.0,0.0,0.0,0.0,0.0,0.0,0.0,0.0,0.0,0.0,0.0,0.0,0.0,0.0,0.0,0.0,0.0,0.0,0.0,0.0,0.0,0.0,0.0,0.0,0.0,0.0,0.0,0.0,0.0,0.0,0.0,0.0,0.0,0.0,0.0,0.0,0.0,0.0,0.0,0.0,0.0,0.0,0.0,0.0,0.0,0.0,0.0,0.0,0.0,0.0,0.0,0.0,0.0,0.0,0.0,0.0,0.0,0.0,0.0,0.0,0.0,0.0,0.0,0.0,0.0,0.0,0.0,0.0,0.0,0.0,0.0,0.0,1.946,2.1056,2.2217,2.28,2.2117,2.1364,0.0,0.0,0.0,0.0,0.0,0.0,0.0,0.0,0.0,0.0,0.0,0.0,0.0,0.0,0.0,0.0,0.0,0.0,0.0,0.0,0.0,0.0,0.0,0.0,0.0,0.0,0.0,0.0,0.0,0.0,0.0,0.0,0.0,0.0,0.0,0.0,0.0,0.0,0.0,0.0,0.0,0.0,0.0,0.0,0.0,0.0,0.0,0.0,0.0,0.0,0.0,0.0,0.0,0.0,0.0,0.0,0.0,0.0,0.0,0.0,0.0,0.0,0.0,0.0,0.0,0.0,0.0,0.0,0.0,0.0,0.0,0.0,0.0,0.0,0.0,0.0,0.0,0.0,0.0,0.0,0.0,0.0,0.0,0.0,0.0,0.0,0.0,0.0,0.0,0.0,0.0,0.0,0.0,0.0,0.0,0.0,0.0,0.0,0.0,0.0,0.0,0.0,0.0,0.0,0.0,0.0,0.0,0.0,1.9187,2.1675,2.33,2.4519,2.5107,2.4083,2.2899,0.0,0.0,0.0,0.0,0.0,0.0,0.0,0.0,0.0,0.0,0.0,0.0,0.0,0.0,0.0,0.0,0.0,0.0,0.0,0.0,0.0,0.0,0.0,0.0,0.0,0.0,0.0,0.0,0.0,0.0,0.0,0.0,0.0,0.0,0.0,0.0,0.0,0.0,0.0,0.0,0.0,0.0,0.0,0.0,0.0,0.0,0.0,0.0,0.0,0.0,0.0,0.0,0.0,0.0,0.0,0.0,0.0,0.0,0.0,0.0,0.0,0.0,0.0,0.0,0.0,0.0,0.0,0.0,0.0,0.0,0.0,0.0,0.0,0.0,0.0,0.0,0.0,0.0,0.0,0.0,0.0,0.0,0.0,0.0,0.0,0.0,0.0,0.0,0.0,0.0,0.0,0.0,0.0,0.0,0.0,0.0,0.0,0.0,0.0,0.0,0.0,0.0,0.0,0.0,0.0,0.0,0.0,0.0,0.0,2.5135,2.7248,2.88,2.9693,2.8127,2.6329,0.0,0.0,0.0,0.0,0.0,0.0,0.0,0.0,0.0,0.0,0.0,0.0,0.0,0.0,0.0,0.0,0.0,0.0,0.0,0.0,0.0,0.0,0.0,0.0,0.0,0.0,0.0,0.0,0.0,0.0,0.0,0.0,0.0,0.0,0.0,0.0,0.0,0.0,0.0,0.0,0.0,0.0,0.0,0.0,0.0,0.0,0.0,0.0,0.0,0.0,0.0,0.0,0.0,0.0,0.0,0.0,0.0,0.0,0.0,0.0,0.0,0.0,0.0,0.0,0.0,0.0,0.0,0.0,0.0,0.0,0.0,0.0,0.0,0.0,0.0,0.0,0.0,0.0,0.0,0.0,0.0,0.0,0.0,0.0,0.0,0.0,0.0,0.0,0.0,0.0,0.0,0.0,0.0,0.0,0.0,0.0,0.0,0.0,0.0,0.0,0.0,0.0,0.0,0.0,0.0,0.0,0.0,0.0,0.0,2.9859,3.1426,3.2749,3.3851,3.2034,2.9644,2.6774,0.0,0.0,0.0,0.0,0.0,0.0,0.0,0.0,0.0,0.0,0.0,0.0,0.0,0.0,0.0,0.0,0.0,0.0,0.0,0.0,0.0,0.0,0.0,0.0,0.0,0.0,0.0,0.0,0.0,0.0,0.0,0.0,0.0,0.0,0.0,0.0,0.0,0.0,0.0,0.0,0.0,0.0,0.0,0.0,0.0,0.0,0.0,0.0,0.0,0.0,0.0,0.0,0.0,0.0,0.0,0.0,0.0,0.0,0.0,0.0,0.0,0.0,0.0,0.0,0.0,0.0,0.0,0.0,0.0,0.0,0.0,0.0,0.0,0.0,0.0,0.0,0.0,0.0,0.0,0.0,0.0,0.0,0.0,0.0,0.0,0.0,0.0,0.0,0.0,0.0,0.0,0.0,0.0,0.0,0.0,0.0,0.0,0.0,0.0,0.0,0.0,0.0,0.0,0.0,0.0,0.0,0.0,0.0,3.5429,3.5843,3.6502,3.741,3.5701,3.2841,0.0,0.0,0.0,0.0,0.0,0.0,0.0,0.0,0.0,0.0,0.0,0.0,0.0,0.0,0.0,0.0,0.0,0.0,0.0,0.0,0.0,0.0,0.0,0.0,0.0,0.0,0.0,0.0,0.0,0.0,0.0,0.0,0.0,0.0,0.0,0.0,0.0,0.0,0.0,0.0,0.0,0.0,0.0,0.0,0.0,0.0,0.0,0.0,0.0,0.0,0.0,0.0,0.0,0.0,0.0,0.0,0.0,0.0,0.0,0.0,0.0,0.0,0.0,0.0,0.0,0.0,0.0,0.0,0.0,0.0,0.0,0.0,0.0,0.0,0.0,0.0,0.0,0.0,0.0,0.0,0.0,0.0,0.0,0.0,0.0,0.0,0.0,0.0,0.0,0.0,0.0,0.0,0.0,0.0,0.0,0.0,0.0,0.0,0.0,0.0,0.0,0.0,0.0,0.0,0.0,0.0,0.0,0.0,0.0,3.7575,4.0724,4.1945,4.1081,3.9518,3.6517,0.0,0.0,0.0,0.0,0.0,0.0,0.0,0.0,0.0,0.0,0.0,0.0,0.0,0.0,0.0,0.0,0.0,0.0,0.0,0.0,0.0,0.0,0.0,0.0,0.0,0.0,0.0,0.0,0.0,0.0,0.0,0.0,0.0,0.0,0.0,0.0,0.0,0.0,0.0,0.0,0.0,0.0,0.0,0.0,0.0,0.0,0.0,0.0,0.0,0.0,0.0,0.0,0.0,0.0,0.0,0.0,0.0,0.0,0.0,0.0,0.0,0.0,0.0,0.0,0.0,0.0,0.0,0.0,0.0,0.0,0.0,0.0,0.0,0.0,0.0,0.0,0.0,0.0,0.0,0.0,0.0,0.0,0.0,0.0,0.0,0.0,0.0,0.0,0.0,0.0,0.0,0.0,0.0,0.0,0.0,0.0,0.0,0.0,0.0,0.0,0.0,0.0,0.0,0.0,0.0,0.0,0.0,0.0,3.6015,3.9507,4.3563,4.5122,4.4046,4.2127,3.8754,0.0,0.0,0.0,0.0,0.0,0.0,0.0,0.0,0.0,0.0,0.0,0.0,0.0,0.0,0.0,0.0,0.0,0.0,0.0,0.0,0.0,0.0,0.0,0.0,0.0,0.0,0.0,0.0,0.0,0.0,0.0,0.0,0.0,0.0,0.0,0.0,0.0,0.0,0.0,0.0,0.0,0.0,0.0,0.0,0.0,0.0,0.0,0.0,0.0,0.0,0.0,0.0,0.0,0.0,0.0,0.0,0.0,0.0,0.0,0.0,0.0,0.0,0.0,0.0,0.0,0.0,0.0,0.0,0.0,0.0,0.0,0.0,0.0,0.0,0.0,0.0,0.0,0.0,0.0,0.0,0.0,0.0,0.0,0.0,0.0,0.0,0.0,0.0,0.0,0.0,0.0,0.0,0.0,0.0,0.0,0.0,0.0,0.0,0.0,0.0,0.0,0.0,0.0,0.0,0.0,0.0,0.0,0.0,3.7908,4.1139,4.503,4.6861,4.6351,4.3922,4.0055,0.0,0.0,0.0,0.0,0.0,0.0,0.0,0.0,0.0,0.0,0.0,0.0,0.0,0.0,0.0,0.0,0.0,0.0,0.0,0.0,0.0,0.0,0.0,0.0,0.0,0.0,0.0,0.0,0.0,0.0,0.0,0.0,0.0,0.0,0.0,0.0,0.0,0.0,0.0,0.0,0.0,0.0,0.0,0.0,0.0,0.0,0.0,0.0,0.0,0.0,0.0,0.0,0.0,0.0,0.0,0.0,0.0,0.0,0.0,0.0,0.0,0.0,0.0,0.0,0.0,0.0,0.0,0.0,0.0,0.0,0.0,0.0,0.0,0.0,0.0,0.0,0.0,0.0,0.0,0.0,0.0,0.0,0.0,0.0,0.0,0.0,0.0,0.0,0.0,0.0,0.0,0.0,0.0,0.0,0.0,0.0,0.0,0.0,0.0,0.0,0.0,0.0,0.0,0.0,0.0,0.0,0.0,0.0,3.9235,4.2287,4.6193,4.8034,4.7609,4.5264,4.159,0.0,0.0,0.0,0.0,0.0,0.0,0.0,0.0,0.0,0.0,0.0,0.0,0.0,0.0,0.0,0.0,0.0,0.0,0.0,0.0,0.0,0.0,0.0,0.0,0.0,0.0,0.0,0.0,0.0,0.0,0.0,0.0,0.0,0.0,0.0,0.0,0.0,0.0,0.0,0.0,0.0,0.0,0.0,0.0,0.0,0.0,0.0,0.0,2.6458,0.0,0.0,0.0,0.0,0.0,0.0,0.0,0.0,0.0,0.0,0.0,0.0,0.0,0.0,0.0,0.0,0.0,0.0,0.0,0.0,0.0,0.0,0.0,0.0,0.0,0.0,0.0,0.0,0.0,0.0,0.0,0.0,0.0,0.0,0.0,0.0,0.0,0.0,0.0,0.0,0.0,0.0,0.0,0.0,0.0,0.0,0.0,0.0,0.0,0.0,0.0,0.0,0.0,0.0,0.0,0.0,0.0,0.0,0.0,4.0756,4.3663,4.7173,4.8809,4.8352,4.6563,4.3077,0.0,0.0,0.0,0.0,0.0,0.0,0.0,0.0,0.0,0.0,0.0,0.0,0.0,0.0,0.0,0.0,0.0,0.0,0.0,0.0,0.0,0.0,0.0,0.0,0.0,0.0,0.0,0.0,0.0,0.0,0.0,0.0,0.0,0.0,0.0,0.0,0.0,0.0,0.0,0.0,0.0,0.0,0.0,0.0,0.0,0.0,0.0,0.0,0.0,0.0,0.0,0.0,0.0,0.0,0.0,0.0,0.0,0.0,0.0,0.0,0.0,0.0,0.0,0.0,0.0,0.0,0.0,0.0,0.0,0.0,0.0,0.0,0.0,0.0,0.0,0.0,0.0,0.0,0.0,0.0,0.0,0.0,0.0,0.0,0.0,0.0,0.0,0.0,0.0,0.0,0.0,0.0,0.0,0.0,0.0,0.0,0.0,0.0,0.0,0.0,0.0,0.0,0.0,0.0,0.0,0.0,0.0,3.7991,4.2221,4.5137,4.8108,4.9474,4.9143,4.7817,4.4551,3.9178,0.0,0.0,0.0,0.0,0.0,0.0,0.0,0.0,0.0,0.0,0.0,0.0,0.0,0.0,0.0,0.0,0.0,0.0,0.0,0.0,0.0,0.0,0.0,0.0,0.0,0.0,0.0,0.0,0.0,0.0,0.0,0.0,0.0,0.0,0.0,0.0,0.0,0.0,2.332,2.5644,0.0,0.0,0.0,0.0,0.0,0.0,0.0,0.0,2.8195,0.0,0.0,0.0,0.0,0.0,0.0,0.0,0.0,0.0,0.0,0.0,0.0,0.0,0.0,0.0,0.0,0.0,0.0,0.0,0.0,0.0,0.0,0.0,0.0,0.0,0.0,0.0,0.0,0.0,0.0,0.0,0.0,0.0,0.0,0.0,0.0,0.0,0.0,0.0,0.0,0.0,0.0,0.0,0.0,0.0,0.0,0.0,0.0,0.0,0.0,0.0,0.0,0.0,0.0,0.0,0.0,3.4494,3.9246,4.3402,4.6906,4.9137,5.038,5.0646,4.9015,4.5864,4.1254,0.0,0.0,0.0,0.0,0.0,0.0,0.0,0.0,0.0,0.0,0.0,0.0,0.0,0.0,0.0,0.0,0.0,0.0,0.0,0.0,0.0,0.0,0.0,0.0,0.0,0.0,0.0,0.0,0.0,0.0,0.0,0.0,0.0,0.0,0.0,0.0,0.0,0.0,0.0,2.8354,2.9476,0.0,0.0,0.0,0.0,0.0,0.0,0.0,0.0,2.9549,0.0,0.0,0.0,0.0,0.0,0.0,0.0,0.0,0.0,0.0,0.0,0.0,0.0,0.0,0.0,0.0,0.0,0.0,0.0,0.0,0.0,0.0,0.0,0.0,0.0,0.0,0.0,0.0,0.0,0.0,0.0,0.0,0.0,0.0,0.0,0.0,0.0,0.0,0.0,0.0,0.0,0.0,0.0,0.0,0.0,0.0,0.0,0.0,0.0,0.0,0.0,0.0,0.0,0.0,0.0,3.6444,4.0924,4.4835,4.8186,5.0271,5.1329,5.1279,4.9757,4.6663,0.0,0.0,0.0,0.0,0.0,0.0,0.0,0.0,0.0,0.0,0.0,0.0,0.0,0.0,0.0,0.0,0.0,0.0,0.0,0.0,0.0,0.0,0.0,0.0,0.0,0.0,0.0,0.0,0.0,0.0,0.0,0.0,0.0,0.0,0.0,0.0,0.0,0.0,0.0,0.0,2.9753,3.0631,3.1334,0.0,0.0,0.0,0.0,0.0,0.0,3.0807,3.0484,0.0,0.0,0.0,0.0,0.0,0.0,0.0,0.0,0.0,0.0,0.0,0.0,0.0,0.0,0.0,0.0,0.0,0.0,0.0,0.0,0.0,0.0,0.0,0.0,0.0,0.0,0.0,0.0,0.0,0.0,0.0,0.0,0.0,0.0,0.0,0.0,0.0,0.0,0.0,0.0,0.0,0.0,0.0,0.0,0.0,0.0,0.0,0.0,0.0,0.0,0.0,0.0,0.0,0.0,0.0,3.864,4.2908,4.6598,4.9639,5.1532,5.2208,5.1686,5.0275,4.709,0.0,0.0,0.0,0.0,0.0,0.0,0.0,0.0,0.0,0.0,0.0,0.0,0.0,0.0,0.0,0.0,0.0,0.0,0.0,0.0,0.0,0.0,0.0,0.0,0.0,0.0,0.0,0.0,0.0,0.0,0.0,0.0,0.0,0.0,0.0,0.0,0.0,0.0,0.0,0.0,0.0,3.1878,3.3128,3.292,0.0,0.0,0.0,0.0,3.2546,3.2145,0.0,0.0,0.0,0.0,0.0,0.0,0.0,0.0,0.0,0.0,0.0,0.0,0.0,0.0,0.0,0.0,0.0,0.0,0.0,0.0,0.0,0.0,0.0,0.0,0.0,0.0,0.0,0.0,0.0,0.0,0.0,0.0,0.0,0.0,0.0,0.0,0.0,0.0,0.0,0.0,0.0,0.0,0.0,0.0,0.0,0.0,0.0,0.0,0.0,0.0,0.0,0.0,0.0,0.0,0.0,0.0,4.1274,4.5336,4.8833,5.1723,5.2832,5.3017,5.2292,5.0491,4.709,0.0,0.0,0.0,0.0,0.0,0.0,0.0,0.0,0.0,0.0,0.0,0.0,0.0,0.0,0.0,0.0,0.0,0.0,0.0,0.0,0.0,0.0,0.0,0.0,0.0,0.0,0.0,0.0,0.0,0.0,0.0,0.0,0.0,0.0,0.0,0.0,0.0,0.0,0.0,0.0,0.0,3.3938,3.4793,3.5224,3.5175,0.0,0.0,3.5025,3.5212,3.4819,0.0,0.0,0.0,0.0,0.0,0.0,0.0,0.0,0.0,0.0,0.0,0.0,0.0,0.0,0.0,0.0,0.0,0.0,0.0,0.0,0.0,0.0,0.0,0.0,0.0,0.0,0.0,0.0,0.0,0.0,0.0,0.0,0.0,0.0,0.0,0.0,0.0,0.0,0.0,0.0,0.0,0.0,0.0,0.0,0.0,0.0,0.0,0.0,0.0,0.0,0.0,0.0,0.0,0.0,0.0,3.7499,4.2854,4.7172,5.0503,5.2886,5.3952,5.3917,5.2669,5.0637,4.728,0.0,0.0,0.0,0.0,0.0,0.0,0.0,0.0,0.0,0.0,0.0,0.0,0.0,0.0,0.0,0.0,0.0,0.0,0.0,0.0,0.0,0.0,0.0,0.0,0.0,0.0,0.0,0.0,0.0,0.0,0.0,0.0,0.0,0.0,0.0,0.0,0.0,0.0,0.0,0.0,0.0,0.0,3.6529,3.7304,0.0,0.0,0.0,3.7517,3.7819,0.0,0.0,0.0,0.0,0.0,0.0,0.0,0.0,0.0,0.0,0.0,0.0,0.0,0.0,0.0,0.0,0.0,0.0,0.0,0.0,0.0,0.0,0.0,0.0,0.0,0.0,0.0,0.0,0.0,0.0,0.0,0.0,0.0,0.0,0.0,0.0,0.0,0.0,0.0,0.0,0.0,0.0,0.0,0.0,0.0,0.0,0.0,0.0,0.0,0.0,0.0,0.0,0.0,0.0,0.0,0.0,0.0,4.4238,4.8792,5.209,5.4016,5.5014,5.4849,5.3417,5.1083,0.0,0.0,0.0,0.0,0.0,0.0,0.0,0.0,0.0,0.0,0.0,0.0,0.0,0.0,0.0,0.0,0.0,0.0,0.0,0.0,0.0,0.0,0.0,0.0,0.0,0.0,0.0,0.0,0.0,0.0,0.0,0.0,0.0,0.0,0.0,0.0,0.0,0.0,0.0,0.0,0.0,0.0,3.6288,3.8458,3.9409,3.9884,0.0,0.0,3.9958,4.0187,3.9289,3.8405,0.0,0.0,0.0,0.0,0.0,0.0,0.0,0.0,0.0,0.0,0.0,0.0,0.0,0.0,0.0,0.0,0.0,0.0,0.0,0.0,0.0,0.0,0.0,0.0,0.0,0.0,0.0,0.0,0.0,0.0,0.0,0.0,0.0,0.0,0.0,0.0,0.0,0.0,0.0,0.0,0.0,0.0,0.0,0.0,0.0,0.0,0.0,0.0,0.0,0.0,0.0,0.0,0.0,0.0,0.0,4.552,5.0363,5.3712,5.5471,5.5931,5.5782,5.5004,5.2107,4.8613,0.0,0.0,0.0,0.0,0.0,0.0,0.0,0.0,0.0,0.0,0.0,0.0,0.0,0.0,0.0,0.0,0.0,0.0,0.0,0.0,0.0,0.0,0.0,0.0,0.0,0.0,0.0,0.0,0.0,0.0,0.0,0.0,0.0,0.0,0.0,0.0,0.0,0.0,0.0,0.0,0.0,3.7855,4.076,4.1571,4.2109,0.0,0.0,4.2475,4.2233,4.1772,4.1007,3.9812,0.0,0.0,0.0,0.0,0.0,0.0,0.0,0.0,0.0,0.0,0.0,0.0,0.0,0.0,0.0,0.0,0.0,0.0,0.0,0.0,0.0,0.0,0.0,0.0,0.0,0.0,0.0,0.0,0.0,0.0,0.0,0.0,0.0,0.0,0.0,0.0,0.0,0.0,0.0,0.0,0.0,0.0,0.0,0.0,0.0,0.0,0.0,0.0,0.0,0.0,0.0,0.0,0.0,4.2042,4.6922,5.1675,5.4726,5.5952,5.65,5.6282,5.5209,5.2468,4.9307,0.0,0.0,0.0,0.0,0.0,0.0,0.0,0.0,0.0,0.0,0.0,0.0,0.0,0.0,0.0,0.0,0.0,0.0,0.0,0.0,0.0,0.0,0.0,0.0,0.0,0.0,0.0,0.0,2.5997,2.6926,2.7637,0.0,0.0,0.0,0.0,0.0,0.0,0.0,0.0,0.0,0.0,3.9921,4.2644,4.3628,0.0,0.0,4.4393,4.4286,4.4046,4.3585,4.2805,4.1531,4.0428,0.0,0.0,0.0,0.0,0.0,0.0,0.0,0.0,0.0,0.0,0.0,0.0,0.0,0.0,0.0,0.0,0.0,0.0,0.0,0.0,0.0,0.0,0.0,0.0,0.0,0.0,0.0,0.0,0.0,0.0,0.0,0.0,0.0,0.0,0.0,0.0,0.0,0.0,0.0,0.0,0.0,0.0,0.0,0.0,0.0,0.0,0.0,0.0,0.0,0.0,0.0,0.0,4.2963,4.7748,5.2475,5.5419,5.6462,5.6881,5.6645,5.5748,5.3174,5.0428,0.0,0.0,0.0,0.0,0.0,0.0,0.0,0.0,0.0,0.0,0.0,0.0,0.0,0.0,0.0,0.0,0.0,0.0,0.0,0.0,0.0,0.0,0.0,0.0,0.0,0.0,0.0,0.0,2.7636,2.8188,2.8028,0.0,0.0,0.0,0.0,0.0,0.0,0.0,0.0,0.0,0.0,4.2227,4.462,4.552,4.5984,4.6248,4.6128,4.5874,4.5534,4.5281,4.4637,4.3319,0.0,0.0,0.0,0.0,0.0,0.0,0.0,0.0,0.0,0.0,0.0,0.0,0.0,0.0,0.0,0.0,0.0,0.0,0.0,0.0,0.0,0.0,0.0,0.0,0.0,0.0,0.0,0.0,0.0,0.0,2.4218,0.0,0.0,0.0,0.0,0.0,0.0,0.0,0.0,0.0,0.0,0.0,0.0,0.0,0.0,0.0,0.0,0.0,0.0,0.0,0.0,0.0,0.0,4.3888,4.8001,5.2778,5.5807,5.7034,5.7094,5.7094,5.6974,5.4546,5.2187,5.0046,0.0,0.0,0.0,0.0,0.0,0.0,0.0,0.0,0.0,0.0,0.0,0.0,0.0,0.0,0.0,0.0,0.0,0.0,0.0,0.0,0.0,0.0,0.0,0.0,0.0,0.0,2.8637,2.9203,2.9305,0.0,0.0,0.0,0.0,0.0,0.0,0.0,0.0,0.0,0.0,4.2743,4.4789,4.6929,4.7249,4.7597,4.8364,4.7964,4.7322,4.6719,4.6877,4.6654,0.0,0.0,0.0,0.0,0.0,0.0,0.0,0.0,0.0,0.0,0.0,0.0,0.0,0.0,0.0,0.0,0.0,0.0,0.0,0.0,0.0,0.0,0.0,0.0,0.0,0.0,0.0,2.6788,2.6912,0.0,0.0,0.0,0.0,0.0,0.0,0.0,0.0,0.0,0.0,0.0,3.6621,3.807,0.0,0.0,0.0,0.0,0.0,0.0,0.0,0.0,0.0,0.0,0.0,0.0,4.5611,5.0037,5.3898,5.6496,5.7723,5.7782,5.7543,5.7094,5.5418,5.2755,4.9045,0.0,0.0,0.0,0.0,0.0,0.0,0.0,0.0,0.0,0.0,0.0,0.0,0.0,0.0,0.0,0.0,0.0,0.0,0.0,0.0,0.0,0.0,0.0,0.0,0.0,3.0568,0.0,0.0,0.0,0.0,0.0,0.0,0.0,0.0,0.0,0.0,0.0,4.0085,4.3499,4.5027,4.6635,4.881,4.9213,4.9404,0.0,0.0,0.0,0.0,0.0,0.0,0.0,0.0,0.0,0.0,0.0,0.0,0.0,0.0,4.2212,3.8981,3.8329,3.8312,3.8463,0.0,0.0,0.0,0.0,0.0,0.0,0.0,0.0,0.0,0.0,0.0,0.0,0.0,0.0,0.0,0.0,2.9562,0.0,0.0,0.0,0.0,0.0,0.0,0.0,0.0,3.8012,3.9972,4.1446,4.2829,4.3459,0.0,4.3759,4.1975,0.0,0.0,0.0,0.0,0.0,0.0,0.0,0.0,4.7355,5.1616,5.486,5.7106,5.8343,5.8403,5.8192,5.7737,5.6191,5.359,4.9922,4.7143,4.4047,0.0,0.0,0.0,0.0,0.0,0.0,0.0,0.0,0.0,0.0,0.0,0.0,0.0,0.0,0.0,0.0,0.0,0.0,0.0,0.0,0.0,0.0,0.0,3.2328,0.0,0.0,0.0,0.0,0.0,0.0,0.0,0.0,0.0,3.8127,4.0364,4.312,4.6109,4.74,4.865,5.023,0.0,0.0,0.0,0.0,0.0,0.0,0.0,5.0492,5.0172,5.0601,5.0906,5.058,5.0083,4.9843,5.0246,0.0,0.0,4.4929,4.3988,4.4006,4.4278,4.5228,4.6074,4.6344,4.782,4.9328,0.0,0.0,0.0,0.0,0.0,0.0,0.0,0.0,3.3079,3.3318,0.0,3.2739,0.0,0.0,0.0,0.0,0.0,3.4773,0.0,0.0,4.2777,4.4836,4.6842,4.7486,4.8015,4.8435,4.8481,4.8273,4.7562,4.279,0.0,0.0,0.0,0.0,0.0,0.0,4.9261,5.2705,5.5637,5.7704,5.898,5.904,5.901,5.8949,5.6814,5.4701,5.2711,4.9952,4.7241,4.4556,4.0786,0.0,0.0,0.0,0.0,0.0,0.0,0.0,0.0,0.0,0.0,0.0,0.0,0.0,0.0,0.0,0.0,0.0,0.0,0.0,0.0,3.3472,0.0,0.0,0.0,0.0,0.0,0.0,0.0,0.0,0.0,0.0,4.2652,4.4267,4.6269,4.8498,0.0,0.0,0.0,0.0,5.2147,5.2837,5.2502,5.2279,5.2307,5.2981,5.3357,5.2949,0.0,0.0,5.3986,5.4136,5.4596,5.5629,5.6154,5.5272,5.1502,5.0606,5.0524,5.089,5.1533,5.2268,5.3016,5.3905,5.4996,4.0148,0.0,0.0,0.0,0.0,3.6173,3.6473,3.675,3.7523,3.7606,3.7198,3.7399,0.0,0.0,0.0,0.0,0.0,0.0,4.2048,4.4489,4.687,4.8654,4.9916,5.1336,5.2098,5.225,5.2921,5.2993,5.257,5.1116,4.7834,4.2977,0.0,0.0,0.0,0.0,5.2607,5.4995,5.7284,5.8828,5.9682,5.9713,5.9496,5.898,5.7446,5.6017,5.4792,5.3008,5.0996,4.8603,4.5672,0.0,0.0,0.0,0.0,0.0,0.0,0.0,0.0,0.0,0.0,0.0,0.0,0.0,0.0,0.0,0.0,0.0,0.0,0.0,3.6922,3.6892,3.674,0.0,0.0,0.0,0.0,0.0,0.0,0.0,0.0,0.0,5.0377,4.9668,4.9761,0.0,0.0,5.3703,5.467,5.5585,5.6386,5.6895,0.0,0.0,0.0,5.7536,5.7707,5.8117,5.8661,5.9056,5.8995,5.8778,5.9093,6.0571,6.0965,6.1052,6.1179,5.8346,5.6311,5.6434,5.7139,5.7943,5.8708,5.9816,6.0957,4.5508,4.2893,4.0267,3.9336,3.9623,4.0142,4.0639,4.1071,4.1824,4.1843,4.1387,4.1605,4.0992,3.982,4.024,0.0,0.0,0.0,4.6735,4.8822,5.0832,5.2351,5.336,5.4565,5.51,5.5155,5.5799,5.6027,5.5812,5.5882,5.3827,4.9756,0.0,0.0,5.0155,5.2929,5.5201,5.6938,5.8502,5.9652,6.0272,6.0329,5.9993,5.9347,5.842,5.7416,5.6354,5.517,5.3616,5.161,4.9299,4.6727,0.0,0.0,0.0,0.0,0.0,0.0,0.0,0.0,0.0,0.0,0.0,2.8448,0.0,0.0,0.0,0.0,3.6004,3.8341,4.0617,4.0237,0.0,0.0,0.0,0.0,0.0,0.0,0.0,4.838,5.0475,5.296,5.6104,5.5673,5.5104,5.5416,5.576,5.6316,5.723,0.0,5.9425,5.9902,6.0612,6.1189,6.1385,6.1511,6.1842,6.2557,6.2933,6.3127,6.3127,6.2861,6.3206,6.4331,6.4706,6.5237,6.6946,6.477,6.2538,6.1871,6.212,6.2757,6.3478,6.4567,6.5644,5.0255,4.9842,4.5351,4.3432,4.3329,4.414,4.4794,4.5387,4.5845,4.5924,4.5646,4.5438,4.5022,4.456,4.5232,0.0,4.741,4.9272,5.1232,5.3334,5.4467,5.5623,5.6727,5.7046,5.724,5.7326,5.7699,5.7889,5.8002,5.8234,5.8059,5.739,5.5615,5.4581,5.4453,5.5896,5.7278,5.8502,5.943,6.0178,6.0794,6.0794,6.0486,5.9901,5.9579,5.8838,5.762,5.6608,5.5419,5.3887,5.1964,4.9922,4.7728,0.0,0.0,0.0,0.0,0.0,0.0,0.0,0.0,0.0,0.0,0.0,0.0,0.0,0.0,0.0,3.979,0.0,4.4074,4.3728,0.0,0.0,0.0,4.5101,4.782,4.9497,5.1438,5.4019,0.0,0.0,6.0402,6.166,6.1491,5.9171,5.883,5.9001,5.954,6.0856,6.1819,6.2405,6.3375,6.4161,6.4451,6.495,6.5521,6.6136,6.6417,6.6306,6.6407,6.6397,6.672,6.7568,6.7691,6.8127,6.9568,6.9738,6.9413,6.7109,6.6651,6.6807,6.7512,6.8337,6.9065,5.3503,5.2898,5.1577,4.989,4.8236,4.839,4.8716,4.9098,4.9214,4.9136,4.8893,4.9022,4.8988,4.8806,4.8742,4.9489,5.0966,5.2249,5.3706,5.5204,5.6113,5.6717,5.7046,5.7847,5.8516,5.9051,5.983,6.0555,6.1229,6.131,6.1382,6.1383,6.0949,5.9338,5.6775,5.8193,5.9148,5.9455,6.0183,6.064,6.0794,6.0794,6.0732,6.0547,6.0004,5.9476,5.8904,5.7723,5.6686,5.5902,5.4436,5.2839,5.1103,4.7908,0.0,0.0,0.0,0.0,0.0,0.0,0.0,0.0,0.0,3.3732,3.5979,0.0,3.8918,0.0,4.448,4.6922,4.843,4.8633,0.0,0.0,5.1008,5.2171,5.4773,5.6198,5.7874,6.0227,6.1415,6.2701,6.4541,6.5509,6.6081,6.6073,6.4581,6.3611,6.3967,6.4851,6.5725,6.6186,6.6951,6.7574,6.7837,6.8015,6.8196,6.8386,6.8255,6.8314,6.8864,6.8808,6.9199,7.0533,7.0938,7.1376,7.2312,7.2607,7.2438,7.1818,7.0884,7.031,7.1019,7.1334,7.1695,5.5696,5.5371,5.5211,5.4384,5.3048,5.2269,5.2217,5.266,5.2662,5.2583,5.2476,5.2609,5.2699,5.2798,5.2731,5.3245,5.4178,5.4917,5.5841,5.6855,5.7772,5.8354,5.8684,5.964,6.0314,6.0674,6.1338,6.2045,6.2819,6.2959,6.3094,6.3229,6.3229,6.2099,5.9911,6.0274,6.0366,6.0059,6.0557,6.0794,6.0794,6.0794,6.0794,6.0794,6.0321,5.9906,5.9604,5.8435,5.7511,5.6774,5.5904,5.4752,5.3332,5.0879,4.811,0.0,0.0,0.0,0.0,0.0,0.0,0.0,0.0,0.0,0.0,0.0,4.3029,0.0,4.9047,5.1215,5.2419,5.3355,5.4465,5.5911,5.6625,5.7954,6.0345,6.1838,6.3351,6.5028,6.6122,6.7239,6.8483,6.9097,6.9723,7.055,6.9595,6.8525,6.7866,6.8504,6.9323,6.9525,7.0288,7.0873,7.1041,7.1041,7.1041,7.1075,7.0951,7.0996,7.1367,7.1355,7.1612,7.2458,7.2683,7.3,7.3792,7.3984,7.4052,7.4289,7.3849,7.324,7.2935,7.3138,7.3544,5.7603,5.7603,5.7603,5.7603,5.7464,5.5883,5.5394,5.5715,5.5661,5.5661,5.5661,5.5661,5.5796,5.6094,5.6394,5.6696,5.7021,5.7348,5.7869,5.8584,5.9449,6.0183,6.0814,6.175,6.222,6.2312,6.2676,6.3183,6.3853,6.4128,6.4238,6.4265,6.42,6.383,6.3098,6.2208,6.137,6.0608,6.0817,6.0886,6.0794,6.0794,6.0794,6.0794,6.0612,6.031,5.9932,5.9077,5.8151,5.7258,5.6812,5.6042,5.4854,5.3434,5.1397,0.0,4.6142,0.0,0.0,0.0,0.0,0.0,0.0,0.0,0.0,4.5655,4.7722,5.1101,5.3672,5.5581,5.6552,5.7989,5.9403,6.0772,6.1688,6.3045,6.5149,6.6757,6.806,6.8954,7.0184,7.1224,7.1761,7.2216,7.2645,7.3093,7.3335,7.2793,7.1409,7.1606,7.2062,7.2197,7.2922,7.3105,7.3229,7.3331,7.3308,7.3398,7.324,7.3624,7.3749,7.3783,7.3918,7.4168,7.4361,7.4507,7.5026,7.5171,7.5351,7.595,7.596,7.5439,7.4255,7.4424,7.4864,6.0328,6.0328,6.0356,6.0356,6.0268,5.9389,5.8175,5.6779,5.6568,5.6462,5.6462,5.6492,5.6621,5.6918,5.7507,5.8098,5.8689,5.9251,6.0014,6.0864,6.1039,6.1382,6.178,6.2692,6.344,6.3987,6.4819,6.5604,6.6249,6.6498,6.6666,6.6635,6.6361,6.574,6.4836,0.0,0.0,0.0,6.1568,6.1348,6.0824,6.0794,6.0794,6.0794,6.0949,0.0,6.0635,6.0116,5.9336,5.8206,5.7733,0.0,0.0,0.0,0.0,0.0,0.0,0.0,0.0,0.0,0.0,0.0,5.1516,5.0798,4.8986,5.2166,5.5323,5.7525,5.9046,6.0499,6.2013,6.265,6.3935,6.6167,6.6835,6.7982,7.0319,7.1063,7.166,7.2449,7.2787,7.2989,7.3169,7.3688,7.4184,7.4364,7.4874,7.5087,7.4674,7.381,7.3261,7.3228,7.3578,7.3567,7.35,7.3635,7.3794,7.35,7.35,7.41,7.5338,7.5623,7.6203,7.7253,7.7709,7.7675,7.7822,7.7758,7.7652,7.7842,7.7707,7.7096,7.5642,7.5912,7.6454,6.1076,0.0,6.1076,6.1076,0.0,6.0745,6.0027,5.9039,5.8247,5.8074,5.8402,5.8733,5.8964,5.9099,5.9431,5.976,6.0116,6.0611,6.1132,6.1797,6.2737,6.3345,6.3647,6.4964,6.5723,6.6094,6.6436,6.699,6.7639,6.7781,6.792,6.803,6.8165,6.7645,6.6443,6.5594,6.4217,6.2328,6.2302,6.1963,6.1317,6.1417,6.1392,6.1206,0.0,0.0,0.0,0.0,0.0,0.0,0.0,0.0,0.0,0.0,0.0,5.4904,5.4157,5.3448,5.2781,5.3374,5.4539,5.6253,5.817,5.7953,5.4823,5.7899,6.0502,6.1795,6.3412,6.4912,6.6103,6.7183,6.8423,6.9868,7.0442,7.1308,7.2582,7.3204,7.3646,7.3984,7.4356,7.4559,7.4593,7.5236,7.5709,7.5777,7.6352,7.6792,7.669,7.554,7.4695,7.5067,7.5168,7.5374,7.5832,7.5923,7.596,7.6054,7.6171,7.6618,7.7417,7.7753,7.8259,7.9097,7.9327,7.9431,7.9258,7.9176,7.9012,7.8811,7.862,7.8272,7.7336,7.7324,7.7435,6.1463,6.1463,6.1463,6.1463,6.1463,6.1343,6.1224,6.1016,0.0,0.0,0.0,6.0864,6.1076,6.1076,6.128,6.1399,6.1575,6.2001,6.2453,6.3019,6.47,6.5661,6.602,6.7488,6.8224,6.8193,6.7956,6.816,6.872,6.8777,6.8947,6.9255,6.9742,6.9373,6.8161,6.7134,6.5717,6.3964,6.3397,6.2831,6.2152,6.2414,6.2395,6.2109,6.221,6.2487,6.2879,6.2218,6.1684,6.14,6.0543,5.9862,5.942,5.9475,5.9216,5.8515,5.8871,5.8874,5.8259,5.9434,6.0419,6.082,6.3796,6.4257,6.1124,6.2978,6.4676,6.5531,6.7295,6.8659,6.9517,7.1078,7.2311,7.2702,7.3342,7.3885,7.4265,7.4796,7.527,7.5246,7.5777,7.6115,7.6115,7.6657,7.7096,7.713,7.7502,7.801,7.7841,7.686,7.6318,7.6826,7.6908,7.7367,7.8152,7.8412,7.8644,7.8621,7.8957,7.9361,7.958,7.9901,8.023,8.0563,8.0695,8.0752,8.0538,8.0518,8.0233,7.9844,7.9705,7.9635,7.9366,7.9044,7.8754,6.2808,6.2838,6.2838,6.2808,6.275,6.2211,6.1642,6.1104,6.0924,6.0867,6.0984,6.1046,6.1076,6.1134,6.1954,6.2608,6.3237,6.4351,6.5466,0.0,6.7378,6.8016,6.8594,6.9414,6.9763,6.9772,6.9815,6.9941,7.0033,7.0259,7.054,7.0775,7.1054,7.0875,7.0331,6.9297,6.8538,6.799,6.5639,6.4097,6.3469,6.3699,6.3952,6.4108,6.45,6.4807,6.4874,6.4976,6.4367,6.2964,6.2956,6.2432,6.1243,6.154,6.169,6.1593,6.186,6.2211,6.2713,6.2964,6.4004,6.6114,6.8757,6.9159,6.6545,6.7114,6.8437,7.0097,7.0628,7.1241,7.2388,7.3403,7.4286,7.5073,7.5865,7.6632,7.7121,7.7324,7.7367,7.7333,7.7604,7.7604,7.7536,7.7739,7.7865,7.7865,7.8127,7.8102,7.8127,7.7831,7.773,7.7856,7.806,7.8278,7.8842,7.9093,7.9545,7.9625,8.0001,8.0526,8.124,8.1563,8.2015,8.28,8.2982,8.3038,8.2901,8.2787,8.2448,8.2157,8.1919,8.1816,8.1713,8.1633,8.1192,6.3378,6.3108,6.3108,6.3108,6.3078,6.2922,6.2917,6.2976,6.3118,6.2613,6.1761,6.276,6.3118,6.3036,6.3983,6.4666,6.5111,6.6016,6.7082,6.8277,6.9255,7.0086,7.0785,7.149,7.1707,7.1612,7.1497,7.1388,7.125,7.136,7.1602,7.2025,7.2222,7.2269,7.2191,7.1092,7.0423,7.0272,6.7425,6.5649,6.514,6.5211,6.5332,6.5376,6.5738,6.6039,6.6161,6.6282,6.6013,6.5244,6.4917,6.45,6.3905,6.4195,6.4377,6.4377,6.4965,6.5629,6.6377,6.7275,6.8719,7.0747,7.2362,7.3011,7.2159,7.1636,7.1932,7.3159,7.3772,7.4478,7.5435,7.6009,7.6492,7.6893,7.729,7.7604,7.7908,7.801,7.801,7.801,7.801,7.801,7.801,7.8348,7.8585,7.8619,7.9013,7.9433,7.958,7.9693,7.9581,7.9109,7.9331,7.9907,8.0558,8.1112,8.1497,8.1764,8.2129,8.2508,8.3032,8.3302,8.3718,8.4163,8.44,8.4441,8.4276,8.415,8.394,8.3619,8.3467,8.3358,8.3191,8.3059,8.2529,6.3947,6.3528,6.3498,6.3586,6.3673,6.3845,6.4348,6.4945,6.5292,6.46,6.3558,6.4752,6.5177,6.5034,6.5897,6.6549,6.7016,6.7641,6.8591,6.9809,7.1052,7.202,7.2722,7.3248,7.3408,7.3233,7.2887,7.2597,7.2417,7.239,7.2703,7.3239,7.3491,7.3707,7.3878,7.2803,7.2192,7.1969,6.9498,6.7811,6.7085,6.6974,6.687,6.6777,6.7011,6.7275,6.7522,6.7546,6.748,6.7283,6.6757,6.6396,6.6232,6.6582,6.6829,6.705,6.7897,6.8789,6.9622,7.1199,7.2725,7.4022,7.5033,7.5829,7.6265,7.5634,7.5173,7.5619,7.6212,7.6932,7.7502,7.7954,7.8247,7.8271,7.8416,7.8517,7.8517,7.8508,7.8483,7.8508,7.8483,7.8517,7.8585,7.8991,7.9379,7.963,8.0236,8.0814,8.119,8.1455,8.1183,8.0912,8.088,8.1378,8.2473,8.3002,8.3361,8.3748,8.4073,8.421,8.4405,8.4763,8.4984,8.5004,8.5199,8.5218,8.51,8.502,8.4823,8.4477,8.4373,8.4388,8.4456,8.4315,8.3665,6.4845,6.4815,6.4755,6.4992,6.5228,6.5287,6.5668,6.625,6.6566,6.6817,6.6773,6.6447,6.6308,6.6336,6.7,6.7827,6.8664,6.9446,7.0635,7.2034,7.3018,7.3752,7.4223,7.4348,7.4356,7.4281,7.3851,7.3562,7.3511,7.3537,7.392,7.468,7.4957,7.5069,7.5026,7.4397,7.3941,7.37,7.2501,7.1095,6.9472,6.8977,6.874,6.8748,6.8991,6.9289,6.9504,6.9552,6.9197,6.8592,6.8502,6.8138,6.7619,6.8095,6.8781,6.9467,7.0401,7.1404,7.2386,7.3839,7.4725,7.4984,7.6456,7.7353,7.7522,7.8159,7.8209,7.763,7.7479,7.7704,7.7994,7.8594,7.8991,7.9058,7.9498,8.0006,7.9904,8.0006,7.9972,8.0006,7.9803,7.9972,7.9837,7.9963,8.0265,8.0643,8.1004,8.1493,8.1966,8.2246,8.2565,8.2798,8.2686,8.2619,8.3292,8.3791,8.4213,8.4641,8.4924,8.5044,8.5139,8.5242,8.5437,8.5434,8.5625,8.5663,8.5531,8.5437,8.5339,8.5195,8.5151,8.5351,8.5885,8.5938,8.5186,6.5353,6.4994,6.4994,6.5202,6.5527,6.6083,6.6817,6.7526,6.807,6.8767,6.9528,6.9671,6.92,6.8408,6.9203,6.9999,7.0722,7.137,7.2331,7.3434,7.4097,7.468,7.517,7.5194,7.5122,7.4984,7.4729,7.4581,7.4514,7.4581,7.4828,7.5155,7.5422,7.5542,7.5532,7.5262,7.5079,7.4926,7.4123,7.3179,7.2215,7.1259,7.0765,7.0773,7.0871,7.0969,7.1066,7.1123,7.0958,7.0659,7.0659,7.0527,7.0205,7.0662,7.1023,7.1355,7.2271,7.327,7.4272,7.5305,7.6328,7.7352,7.8058,7.8672,7.9111,7.955,7.955,7.9238,7.9145,7.9195,7.9295,7.9566,7.9769,7.9803,8.004,8.0209,8.0209,8.0209,8.0209,8.0209,8.0209,8.0209,8.0259,8.0485,8.0848,8.1359,8.1731,8.2211,8.2804,8.3116,8.3589,8.4087,8.4045,8.4003,8.4311,8.4666,8.5004,8.5222,8.5453,8.5625,8.5625,8.5663,8.5723,8.574,8.5816,8.5854,8.5759,8.5759,8.5721,8.5678,8.6111,8.6508,8.7302,8.7289,8.6711,6.6011,6.5592,6.5622,6.5981,6.6513,6.7239,6.8117,6.9089,6.9741,7.0663,7.1706,7.2251,7.1966,7.1172,7.1482,7.1982,7.2491,7.2966,7.3588,7.4331,7.4803,7.5243,7.5652,7.5676,7.5614,7.5446,7.5398,7.5325,7.5204,7.5325,7.5422,7.5446,7.5614,7.5676,7.5676,7.5676,7.5676,7.5642,7.5097,7.4599,7.4098,7.3216,7.2514,7.2051,7.1993,7.1993,7.1993,7.1993,7.1993,7.1985,7.2091,7.2107,7.214,7.255,7.2944,7.3217,7.3864,7.4719,7.5749,7.6515,7.7543,7.8907,7.9261,7.9634,8.0073,8.0209,8.0209,8.0141,8.0209,8.0141,8.0209,8.0209,8.0209,8.0209,8.0209,8.0209,8.0209,8.0209,8.0209,8.0209,8.0209,8.0284,8.0426,8.0872,8.1397,8.2025,8.2532,8.3072,8.3705,8.406,8.4373,8.4924,8.506,8.5024,8.5064,8.5222,8.5495,8.5646,8.5778,8.5871,8.5909,8.5909,8.5873,8.5816,8.589,8.5909,8.5835,8.589,8.6035,8.6308,8.6759,8.7464,8.8313,8.8324,8.8445,6.6939,6.694,6.7245,6.7877,6.8766,6.9083,6.9859,7.0953,7.1561,7.2384,7.3129,7.3492,7.3843,7.4081,7.3426,7.3304,7.3614,7.3927,7.4331,7.4852,7.5122,7.5446,7.5652,7.5676,7.5652,7.5662,7.5638,7.5662,7.5638,7.5662,7.5709,7.5652,7.5709,7.5676,7.5676,7.5676,7.5676,7.5652,7.5369,7.5137,7.4893,7.4622,7.3592,7.2274,7.2051,7.2117,7.2084,7.2051,7.2051,7.2051,7.2353,7.2465,7.2498,7.3317,7.4228,7.4959,7.5176,7.5667,7.6719,7.7444,7.8256,7.9058,7.9735,8.0141,8.0175,8.0209,8.0209,8.0209,8.0209,8.0209,8.0209,8.0209,8.0209,8.0209,8.0209,8.0209,8.0209,8.0209,8.0209,8.0209,8.0234,8.0485,8.0872,8.1373,8.2072,8.2814,8.3467,8.4017,8.4579,8.4819,8.5024,8.532,8.5475,8.5475,8.5475,8.5553,8.5685,8.578,8.5911,8.5966,8.5928,8.5909,8.5928,8.5928,8.5911,8.5911,8.5928,8.6054,8.6271,8.6651,8.7266,8.8027,8.8589,8.9096,8.9146,6.7548,6.7969,6.8653,6.9267,6.9816,7.0662,7.1493,7.2219,7.2835,7.3466,7.4029,7.4356,7.468,7.5009,7.4877,7.4704,7.4564,7.4787,7.4975,7.517,7.5446,7.5614,7.5652,7.5676,7.5676,7.5676,7.5676,7.5676,7.5676,7.5676,7.5676,7.5676,7.5676,7.5676,7.5676,7.5676,7.5676,7.5652,7.5446,7.5204,7.4993,7.4722,7.4182,7.3467,7.3434,7.3434,7.3401,7.3584,7.3658,7.3658,7.3896,7.4067,7.4101,7.4521,7.5032,7.5484,7.5566,7.6154,7.7401,7.7865,7.8517,7.9667,8.004,8.0209,8.0209,8.0209,8.0209,8.0209,8.0209,8.0209,8.0209,8.0209,8.0209,8.0209,8.0209,8.0209,8.0209,8.0209,8.0209,8.0234,8.036,8.07,8.1349,8.1861,8.26,8.3597,8.4102,8.4579,8.5103,8.5378,8.5553,8.5819,8.5988,8.6063,8.6063,8.5951,8.5932,8.6007,8.6118,8.6192,8.6192,8.6173,8.6173,8.6025,8.6006,8.5967,8.5948,8.6054,8.6344,8.6795,8.7483,8.8027,8.8481,8.8751,8.8859,6.8416,6.9063,6.9756,7.041,7.1025,7.1874,7.2624,7.3246,7.3843,7.4356,7.4754,7.5024,7.5243,7.5446,7.5638,7.5542,7.5228,7.5373,7.5422,7.5446,7.5614,7.5676,7.5676,7.5676,7.5676,7.5676,7.5676,7.5676,7.5676,7.5676,7.5676,7.5676,7.5676,7.5676,7.5676,7.5676,7.5652,7.5566,7.5325,7.5058,7.487,7.4672,7.4498,7.4372,7.4423,7.4423,7.4347,7.4573,7.4722,7.478,7.4968,7.514,7.5204,7.5349,7.5518,7.5652,7.5676,7.6352,7.7705,7.801,7.8619,8.004,8.0209,8.0209,8.0209,8.0209,8.0209,8.0209,8.0209,8.0209,8.0209,8.0209,8.0209,8.0209,8.0209,8.0225,8.0301,8.0301,8.0401,8.0601,8.0848,8.1277,8.1966,8.2497,8.3279,8.4311,8.4738,8.5163,8.5591,8.5857,8.6026,8.6174,8.6265,8.632,8.6338,8.6265,8.6192,8.6247,8.6265,8.6411,8.6429,8.6411,8.6338,8.6174,8.6063,8.6025,8.604,8.6109,8.6433,8.6868,8.7447,8.8027,8.8208,8.8244,8.8316,6.9701,7.024,7.0519,7.1374,7.2352,7.2776,7.3356,7.4097,7.4655,7.5,7.5277,7.5566,7.5604,7.5652,7.5709,7.5686,7.5662,7.5662,7.5628,7.5652,7.5676,7.5676,7.5676,7.5676,7.5676,7.5676,7.5676,7.5676,7.5676,7.5676,7.5676,7.5676,7.5676,7.5676,7.5676,7.5676,7.559,7.5349,7.5106,7.4895,7.4656,7.4631,7.4631,7.4631,7.4821,7.4845,7.4656,7.4845,7.4993,7.5018,7.5179,7.5422,7.5614,7.5662,7.5652,7.5709,7.5676,7.6454,7.7739,7.801,7.8643,7.9904,8.0209,8.0209,8.0209,8.0209,8.0209,8.0209,8.0209,8.0209,8.0209,8.0209,8.0209,8.0209,8.0234,8.036,8.0535,8.0635,8.0799,8.1228,8.1564,8.2036,8.2691,8.3292,8.4003,8.4763,8.532,8.5725,8.6007,8.621,8.6393,8.6392,8.6447,8.6555,8.6536,8.6536,8.6483,8.6465,8.6501,8.6537,8.6573,8.6536,8.6429,8.6283,8.608,8.6024,8.5985,8.609,8.638,8.6832,8.7447,8.7665,8.7556,8.752,8.7737,7.1048,7.152,7.2379,7.3038,7.3614,7.4046,7.4522,7.4926,7.5291,7.5518,7.559,7.5686,7.5676,7.5676,7.5676,7.5676,7.5676,7.5676,7.5676,7.5676,7.5676,7.5676,7.5676,7.5676,7.5676,7.5676,7.5676,7.5676,7.5676,7.5676,7.5676,7.5676,7.5676,7.5676,7.5676,7.5676,7.5566,7.5301,7.5115,7.4944,7.4845,7.4672,7.4672,7.487,7.5091,7.5155,7.5082,7.5155,7.5204,7.5204,7.5446,7.5638,7.5652,7.5676,7.5676,7.5676,7.5676,7.6352,7.7705,7.8044,7.8619,7.9837,8.0209,8.0209,8.0209,8.0209,8.0209,8.0209,8.0209,8.0209,8.0209,8.0209,8.0234,8.0209,8.0385,8.061,8.0946,8.1325,8.1731,8.2002,8.228,8.2759,8.3358,8.3918,8.4482,8.53,8.5687,8.5932,8.6229,8.6465,8.6626,8.659,8.6697,8.675,8.6768,8.6768,8.675,8.6715,8.6715,8.668,8.6715,8.6715,8.6554,8.632,8.6136,8.6005,8.5983,8.6054,8.6308,8.6344,8.6561,8.6634,8.6634,8.6778,8.6996,7.2251,7.2735,7.3588,7.4206,7.4556,7.4926,7.5194,7.547,7.5638,7.5676,7.5676,7.5676,7.5676,7.5676,7.5676,7.5676,7.5676,7.5676,7.5676,7.5676,7.5676,7.5676,7.5676,7.5676,7.5676,7.5676,7.5676,7.5676,7.5676,7.5676,7.5676,7.5676,7.5676,7.5676,7.5676,7.5676,7.559,7.5325,7.5179,7.5091,7.4993,7.4919,7.4944,7.514,7.5325,7.5446,7.5446,7.547,7.5446,7.547,7.5604,7.5676,7.5676,7.5676,7.5676,7.5676,7.5777,7.6352,7.7764,7.801,7.8619,7.9837,8.0209,8.0209,8.0209,8.0209,8.0209,8.0209,8.0209,8.0259,8.0335,8.036,8.0401,8.0601,8.0675,8.1019,8.1575,8.2246,8.2736,8.305,8.3314,8.3726,8.4192,8.4625,8.5064,8.5763,8.6044,8.6174,8.6465,8.6697,8.6768,8.6821,8.6873,8.6925,8.6997,8.6997,8.6997,8.698,8.6962,8.6927,8.6891,8.6891,8.6803,8.6429,8.6136,8.5986,8.5945,8.5909,8.6054,8.5909,8.5909,8.6054,8.6235,8.6163,8.6308,7.3259,7.38,7.4331,7.4861,7.5252,7.5325,7.5436,7.5628,7.5676,7.5676,7.5676,7.5676,7.5676,7.5676,7.5676,7.5676,7.5676,7.5676,7.5676,7.5676,7.5676,7.5676,7.5676,7.5676,7.5676,7.5676,7.5676,7.5676,7.5676,7.5676,7.5676,7.5676,7.5676,7.5676,7.5676,7.5676,7.5566,7.5349,7.5301,7.5213,7.5067,7.5155,7.5301,7.5325,7.5542,7.5652,7.5628,7.5662,7.5686,7.5709,7.5709,7.5676,7.5676,7.5676,7.5676,7.5676,7.5676,7.6454,7.7561,7.7967,7.8585,7.9803,8.0141,8.0209,8.0209,8.0209,8.02,8.0284,8.0309,8.041,8.061,8.0749,8.097,8.1301,8.1383,8.1731,8.2691,8.3271,8.3662,8.4087,8.442,8.4707,8.5103,8.5475,8.5801,8.6118,8.6411,8.6572,8.6733,8.6838,8.698,8.7014,8.6978,8.6978,8.7014,8.7014,8.7014,8.7014,8.7014,8.7014,8.6997,8.6943,8.6856,8.6483,8.6192,8.6024,8.5909,8.5909,8.5909,8.5909,8.5909,8.5909,8.5909,8.5909,8.5909,7.4105,7.463,7.5146,7.5494,7.5614,7.5614,7.5638,7.5676,7.5676,7.5676,7.5676,7.5676,7.5676,7.5676,7.5676,7.5676,7.5676,7.5676,7.5676,7.5676,7.5676,7.5676,7.5676,7.5676,7.5676,7.5676,7.5676,7.5676,7.5676,7.5676,7.5676,7.5676,7.5676,7.5676,7.5676,7.5676,7.5532,7.5349,7.5301,7.5301,7.5252,7.5277,7.5422,7.559,7.5628,7.5676,7.5676,7.5676,7.5676,7.5676,7.5676,7.5676,7.5676,7.5676,7.5676,7.5676,7.5743,7.6115,7.7029,7.7705,7.845,7.9295,7.9938,8.0209,8.0209,8.0209,8.0276,8.046,8.0659,8.0906,8.1141,8.1493,8.199,8.2521,8.2498,8.2714,8.3554,8.4102,8.4471,8.4844,8.5123,8.5378,8.5629,8.5876,8.6155,8.6447,8.6662,8.6768,8.6856,8.6908,8.7014,8.7014,8.7014,8.7014,8.7014,8.7014,8.7014,8.7014,8.7014,8.7014,8.6925,8.6873,8.6715,8.6392,8.6283,8.608,8.5967,8.5928,8.5909,8.6004,8.5911,8.593,8.5928,8.5928,8.5909,7.468,7.5097,7.5508,7.5676,7.5676,7.5676,7.5676,7.5676,7.5676,7.5676,7.5676,7.5676,7.5676,7.5676,7.5676,7.5676,7.5676,7.5676,7.5676,7.5676,7.5676,7.5676,7.5676,7.5676,7.5676,7.5676,7.5676,7.5676,7.5676,7.5676,7.5676,7.5676,7.5676,7.5676,7.5676,7.5676,7.5604,7.5494,7.547,7.547,7.547,7.547,7.5542,7.5652,7.5676,7.5676,7.5676,7.5676,7.5676,7.5676,7.5676,7.5676,7.5676,7.5676,7.5676,7.5676,7.5676,7.6048,7.6826,7.757,7.8314,7.9034,7.9769,8.0191,8.0385,8.046,8.0625,8.0872,8.1238,8.1517,8.1849,8.243,8.3072,8.3597,8.3805,8.3982,8.4477,8.4844,8.5182,8.5514,8.5744,8.5951,8.6137,8.6265,8.6483,8.6733,8.6821,8.6891,8.6943,8.7014,8.7014,8.7014,8.7014,8.7014,8.7014,8.7014,8.7014,8.7014,8.7014,8.7014,8.6943,8.6856,8.6715,8.6501,8.6338,8.6192,8.6099,8.608,8.6154,8.6136,8.6043,8.6005,8.5986,8.593,8.5947,7.5097,7.534,7.5614,7.5676,7.5676,7.5676,7.5676,7.5676,7.5676,7.5676,7.5676,7.5676,7.5676,7.5676,7.5676,7.5676,7.5676,7.5676,7.5676,7.5676,7.5676,7.5676,7.5676,7.5676,7.5676,7.5676,7.5676,7.5676,7.5676,7.5676,7.5676,7.5676,7.5676,7.5676,7.5676,7.5676,7.5676,7.5652,7.5628,7.5628,7.5662,7.5662,7.5652,7.5652,7.5676,7.5676,7.5676,7.5676,7.5676,7.5676,7.5676,7.5676,7.5676,7.5676,7.5676,7.5676,7.5709,7.6014,7.6773,7.7532,7.8311,7.9013,7.9842,8.0401,8.0675,8.0946,8.1238,8.1445,8.1943,8.2395,8.2849,8.3511,8.4045,8.4503,8.4944,8.5139,8.5179,8.5495,8.5895,8.6118,8.6283,8.6483,8.6608,8.6714,8.6803,8.6856,8.6925,8.6943,8.7014,8.7014,8.7014,8.7014,8.7014,8.7014,8.7014,8.7014,8.7014,8.7014,8.7014,8.7014,8.6997,8.6891,8.6786,8.6662,8.6483,8.6392,8.6338,8.6338,8.6375,8.6338,8.621,8.6173,8.6081,8.6006,8.5986,7.5373,7.5638,7.5686,7.5676,7.5676,7.5676,7.5676,7.5676,7.5676,7.5676,7.5676,7.5676,7.5676,7.5676,7.5676,7.5676,7.5676,7.5676,7.5676,7.5676,7.5676,7.5676,7.5676,7.5676,7.5676,7.5676,7.5676,7.5676,7.5676,7.5676,7.5676,7.5676,7.5676,7.5676,7.5676,7.5676,7.5676,7.5676,7.5676,7.5676,7.5676,7.5676,7.5676,7.5676,7.5676,7.5676,7.5676,7.5676,7.5676,7.5676,7.5676,7.5676,7.5676,7.5676,7.5676,7.5676,7.5733,7.5906,7.6422,7.7502,7.8448,7.8913,8.0141,8.1083,8.1156,8.1612,8.1943,8.2234,8.2804,8.3489,8.4129,8.4497,8.4844,8.5222,8.5514,8.5725,8.5838,8.5915,8.6137,8.6302,8.6537,8.668,8.6733,8.6856,8.6925,8.7014,8.7014,8.7014,8.7014,8.7014,8.7014,8.7014,8.7014,8.7014,8.7014,8.7014,8.7014,8.7014,8.7014,8.7014,8.6997,8.698,8.6856,8.6786,8.6697,8.6609,8.6555,8.6483,8.6501,8.6447,8.6411,8.6302,8.6229,8.6136,8.6062,7.5556,7.5676,7.5676,7.5676,7.5676,7.5676,7.5676,7.5676,7.5676,7.5676,7.5676,7.5676,7.5676,7.5676,7.5676,7.5676,7.5676,7.5676,7.5676,7.5676,7.5676,7.5676,7.5676,7.5676,7.5676,7.5676,7.5676,7.5676,7.5676,7.5676,7.5676,7.5676,7.5676,7.5676,7.5676,7.5676,7.5676,7.5676,7.5676,7.5676,7.5676,7.5676,7.5676,7.5676,7.5676,7.5676,7.5676,7.5676,7.5676,7.5676,7.5676,7.5676,7.5709,7.5676,7.5709,7.5709,7.5828,7.5994,7.6546,7.7543,7.8622,7.9188,8.0534,8.1354,8.1944,8.2464,8.2826,8.3182,8.3726,8.4456,8.5084,8.5281,8.5475,8.5744,8.6044,8.6247,8.6338,8.6374,8.6411,8.6573,8.6733,8.6821,8.6891,8.6943,8.696,8.7014,8.7014,8.7014,8.7014,8.7014,8.7014,8.7014,8.7014,8.7014,8.7014,8.7014,8.7014,8.7014,8.7014,8.7014,8.7014,8.6997,8.6943,8.6873,8.6803,8.6821,8.6768,8.6697,8.6644,8.6697,8.6662,8.6501,8.6392,8.6356,8.6283,7.5676,7.5676,7.5676,7.5676,7.5676,7.5676,7.5676,7.5676,7.5676,7.5676,7.5676,7.5676,7.5676,7.5676,7.5676,7.5676,7.5676,7.5676,7.5676,7.5676,7.5676,7.5676,7.5676,7.5676,7.5676,7.5676,7.5676,7.5676,7.5676,7.5676,7.5676,7.5676,7.5676,7.5676,7.5676,7.5676,7.5676,7.5676,7.5676,7.5676,7.5676,7.5676,7.5676,7.5676,7.5676,7.5676,7.5676,7.5676,7.5733,7.5757,7.5757,7.5781,7.5805,7.5733,7.5757,7.5781,7.6041,7.6391,7.6874,7.7845,7.8977,7.9848,8.0951,8.1828,8.2642,8.3296,8.3748,8.4144,8.46,8.5143,8.5553,8.5744,8.5951,8.6192,8.6501,8.6661,8.6731,8.6731,8.675,8.6768,8.6856,8.6908,8.698,8.7014,8.7014,8.7014,8.7014,8.7014,8.7014,8.7014,8.7014,8.7014,8.7014,8.7014,8.7014,8.7014,8.7014,8.7014,8.7014,8.7014,8.7014,8.7014,8.7014,8.7014,8.698,8.6943,8.6943,8.6873,8.6873,8.6943,8.6873,8.6733,8.6626,8.6536,8.6447,7.5676,7.5676,7.5676,7.5676,7.5676,7.5676,7.5676,7.5676,7.5676,7.5676,7.5676,7.5676,7.5676,7.5676,7.5676,7.5676,7.5676,7.5676,7.5676,7.5676,7.5676,7.5676,7.5676,7.5676,7.5676,7.5676,7.5676,7.5676,7.5676,7.5676,7.5676,7.5676,7.5676,7.5676,7.5676,7.5676,7.5676,7.5676,7.5709,7.5709,7.5811,7.5912,7.5912,7.5946,7.598,7.5902,7.5801,7.5733,7.5805,7.6028,7.6028,7.6192,7.6252,7.6017,7.5947,7.6135,7.6507,7.6884,7.7458,7.8572,7.9436,8.0281,8.1458,8.2502,8.3116,8.3905,8.4457,8.4844,8.5242,8.5725,8.5988,8.6155,8.6356,8.6536,8.668,8.6786,8.6891,8.6925,8.6908,8.6908,8.696,8.7014,8.7014,8.7014,8.7014,8.7014,8.7014,8.7014,8.7014,8.7014,8.7014,8.7014,8.7014,8.7014,8.7014,8.7014,8.7014,8.7014,8.7014,8.7014,8.7014,8.7014,8.7014,8.7014,8.7014,8.7014,8.7014,8.7014,8.7014,8.696,8.6925,8.6891,8.6803,8.6697,8.659,7.5676,7.5676,7.5676,7.5676,7.5676,7.5676,7.5676,7.5676,7.5676,7.5676,7.5676,7.5676,7.5676,7.5676,7.5676,7.5676,7.5676,7.5676,7.5676,7.5676,7.5676,7.5676,7.5709,7.5709,7.5676,7.5676,7.5676,7.5743,7.5676,7.5676,7.5676,7.5676,7.5676,7.5676,7.5676,7.5676,7.5709,7.5709,7.5743,7.5946,7.6318,7.6589,7.686,7.686,7.6816,7.6763,7.6534,7.6642,7.6603,7.654,7.6599,7.6805,7.6861,7.6839,7.6622,7.6748,7.7109,7.7584,7.8124,7.9099,7.9828,8.0668,8.1806,8.2445,8.3045,8.3852,8.4793,8.5425,8.5668,8.6026,8.6229,8.6429,8.6572,8.6679,8.6803,8.6891,8.696,8.7014,8.7014,8.7014,8.7014,8.7014,8.7014,8.7014,8.7014,8.7014,8.7014,8.7014,8.7014,8.7014,8.7014,8.7014,8.7014,8.7014,8.7014,8.7014,8.7014,8.7014,8.7014,8.7014,8.7014,8.7014,8.7014,8.7014,8.7014,8.7014,8.7014,8.7014,8.7014,8.7014,8.6997,8.6925,8.6891,8.6838,8.675,7.5676,7.5676,7.5676,7.5676,7.5676,7.5676,7.5676,7.5676,7.5676,7.5676,7.5676,7.5676,7.5676,7.5676,7.5676,7.5676,7.5676,7.5676,7.5676,7.5743,7.5946,7.598,7.598,7.6115,7.6284,7.6454,7.6352,7.598,7.5709,7.5676,7.5676,7.5676,7.5676,7.5845,7.5946,7.6082,7.598,7.6149,7.6149,7.6521,7.7096,7.7638,7.801,7.8,7.8049,7.7847,7.7649,7.784,7.7755,7.7604,7.7587,7.7683,7.775,7.7824,7.7802,7.7724,7.8009,7.8399,7.8896,7.9535,8.0246,8.0942,8.1532,8.213,8.271,8.3599,8.4622,8.5645,8.5974,8.6138,8.641,8.6662,8.675,8.6803,8.6891,8.7014,8.7014,8.7014,8.7014,8.7014,8.7014,8.6978,8.6941,8.7014,8.7014,8.7014,8.7014,8.7014,8.7014,8.7014,8.7014,8.7014,8.7014,8.7014,8.7014,8.7014,8.7014,8.7014,8.7014,8.7014,8.7014,8.7014,8.7014,8.7014,8.7014,8.7014,8.7014,8.7014,8.7014,8.7014,8.7014,8.6997,8.6943,8.6925,8.6891,7.5676,7.5676,7.5676,7.5676,7.5676,7.5676,7.5676,7.5676,7.5676,7.5676,7.5811,7.5743,7.5777,7.5845,7.5845,7.5777,7.5777,7.5912,7.598,7.6082,7.6487,7.6758,7.686,7.7468,7.7401,7.7401,7.7502,7.6918,7.6251,7.5946,7.5811,7.5879,7.6014,7.6048,7.669,7.6724,7.7121,7.757,7.7662,7.7764,7.7899,7.8034,7.817,7.8209,7.8405,7.8651,7.8897,7.9166,7.9231,7.9138,7.9107,7.8994,7.884,7.8932,7.92,7.9281,7.9281,7.9175,7.9519,8.0078,8.0545,8.1054,8.1617,8.2124,8.2668,8.3338,8.4301,8.5154,8.5533,8.6005,8.6533,8.6838,8.6925,8.6943,8.698,8.7014,8.6978,8.6664,8.6701,8.6611,8.65,8.6721,8.6831,8.6941,8.7014,8.7014,8.7014,8.7014,8.7014,8.7014,8.7014,8.7014,8.7014,8.7014,8.7014,8.7014,8.7014,8.7014,8.7014,8.7014,8.7014,8.7014,8.7014,8.7014,8.7014,8.7014,8.7014,8.7014,8.7014,8.7014,8.7014,8.7014,8.7014,8.7014,8.7014,7.5676,7.5676,7.5676,7.5676,7.5676,7.5676,7.5676,7.5676,7.5709,7.5946,7.6318,7.6386,7.6589,7.686,7.6995,7.7029,7.6995,7.6927,7.6995,7.6927,7.7299,7.7502,7.757,7.7807,7.7976,7.8111,7.7976,7.7705,7.7063,7.6995,7.7019,7.6927,7.6961,7.7188,7.7502,7.7502,7.7696,7.8034,7.8348,7.8585,7.872,7.9016,7.9327,7.9442,7.9824,8.0007,8.0213,8.0792,8.0872,8.0711,8.0476,8.0344,8.0194,8.0032,7.9902,8.0133,8.0135,8.0135,8.0303,8.0638,8.0821,8.1021,8.1508,8.1995,8.2556,8.3372,8.4297,8.5294,8.5894,8.6384,8.6728,8.6943,8.6997,8.7014,8.7014,8.7014,8.6867,8.6407,8.6187,8.6114,8.604,8.6224,8.6481,8.6738,8.6867,8.7014,8.7014,8.7014,8.7014,8.7014,8.7014,8.7014,8.7014,8.7014,8.7014,8.7014,8.7014,8.7014,8.7014,8.7014,8.7014,8.7014,8.7014,8.7014,8.7014,8.7014,8.7014,8.7014,8.7014,8.7014,8.7014,8.7014,8.7014,8.7014,8.7014,7.598,7.598,7.5777,7.5811,7.598,7.598,7.6149,7.6284,7.6318,7.6623,7.7029,7.7198,7.7502,7.7874,7.7874,7.7807,7.7942,7.801,7.801,7.801,7.8179,7.828,7.8382,7.8416,7.8653,7.8542,7.8754,7.8619,7.861,7.8508,7.8348,7.8044,7.7773,7.8044,7.8213,7.828,7.8416,7.8754,7.916,7.9388,7.9564,8.0037,8.0465,8.0878,8.127,8.1608,8.1731,8.2269,8.2475,8.2277,8.1751,8.1523,8.1342,8.0715,8.0649,8.0907,8.1108,8.1381,8.1363,8.1419,8.1129,8.1236,8.1594,8.226,8.2799,8.3618,8.4491,8.5487,8.5961,8.6507,8.6906,8.7014,8.7014,8.7014,8.7014,8.7014,8.6867,8.6371,8.5967,8.5857,8.571,8.549,8.582,8.6334,8.6664,8.6941,8.7014,8.7014,8.7014,8.7014,8.7014,8.7014,8.7014,8.7014,8.7014,8.7014,8.7014,8.7014,8.7014,8.7014,8.7014,8.7014,8.7014,8.7014,8.7014,8.7014,8.7014,8.7014,8.7014,8.7014,8.7014,8.7014,8.7014,8.7014,8.7014,7.6826,7.6758,7.6048,7.6183,7.6826,7.6826,7.7198,7.7604,7.773,7.7773,7.7908,7.7942,7.8077,7.8136,7.8247,7.8213,7.8077,7.801,7.8179,7.8416,7.8653,7.8991,7.916,7.9498,7.987,7.987,7.9701,7.9769,7.9938,7.9634,7.9058,7.8213,7.8382,7.8585,7.8846,7.9074,7.9395,7.9725,8.0055,8.0222,8.0455,8.0814,8.1156,8.1601,8.2083,8.2689,8.3534,8.3826,8.3936,8.3745,8.3108,8.2577,8.2279,8.1541,8.1507,8.1997,8.2179,8.2523,8.2776,8.2213,8.1558,8.1682,8.2168,8.2851,8.3261,8.3917,8.4752,8.5642,8.6082,8.6393,8.6794,8.7014,8.7014,8.7014,8.7014,8.7014,8.6757,8.6224,8.5857,8.5637,8.5453,8.5233,8.5453,8.604,8.6591,8.6867,8.7014,8.7014,8.7014,8.7014,8.7014,8.7014,8.7014,8.7014,8.7014,8.7014,8.7014,8.7014,8.7014,8.7014,8.7014,8.7014,8.7014,8.7014,8.7014,8.7014,8.7014,8.7014,8.7014,8.7014,8.7014,8.7014,8.7014,8.7014,8.7014,7.7594,7.7561,7.7232,7.7299,7.757,7.757,7.7739,7.7976,7.801,7.828,7.872,7.9126,7.9329,7.9329,7.9363,7.9329,7.9363,7.9329,7.9295,7.9397,7.9667,7.9769,7.9938,7.9972,8.0175,8.0209,8.0209,8.0209,8.0141,8.0209,8.0006,7.9464,7.9244,7.9464,7.976,7.9926,8.0313,8.0564,8.0823,8.097,8.1093,8.1445,8.1825,8.2141,8.2926,8.3467,8.4045,8.4666,8.4904,8.4799,8.4304,8.3821,8.3426,8.2757,8.2686,8.3139,8.3193,8.3556,8.3845,8.3353,8.3008,8.318,8.3558,8.379,8.4017,8.4764,8.5238,8.5803,8.6261,8.6664,8.6867,8.7014,8.7014,8.7014,8.7014,8.7014,8.6738,8.6187,8.5857,8.5673,8.5343,8.5013,8.538,8.58,8.6371,8.6848,8.6941,8.7014,8.7014,8.7014,8.7014,8.7014,8.7014,8.7014,8.7014,8.7014,8.7014,8.7014,8.7014,8.7014,8.7014,8.7014,8.7014,8.7014,8.7014,8.7014,8.7014,8.7014,8.7014,8.7014,8.7014,8.7014,8.7014,8.7014,8.7014,7.8314,7.8348,7.8576,7.8517,7.8348,7.8314,7.845,7.8643,7.8686,7.8889,7.9464,7.9972,8.0209,8.0209,8.0175,8.0141,8.0073,8.0073,8.0141,8.0141,8.0107,8.0209,8.0209,8.0209,8.0209,8.0209,8.0209,8.0209,8.0209,8.0209,8.0183,8.0224,8.0376,8.0417,8.0517,8.0848,8.1141,8.1335,8.1517,8.1707,8.1825,8.2234,8.2691,8.3027,8.3748,8.4255,8.4646,8.5143,8.5417,8.5319,8.5054,8.4769,8.4462,8.4173,8.3901,8.4046,8.4245,8.439,8.4642,8.4258,8.413,8.4135,8.4589,8.4784,8.5089,8.5673,8.6187,8.6224,8.6701,8.7014,8.7014,8.7014,8.7014,8.7014,8.7014,8.6978,8.6738,8.6334,8.6004,8.5764,8.5306,8.4939,8.56,8.604,8.6481,8.6921,8.6941,8.7014,8.7014,8.7014,8.7014,8.7014,8.7014,8.7014,8.7014,8.7014,8.7014,8.7014,8.7014,8.7014,8.7014,8.7014,8.7014,8.7014,8.7014,8.7014,8.7014,8.7014,8.7014,8.7014,8.7014,8.7014,8.7014,8.7014,8.7014,7.9067,7.9169,7.9803,7.9701,7.9126,7.9092,7.9406,7.987,7.9938,8.0006,8.004,8.0209,8.0209,8.0209,8.0209,8.0209,8.0209,8.0209,8.0209,8.0209,8.0209,8.0209,8.0209,8.0209,8.0209,8.0209,8.0209,8.0209,8.0209,8.0284,8.0385,8.0749,8.1044,8.1166,8.1068,8.1707,8.206,8.213,8.2303,8.2555,8.2804,8.3227,8.364,8.4039,8.4497,8.4944,8.5222,8.5398,8.5665,8.5652,8.5276,8.5043,8.5009,8.4482,8.4482,8.508,8.5189,8.5606,8.6351,8.5088,8.4772,8.4928,8.5458,8.5713,8.593,8.6407,8.6811,8.6701,8.6941,8.7014,8.7014,8.7014,8.7014,8.7014,8.7014,8.6941,8.6721,8.6591,8.6297,8.6151,8.5453,8.4976,8.5747,8.6371,8.6738,8.6978,8.7014,8.7014,8.7014,8.7014,8.7014,8.7014,8.7014,8.7014,8.7014,8.7014,8.7014,8.7014,8.7014,8.7014,8.7014,8.7014,8.7014,8.7014,8.7014,8.7014,8.7014,8.7014,8.7014,8.7014,8.7014,8.7014,8.7014,8.7014,8.7014,7.9837,7.987,8.0107,8.004,7.9837,7.9837,8.0006,8.0175,8.0209,8.0209,8.0209,8.0209,8.0209,8.0209,8.0209,8.0209,8.0209,8.0209,8.0209,8.0209,8.0209,8.0209,8.0209,8.0209,8.0209,8.0209,8.0209,8.0209,8.0209,8.041,8.0724,8.1107,8.2002,8.2326,8.2211,8.2487,8.2849,8.3072,8.338,8.364,8.3783,8.4165,8.4497,8.4697,8.5064,8.5359,8.5533,8.5685,8.5835,8.593,8.5533,8.5627,8.5719,8.5301,8.5663,8.6098,8.6188,8.6386,8.6765,8.6267,8.6138,8.6244,8.6297,8.6518,8.6664,8.6811,8.6978,8.7014,8.7014,8.7014,8.7014,8.7014,8.7014,8.7014,8.7014,8.7014,8.6867,8.6831,8.6701,8.6701,8.6297,8.6097,8.6518,8.6628,8.6867,8.7014,8.7014,8.7014,8.7014,8.7014,8.7014,8.7014,8.7014,8.7014,8.7014,8.7014,8.7014,8.7014,8.7014,8.7014,8.7014,8.7014,8.7014,8.7014,8.7014,8.7014,8.7014,8.7014,8.7014,8.7014,8.7014,8.7014,8.7014,8.7014,8.7014,8.0209,8.0209,8.0209,8.0209,8.0209,8.0209,8.0209,8.0209,8.0209,8.0209,8.0209,8.0209,8.0209,8.0209,8.0209,8.0209,8.0209,8.0209,8.0209,8.0209,8.0209,8.0209,8.0209,8.0209,8.0209,8.0209,8.0234,8.0234,8.041,8.07,8.1314,8.2222,8.3125,8.3424,8.3445,8.3648,8.3833,8.4045,8.4276,8.4497,8.462,8.4844,8.5064,8.5218,8.5434,8.5685,8.5761,8.5856,8.6005,8.608,8.6155,8.6247,8.632,8.6429,8.659,8.675,8.6821,8.6873,8.6906,8.6941,8.6777,8.6867,8.7014,8.7014,8.7014,8.6978,8.6978,8.7014,8.7014,8.7014,8.7014,8.7014,8.7014,8.7014,8.7014,8.7014,8.6978,8.6904,8.6904,8.6978,8.6978,8.6978,8.7014,8.6978,8.6978,8.7014,8.7014,8.7014,8.7014,8.7014,8.7014,8.7014,8.7014,8.7014,8.7014,8.7014,8.7014,8.7014,8.7014,8.7014,8.7014,8.7014,8.7014,8.7014,8.7014,8.7014,8.7014,8.7014,8.7014,8.7014,8.7014,8.7014,8.7014,8.7014,8.7014,8.0209,8.0209,8.0209,8.0209,8.0209,8.0209,8.0209,8.0209,8.0209,8.0209,8.0209,8.0209,8.0209,8.0209,8.0209,8.0209,8.0209,8.0209,8.0209,8.0209,8.0209,8.0209,8.0209,8.0209,8.0209,8.0175,8.025,8.0426,8.065,8.1458,8.236,8.3213,8.3982,8.4353,8.46,8.4722,8.4783,8.4844,8.4984,8.5139,8.5238,8.5339,8.5475,8.5572,8.5761,8.5931,8.6043,8.61,8.6228,8.632,8.6411,8.6537,8.6644,8.6679,8.6838,8.6925,8.6997,8.696,8.6978,8.7014,8.7014,8.7014,8.7014,8.7014,8.7014,8.7014,8.7014,8.7014,8.7014,8.7014,8.7014,8.7014,8.7014,8.7014,8.7014,8.7014,8.7014,8.6978,8.6978,8.7014,8.7014,8.7014,8.7014,8.7014,8.7014,8.7014,8.7014,8.7014,8.7014,8.7014,8.7014,8.7014,8.7014,8.7014,8.7014,8.7014,8.7014,8.7014,8.7014,8.7014,8.7014,8.7014,8.7014,8.7014,8.7014,8.7014,8.7014,8.7014,8.7014,8.7014,8.7014,8.7014,8.7014,8.7014,8.7014,8.0209,8.0209,8.0209,8.0209,8.0209,8.0209,8.0209,8.0209,8.0209,8.0209,8.0209,8.0209,8.0209,8.0209,8.0209,8.0209,8.0209,8.0209,8.0209,8.0209,8.0209,8.0209,8.0209,8.0234,8.0209,8.0309,8.0426,8.074,8.1363,8.2245,8.3169,8.3961,8.4702,8.5103,8.5317,8.5492,8.5414,8.5414,8.5512,8.5606,8.5663,8.5704,8.5818,8.5895,8.5987,8.6155,8.6302,8.6338,8.6411,8.6429,8.6573,8.668,8.6697,8.6838,8.696,8.6997,8.7014,8.7014,8.7014,8.7014,8.7014,8.7014,8.7014,8.7014,8.7014,8.7014,8.7014,8.7014,8.7014,8.7014,8.7014,8.7014,8.7014,8.7014,8.7014,8.7014,8.7014,8.7014,8.7014,8.7014,8.7014,8.7014,8.7014,8.7014,8.7014,8.7014,8.7014,8.7014,8.7014,8.7014,8.7014,8.7014,8.7014,8.7014,8.7014,8.7014,8.7014,8.7014,8.7014,8.7014,8.7014,8.7014,8.7014,8.7014,8.7014,8.7014,8.7014,8.7014,8.7014,8.7014,8.7014,8.7014,8.7014,8.7014,8.7014,8.0209,8.0209,8.0209,8.0209,8.0209,8.0209,8.0209,8.0209,8.0209,8.0209,8.0209,8.0209,8.0209,8.0209,8.0209,8.0209,8.0209,8.0209,8.0209,8.0209,8.0209,8.0209,8.0209,8.0335,8.046,8.0551,8.0897,8.1314,8.2037,8.3125,8.4108,8.4727,8.5359,8.5531,8.5646,8.5759,8.5759,8.574,8.5778,8.589,8.5892,8.5948,8.6043,8.61,8.6155,8.632,8.6501,8.6537,8.6573,8.6626,8.6803,8.6821,8.6838,8.6925,8.6978,8.7014,8.7014,8.7014,8.7014,8.7014,8.7014,8.7014,8.7014,8.7014,8.7014,8.7014,8.7014,8.7014,8.7014,8.7014,8.7014,8.7014,8.7014,8.7014,8.7014,8.7014,8.7014,8.7014,8.7014,8.7014,8.7014,8.7014,8.7014,8.7014,8.7014,8.7014,8.7014,8.7014,8.7014,8.7014,8.7014,8.7014,8.7014,8.7014,8.7014,8.7014,8.7014,8.7014,8.7014,8.7014,8.7014,8.7014,8.7014,8.7014,8.7014,8.7014,8.7014,8.7014,8.7014,8.7014,8.7014,8.7014,8.7014,8.7014,8.7014,8.0209,8.0209,8.0209,8.0209,8.0209,8.0209,8.0209,8.0209,8.0209,8.0209,8.0209,8.0209,8.0209,8.0209,8.0209,8.0209,8.0209,8.0209,8.0209,8.0209,8.0209,8.0234,8.036,8.051,8.0749,8.1117,8.1588,8.2118,8.2791,8.3833,8.4808,8.5495,8.5572,8.5723,8.5892,8.593,8.5911,8.589,8.5854,8.5892,8.5967,8.6025,8.6118,8.621,8.6338,8.6537,8.668,8.6768,8.6803,8.6925,8.6978,8.6997,8.696,8.6978,8.7014,8.7014,8.7014,8.7014,8.7014,8.7014,8.7014,8.7014,8.7014,8.7014,8.7014,8.7014,8.7014,8.7014,8.7014,8.7014,8.7014,8.7014,8.7014,8.7014,8.7014,8.7014,8.7014,8.7014,8.7014,8.7014,8.7014,8.7014,8.7014,8.7014,8.7014,8.7014,8.7014,8.7014,8.7014,8.7014,8.7014,8.7014,8.7014,8.7014,8.7014,8.7014,8.7014,8.7014,8.7014,8.7014,8.7014,8.7014,8.7014,8.7014,8.7014,8.7014,8.7014,8.7014,8.7014,8.7014,8.7014,8.7051,8.7088,8.7198,8.7308,8.0209,8.0209,8.0209,8.0209,8.0209,8.0209,8.0209,8.0209,8.0209,8.0209,8.0209,8.0209,8.0209,8.0209,8.0209,8.0209,8.0209,8.0209,8.0209,8.0209,8.0209,8.036,8.0535,8.0799,8.1166,8.1636,8.2234,8.3081,8.3946,8.4767,8.532,8.5706,8.5838,8.5988,8.6062,8.6062,8.6024,8.593,8.5911,8.5986,8.608,8.61,8.621,8.6429,8.6662,8.6733,8.6856,8.6908,8.6943,8.7014,8.7014,8.7014,8.7014,8.7014,8.7014,8.7014,8.7014,8.7014,8.7014,8.7014,8.7014,8.7014,8.7014,8.7014,8.7014,8.7014,8.7014,8.7014,8.7014,8.7014,8.7014,8.7014,8.7014,8.7014,8.7014,8.7014,8.7014,8.7014,8.7014,8.7014,8.7014,8.7014,8.7014,8.7014,8.7014,8.7014,8.7014,8.7014,8.7014,8.7014,8.7014,8.7014,8.7014,8.7014,8.7014,8.7014,8.7014,8.7014,8.7014,8.7014,8.7014,8.7014,8.7014,8.7014,8.7014,8.7014,8.7014,8.7014,8.7014,8.7014,8.7051,8.7124,8.7638,8.7876,8.7912,8.0209,8.0209,8.0209,8.0209,8.0209,8.0209,8.0209,8.0209,8.0209,8.0209,8.0209,8.0209,8.0209,8.0209,8.0209,8.0209,8.0209,8.0209,8.0209,8.0209,8.0284,8.0485,8.0759,8.1166,8.1791,8.2337,8.341,8.4379,8.5107,8.5478,8.5857,8.6026,8.6174,8.6229,8.621,8.6155,8.6063,8.5987,8.6005,8.608,8.621,8.6265,8.6374,8.6608,8.6803,8.6891,8.6925,8.7014,8.7014,8.7014,8.7014,8.7014,8.7014,8.7014,8.7014,8.7014,8.7014,8.7014,8.7014,8.7014,8.7014,8.7014,8.7014,8.7014,8.7014,8.7014,8.7014,8.7014,8.7014,8.7014,8.7014,8.7014,8.7014,8.7014,8.7014,8.7014,8.7014,8.7014,8.7014,8.7014,8.7014,8.7014,8.7014,8.7014,8.7014,8.7014,8.7014,8.7014,8.7014,8.7014,8.7014,8.7014,8.7014,8.7014,8.7014,8.7014,8.7014,8.7014,8.7014,8.7014,8.7014,8.7014,8.7014,8.7014,8.7014,8.7014,8.7014,8.7014,8.7014,8.7014,8.7088,8.7215,8.7839,8.8573,8.8867,8.0209,8.0209,8.0209,8.0209,8.0209,8.0209,8.0209,8.0209,8.0209,8.0209,8.0209,8.0209,8.0209,8.0209,8.0209,8.0209,8.0209,8.0209,8.0209,8.0234,8.0284,8.065,8.1166,8.166,8.252,8.3527,8.4646,8.5323,8.597,8.6118,8.6192,8.6411,8.6411,8.6411,8.6374,8.6283,8.6192,8.6155,8.6192,8.6247,8.6338,8.6465,8.6591,8.675,8.6891,8.7014,8.7014,8.7014,8.7014,8.7014,8.7014,8.7014,8.7014,8.7014,8.7014,8.7014,8.7014,8.7014,8.7014,8.7014,8.7014,8.7014,8.7014,8.7014,8.7014,8.7014,8.7014,8.7014,8.7014,8.7014,8.7014,8.7014,8.7014,8.7014,8.7014,8.7014,8.7014,8.7014,8.7014,8.7014,8.7014,8.7014,8.7014,8.7014,8.7014,8.7014,8.7014,8.7014,8.7014,8.7014,8.7014,8.7014,8.7014,8.7014,8.7014,8.7051,8.7088,8.7014,8.7014,8.7014,8.7014,8.7014,8.7014,8.7014,8.7014,8.7051,8.7014,8.7014,8.7014,8.7051,8.7399,8.7692,8.8426,8.916,8.9895,8.0209,8.0209,8.0209,8.0209,8.0209,8.0209,8.0209,8.0209,8.0209,8.0209,8.0209,8.0209,8.0209,8.0209,8.0209,8.0209,8.0209,8.0209,8.0209,8.0234,8.0451,8.0961,8.1672,8.2543,8.3627,8.4651,8.5536,8.6007,8.6356,8.6374,8.6429,8.6644,8.6662,8.6625,8.6608,8.6536,8.6465,8.6392,8.6356,8.6411,8.6554,8.668,8.6768,8.6873,8.6997,8.7014,8.7014,8.7014,8.7014,8.7014,8.7014,8.7014,8.7014,8.7014,8.7014,8.7014,8.7014,8.7014,8.7014,8.7014,8.7014,8.7014,8.7014,8.7014,8.7014,8.7014,8.7014,8.7014,8.7014,8.7014,8.7014,8.7014,8.7014,8.7014,8.7014,8.7014,8.7014,8.7014,8.7014,8.7014,8.7014,8.7014,8.7014,8.7014,8.7014,8.7014,8.7014,8.7014,8.7014,8.7014,8.7014,8.7014,8.7014,8.7014,8.7014,8.7161,8.7198,8.7088,8.7161,8.7455,8.7455,8.7051,8.7051,8.7491,8.7271,8.7124,8.7088,8.7161,8.7124,8.7234,8.7766,8.828,8.9014,8.9657,9.0317]}]]